<?xml version="1.0" encoding="UTF-8" standalone="no" ?>
<gpx xmlns="http://www.topografix.com/GPX/1/1" xmlns:xsi="http://www.w3.org/2001/XMLSchema-instance" xsi:schemaLocation="http://www.topografix.com/GPX/1/1 http://www.topografix.com/GPX/1/1/gpx.xsd" version="1.1" creator="VisuGPX - https://www.visugpx.com">
  <metadata>
    <name>J4 St Hubert-Redu</name>
    <desc><![CDATA[La traversée des Ardennes Belge
J4 St Hubert-Redu 59km 1590m]]></desc>
  </metadata>
  <trk>
    <name><![CDATA[J4 St Hubert-Redu]]></name>
    <trkseg>
      <trkpt lat="50.02526" lon="5.37399">
        <ele>437.4</ele>
        <time>2000-01-01T05:41:47Z</time>
      </trkpt>
      <trkpt lat="50.02529" lon="5.37383">
        <ele>436.8</ele>
        <time>2000-01-01T05:41:57Z</time>
      </trkpt>
      <trkpt lat="50.02536" lon="5.37358">
        <ele>431</ele>
        <time>2000-01-01T05:42:07Z</time>
      </trkpt>
      <trkpt lat="50.02556" lon="5.37337">
        <ele>428</ele>
        <time>2000-01-01T05:42:17Z</time>
      </trkpt>
      <trkpt lat="50.02577" lon="5.37325">
        <ele>426</ele>
        <time>2000-01-01T05:42:27Z</time>
      </trkpt>
      <trkpt lat="50.026" lon="5.37318">
        <ele>426</ele>
        <time>2000-01-01T05:42:37Z</time>
      </trkpt>
      <trkpt lat="50.02623" lon="5.37316">
        <ele>425</ele>
        <time>2000-01-01T05:42:47Z</time>
      </trkpt>
      <trkpt lat="50.02651" lon="5.37315">
        <ele>424</ele>
        <time>2000-01-01T05:42:57Z</time>
      </trkpt>
      <trkpt lat="50.0267" lon="5.3734">
        <ele>421</ele>
        <time>2000-01-01T05:43:07Z</time>
      </trkpt>
      <trkpt lat="50.02696" lon="5.37373">
        <ele>418</ele>
        <time>2000-01-01T05:43:17Z</time>
      </trkpt>
      <trkpt lat="50.02715" lon="5.37403">
        <ele>418</ele>
        <time>2000-01-01T05:43:27Z</time>
      </trkpt>
      <trkpt lat="50.02745" lon="5.3745">
        <ele>417</ele>
        <time>2000-01-01T05:43:37Z</time>
      </trkpt>
      <trkpt lat="50.02752" lon="5.37451">
        <ele>419.9</ele>
        <time>2000-01-01T05:43:47Z</time>
      </trkpt>
      <trkpt lat="50.02756" lon="5.37444">
        <ele>419.8</ele>
        <time>2000-01-01T05:43:57Z</time>
      </trkpt>
      <trkpt lat="50.02761" lon="5.37442">
        <ele>417</ele>
        <time>2000-01-01T05:44:07Z</time>
      </trkpt>
      <trkpt lat="50.02766" lon="5.37445">
        <ele>419.4</ele>
        <time>2000-01-01T05:44:17Z</time>
      </trkpt>
      <trkpt lat="50.02769" lon="5.37454">
        <ele>419.6</ele>
        <time>2000-01-01T05:44:27Z</time>
      </trkpt>
      <trkpt lat="50.02799" lon="5.3744">
        <ele>415</ele>
        <time>2000-01-01T05:44:37Z</time>
      </trkpt>
      <trkpt lat="50.0281" lon="5.37422">
        <ele>420</ele>
        <time>2000-01-01T05:44:47Z</time>
      </trkpt>
      <trkpt lat="50.02819" lon="5.37402">
        <ele>415</ele>
        <time>2000-01-01T05:44:57Z</time>
      </trkpt>
      <trkpt lat="50.02832" lon="5.37349">
        <ele>415</ele>
        <time>2000-01-01T05:45:07Z</time>
      </trkpt>
      <trkpt lat="50.02836" lon="5.37313">
        <ele>415</ele>
        <time>2000-01-01T05:45:17Z</time>
      </trkpt>
      <trkpt lat="50.02842" lon="5.37271">
        <ele>415</ele>
        <time>2000-01-01T05:45:27Z</time>
      </trkpt>
      <trkpt lat="50.02843" lon="5.37235">
        <ele>414</ele>
        <time>2000-01-01T05:45:37Z</time>
      </trkpt>
      <trkpt lat="50.02845" lon="5.37193">
        <ele>414</ele>
        <time>2000-01-01T05:45:47Z</time>
      </trkpt>
      <trkpt lat="50.02845" lon="5.37154">
        <ele>415</ele>
        <time>2000-01-01T05:45:57Z</time>
      </trkpt>
      <trkpt lat="50.02846" lon="5.37097">
        <ele>417</ele>
        <time>2000-01-01T05:46:07Z</time>
      </trkpt>
      <trkpt lat="50.02847" lon="5.37057">
        <ele>419</ele>
        <time>2000-01-01T05:46:17Z</time>
      </trkpt>
      <trkpt lat="50.02849" lon="5.37001">
        <ele>421</ele>
        <time>2000-01-01T05:46:27Z</time>
      </trkpt>
      <trkpt lat="50.02856" lon="5.36959">
        <ele>423</ele>
        <time>2000-01-01T05:46:37Z</time>
      </trkpt>
      <trkpt lat="50.02862" lon="5.36922">
        <ele>426</ele>
        <time>2000-01-01T05:46:47Z</time>
      </trkpt>
      <trkpt lat="50.02869" lon="5.36878">
        <ele>430</ele>
        <time>2000-01-01T05:46:57Z</time>
      </trkpt>
      <trkpt lat="50.02874" lon="5.36855">
        <ele>437.5</ele>
        <time>2000-01-01T05:47:07Z</time>
      </trkpt>
      <trkpt lat="50.0288" lon="5.36837">
        <ele>434</ele>
        <time>2000-01-01T05:47:17Z</time>
      </trkpt>
      <trkpt lat="50.029" lon="5.36796">
        <ele>434</ele>
        <time>2000-01-01T05:47:27Z</time>
      </trkpt>
      <trkpt lat="50.02921" lon="5.36755">
        <ele>434</ele>
        <time>2000-01-01T05:47:37Z</time>
      </trkpt>
      <trkpt lat="50.02941" lon="5.36713">
        <ele>434</ele>
        <time>2000-01-01T05:47:47Z</time>
      </trkpt>
      <trkpt lat="50.02955" lon="5.36686">
        <ele>430</ele>
        <time>2000-01-01T05:47:57Z</time>
      </trkpt>
      <trkpt lat="50.02969" lon="5.36656">
        <ele>430</ele>
        <time>2000-01-01T05:48:07Z</time>
      </trkpt>
      <trkpt lat="50.02983" lon="5.36632">
        <ele>430</ele>
        <time>2000-01-01T05:48:17Z</time>
      </trkpt>
      <trkpt lat="50.02998" lon="5.36609">
        <ele>430</ele>
        <time>2000-01-01T05:48:27Z</time>
      </trkpt>
      <trkpt lat="50.03017" lon="5.36586">
        <ele>428</ele>
        <time>2000-01-01T05:48:37Z</time>
      </trkpt>
      <trkpt lat="50.03044" lon="5.36559">
        <ele>429</ele>
        <time>2000-01-01T05:48:47Z</time>
      </trkpt>
      <trkpt lat="50.03071" lon="5.36531">
        <ele>430</ele>
        <time>2000-01-01T05:48:57Z</time>
      </trkpt>
      <trkpt lat="50.03099" lon="5.36504">
        <ele>431</ele>
        <time>2000-01-01T05:49:07Z</time>
      </trkpt>
      <trkpt lat="50.03126" lon="5.36476">
        <ele>433</ele>
        <time>2000-01-01T05:49:17Z</time>
      </trkpt>
      <trkpt lat="50.03145" lon="5.36459">
        <ele>433</ele>
        <time>2000-01-01T05:49:27Z</time>
      </trkpt>
      <trkpt lat="50.03166" lon="5.36441">
        <ele>437</ele>
        <time>2000-01-01T05:49:37Z</time>
      </trkpt>
      <trkpt lat="50.03206" lon="5.36424">
        <ele>436</ele>
        <time>2000-01-01T05:49:47Z</time>
      </trkpt>
      <trkpt lat="50.03218" lon="5.36416">
        <ele>445</ele>
        <time>2000-01-01T05:49:57Z</time>
      </trkpt>
      <trkpt lat="50.03225" lon="5.3642">
        <ele>435</ele>
        <time>2000-01-01T05:50:07Z</time>
      </trkpt>
      <trkpt lat="50.03239" lon="5.36414">
        <ele>446.7</ele>
        <time>2000-01-01T05:50:17Z</time>
      </trkpt>
      <trkpt lat="50.0325" lon="5.36415">
        <ele>437</ele>
        <time>2000-01-01T05:50:27Z</time>
      </trkpt>
      <trkpt lat="50.03258" lon="5.36421">
        <ele>448.4</ele>
        <time>2000-01-01T05:50:37Z</time>
      </trkpt>
      <trkpt lat="50.03363" lon="5.36516">
        <ele>439</ele>
        <time>2000-01-01T05:50:47Z</time>
      </trkpt>
      <trkpt lat="50.0338" lon="5.36539">
        <ele>441</ele>
        <time>2000-01-01T05:50:57Z</time>
      </trkpt>
      <trkpt lat="50.03404" lon="5.36549">
        <ele>441</ele>
        <time>2000-01-01T05:51:07Z</time>
      </trkpt>
      <trkpt lat="50.03426" lon="5.36582">
        <ele>464</ele>
        <time>2000-01-01T05:51:17Z</time>
      </trkpt>
      <trkpt lat="50.03428" lon="5.36622">
        <ele>465</ele>
        <time>2000-01-01T05:51:27Z</time>
      </trkpt>
      <trkpt lat="50.03433" lon="5.36681">
        <ele>470</ele>
        <time>2000-01-01T05:51:37Z</time>
      </trkpt>
      <trkpt lat="50.03436" lon="5.36689">
        <ele>471.9</ele>
        <time>2000-01-01T05:51:47Z</time>
      </trkpt>
      <trkpt lat="50.03443" lon="5.36693">
        <ele>472.8</ele>
        <time>2000-01-01T05:51:57Z</time>
      </trkpt>
      <trkpt lat="50.0346" lon="5.36693">
        <ele>475</ele>
        <time>2000-01-01T05:52:07Z</time>
      </trkpt>
      <trkpt lat="50.03488" lon="5.36689">
        <ele>477</ele>
        <time>2000-01-01T05:52:17Z</time>
      </trkpt>
      <trkpt lat="50.03513" lon="5.36686">
        <ele>481</ele>
        <time>2000-01-01T05:52:27Z</time>
      </trkpt>
      <trkpt lat="50.03544" lon="5.36682">
        <ele>482</ele>
        <time>2000-01-01T05:52:37Z</time>
      </trkpt>
      <trkpt lat="50.03561" lon="5.36676">
        <ele>489</ele>
        <time>2000-01-01T05:52:47Z</time>
      </trkpt>
      <trkpt lat="50.03576" lon="5.36683">
        <ele>481.2</ele>
        <time>2000-01-01T05:52:57Z</time>
      </trkpt>
      <trkpt lat="50.0363" lon="5.36801">
        <ele>495</ele>
        <time>2000-01-01T05:53:07Z</time>
      </trkpt>
      <trkpt lat="50.03649" lon="5.36847">
        <ele>498</ele>
        <time>2000-01-01T05:53:17Z</time>
      </trkpt>
      <trkpt lat="50.03668" lon="5.36893">
        <ele>503</ele>
        <time>2000-01-01T05:53:27Z</time>
      </trkpt>
      <trkpt lat="50.03687" lon="5.36939">
        <ele>503</ele>
        <time>2000-01-01T05:53:37Z</time>
      </trkpt>
      <trkpt lat="50.03705" lon="5.36985">
        <ele>503</ele>
        <time>2000-01-01T05:53:47Z</time>
      </trkpt>
      <trkpt lat="50.03717" lon="5.37015">
        <ele>503</ele>
        <time>2000-01-01T05:53:57Z</time>
      </trkpt>
      <trkpt lat="50.0373" lon="5.37046">
        <ele>499</ele>
        <time>2000-01-01T05:54:07Z</time>
      </trkpt>
      <trkpt lat="50.03729" lon="5.371">
        <ele>494</ele>
        <time>2000-01-01T05:54:17Z</time>
      </trkpt>
      <trkpt lat="50.03729" lon="5.37154">
        <ele>494</ele>
        <time>2000-01-01T05:54:27Z</time>
      </trkpt>
      <trkpt lat="50.03729" lon="5.37209">
        <ele>494</ele>
        <time>2000-01-01T05:54:37Z</time>
      </trkpt>
      <trkpt lat="50.03728" lon="5.37263">
        <ele>495</ele>
        <time>2000-01-01T05:54:47Z</time>
      </trkpt>
      <trkpt lat="50.03728" lon="5.37327">
        <ele>496</ele>
        <time>2000-01-01T05:54:57Z</time>
      </trkpt>
      <trkpt lat="50.03748" lon="5.37337">
        <ele>496</ele>
        <time>2000-01-01T05:55:07Z</time>
      </trkpt>
      <trkpt lat="50.03777" lon="5.37356">
        <ele>496</ele>
        <time>2000-01-01T05:55:17Z</time>
      </trkpt>
      <trkpt lat="50.03798" lon="5.37375">
        <ele>496</ele>
        <time>2000-01-01T05:55:27Z</time>
      </trkpt>
      <trkpt lat="50.03824" lon="5.37399">
        <ele>497</ele>
        <time>2000-01-01T05:55:37Z</time>
      </trkpt>
      <trkpt lat="50.03857" lon="5.37417">
        <ele>501</ele>
        <time>2000-01-01T05:55:47Z</time>
      </trkpt>
      <trkpt lat="50.0389" lon="5.37435">
        <ele>508</ele>
        <time>2000-01-01T05:55:57Z</time>
      </trkpt>
      <trkpt lat="50.03923" lon="5.37453">
        <ele>508</ele>
        <time>2000-01-01T05:56:07Z</time>
      </trkpt>
      <trkpt lat="50.03956" lon="5.37472">
        <ele>496</ele>
        <time>2000-01-01T05:56:17Z</time>
      </trkpt>
      <trkpt lat="50.03977" lon="5.37483">
        <ele>497</ele>
        <time>2000-01-01T05:56:27Z</time>
      </trkpt>
      <trkpt lat="50.03999" lon="5.37495">
        <ele>499</ele>
        <time>2000-01-01T05:56:37Z</time>
      </trkpt>
      <trkpt lat="50.0402" lon="5.37505">
        <ele>499</ele>
        <time>2000-01-01T05:56:47Z</time>
      </trkpt>
      <trkpt lat="50.0404" lon="5.37515">
        <ele>504</ele>
        <time>2000-01-01T05:56:57Z</time>
      </trkpt>
      <trkpt lat="50.04063" lon="5.37519">
        <ele>503</ele>
        <time>2000-01-01T05:57:07Z</time>
      </trkpt>
      <trkpt lat="50.04087" lon="5.37523">
        <ele>503</ele>
        <time>2000-01-01T05:57:17Z</time>
      </trkpt>
      <trkpt lat="50.04113" lon="5.37506">
        <ele>502</ele>
        <time>2000-01-01T05:57:27Z</time>
      </trkpt>
      <trkpt lat="50.04142" lon="5.37504">
        <ele>502</ele>
        <time>2000-01-01T05:57:37Z</time>
      </trkpt>
      <trkpt lat="50.04167" lon="5.37491">
        <ele>503</ele>
        <time>2000-01-01T05:57:47Z</time>
      </trkpt>
      <trkpt lat="50.0418" lon="5.37472">
        <ele>503</ele>
        <time>2000-01-01T05:57:57Z</time>
      </trkpt>
      <trkpt lat="50.0419" lon="5.37436">
        <ele>503</ele>
        <time>2000-01-01T05:58:07Z</time>
      </trkpt>
      <trkpt lat="50.04204" lon="5.37386">
        <ele>506</ele>
        <time>2000-01-01T05:58:17Z</time>
      </trkpt>
      <trkpt lat="50.04219" lon="5.37359">
        <ele>506</ele>
        <time>2000-01-01T05:58:27Z</time>
      </trkpt>
      <trkpt lat="50.04234" lon="5.37331">
        <ele>506</ele>
        <time>2000-01-01T05:58:37Z</time>
      </trkpt>
      <trkpt lat="50.04259" lon="5.37289">
        <ele>498</ele>
        <time>2000-01-01T05:58:47Z</time>
      </trkpt>
      <trkpt lat="50.04269" lon="5.37266">
        <ele>498</ele>
        <time>2000-01-01T05:58:57Z</time>
      </trkpt>
      <trkpt lat="50.04277" lon="5.37242">
        <ele>496.3</ele>
        <time>2000-01-01T05:59:07Z</time>
      </trkpt>
      <trkpt lat="50.04277" lon="5.37201">
        <ele>499</ele>
        <time>2000-01-01T05:59:17Z</time>
      </trkpt>
      <trkpt lat="50.04271" lon="5.37175">
        <ele>499</ele>
        <time>2000-01-01T05:59:27Z</time>
      </trkpt>
      <trkpt lat="50.04264" lon="5.37153">
        <ele>498.7</ele>
        <time>2000-01-01T05:59:37Z</time>
      </trkpt>
      <trkpt lat="50.04251" lon="5.37125">
        <ele>500</ele>
        <time>2000-01-01T05:59:47Z</time>
      </trkpt>
      <trkpt lat="50.04244" lon="5.37121">
        <ele>498.2</ele>
        <time>2000-01-01T05:59:57Z</time>
      </trkpt>
      <trkpt lat="50.04224" lon="5.37083">
        <ele>501</ele>
        <time>2000-01-01T06:00:07Z</time>
      </trkpt>
      <trkpt lat="50.04201" lon="5.37035">
        <ele>501</ele>
        <time>2000-01-01T06:00:17Z</time>
      </trkpt>
      <trkpt lat="50.04179" lon="5.36986">
        <ele>502</ele>
        <time>2000-01-01T06:00:27Z</time>
      </trkpt>
      <trkpt lat="50.04157" lon="5.36938">
        <ele>502</ele>
        <time>2000-01-01T06:00:37Z</time>
      </trkpt>
      <trkpt lat="50.04135" lon="5.3689">
        <ele>500</ele>
        <time>2000-01-01T06:00:47Z</time>
      </trkpt>
      <trkpt lat="50.04112" lon="5.36842">
        <ele>498</ele>
        <time>2000-01-01T06:00:57Z</time>
      </trkpt>
      <trkpt lat="50.0409" lon="5.36794">
        <ele>497</ele>
        <time>2000-01-01T06:01:07Z</time>
      </trkpt>
      <trkpt lat="50.04068" lon="5.36746">
        <ele>497</ele>
        <time>2000-01-01T06:01:17Z</time>
      </trkpt>
      <trkpt lat="50.04054" lon="5.36715">
        <ele>497</ele>
        <time>2000-01-01T06:01:27Z</time>
      </trkpt>
      <trkpt lat="50.04037" lon="5.36679">
        <ele>502</ele>
        <time>2000-01-01T06:01:37Z</time>
      </trkpt>
      <trkpt lat="50.04026" lon="5.36635">
        <ele>503</ele>
        <time>2000-01-01T06:01:47Z</time>
      </trkpt>
      <trkpt lat="50.04015" lon="5.36592">
        <ele>503</ele>
        <time>2000-01-01T06:01:57Z</time>
      </trkpt>
      <trkpt lat="50.04001" lon="5.36539">
        <ele>504</ele>
        <time>2000-01-01T06:02:07Z</time>
      </trkpt>
      <trkpt lat="50.03994" lon="5.36502">
        <ele>504</ele>
        <time>2000-01-01T06:02:17Z</time>
      </trkpt>
      <trkpt lat="50.03984" lon="5.36454">
        <ele>499</ele>
        <time>2000-01-01T06:02:27Z</time>
      </trkpt>
      <trkpt lat="50.03972" lon="5.36423">
        <ele>498</ele>
        <time>2000-01-01T06:02:37Z</time>
      </trkpt>
      <trkpt lat="50.03959" lon="5.36389">
        <ele>498</ele>
        <time>2000-01-01T06:02:47Z</time>
      </trkpt>
      <trkpt lat="50.03942" lon="5.36355">
        <ele>498</ele>
        <time>2000-01-01T06:02:57Z</time>
      </trkpt>
      <trkpt lat="50.03929" lon="5.36326">
        <ele>498</ele>
        <time>2000-01-01T06:03:07Z</time>
      </trkpt>
      <trkpt lat="50.03913" lon="5.36293">
        <ele>492</ele>
        <time>2000-01-01T06:03:17Z</time>
      </trkpt>
      <trkpt lat="50.03904" lon="5.36267">
        <ele>491</ele>
        <time>2000-01-01T06:03:27Z</time>
      </trkpt>
      <trkpt lat="50.03925" lon="5.36249">
        <ele>489</ele>
        <time>2000-01-01T06:03:37Z</time>
      </trkpt>
      <trkpt lat="50.0395" lon="5.36226">
        <ele>491</ele>
        <time>2000-01-01T06:03:47Z</time>
      </trkpt>
      <trkpt lat="50.03973" lon="5.36209">
        <ele>494</ele>
        <time>2000-01-01T06:03:57Z</time>
      </trkpt>
      <trkpt lat="50.04007" lon="5.36185">
        <ele>496</ele>
        <time>2000-01-01T06:04:07Z</time>
      </trkpt>
      <trkpt lat="50.0403" lon="5.36164">
        <ele>494</ele>
        <time>2000-01-01T06:04:17Z</time>
      </trkpt>
      <trkpt lat="50.04049" lon="5.36147">
        <ele>493</ele>
        <time>2000-01-01T06:04:27Z</time>
      </trkpt>
      <trkpt lat="50.04068" lon="5.3613">
        <ele>488</ele>
        <time>2000-01-01T06:04:37Z</time>
      </trkpt>
      <trkpt lat="50.04101" lon="5.3609">
        <ele>488</ele>
        <time>2000-01-01T06:04:47Z</time>
      </trkpt>
      <trkpt lat="50.04125" lon="5.36066">
        <ele>488</ele>
        <time>2000-01-01T06:04:57Z</time>
      </trkpt>
      <trkpt lat="50.04144" lon="5.36046">
        <ele>486</ele>
        <time>2000-01-01T06:05:07Z</time>
      </trkpt>
      <trkpt lat="50.04168" lon="5.36021">
        <ele>480</ele>
        <time>2000-01-01T06:05:17Z</time>
      </trkpt>
      <trkpt lat="50.04194" lon="5.35996">
        <ele>472</ele>
        <time>2000-01-01T06:05:27Z</time>
      </trkpt>
      <trkpt lat="50.04219" lon="5.35971">
        <ele>467</ele>
        <time>2000-01-01T06:05:37Z</time>
      </trkpt>
      <trkpt lat="50.04255" lon="5.35935">
        <ele>467</ele>
        <time>2000-01-01T06:05:47Z</time>
      </trkpt>
      <trkpt lat="50.04276" lon="5.35915">
        <ele>467</ele>
        <time>2000-01-01T06:05:57Z</time>
      </trkpt>
      <trkpt lat="50.04305" lon="5.35889">
        <ele>467</ele>
        <time>2000-01-01T06:06:07Z</time>
      </trkpt>
      <trkpt lat="50.04328" lon="5.3587">
        <ele>469</ele>
        <time>2000-01-01T06:06:17Z</time>
      </trkpt>
      <trkpt lat="50.04365" lon="5.35841">
        <ele>470</ele>
        <time>2000-01-01T06:06:27Z</time>
      </trkpt>
      <trkpt lat="50.04394" lon="5.35815">
        <ele>471</ele>
        <time>2000-01-01T06:06:37Z</time>
      </trkpt>
      <trkpt lat="50.04422" lon="5.35788">
        <ele>476</ele>
        <time>2000-01-01T06:06:47Z</time>
      </trkpt>
      <trkpt lat="50.04451" lon="5.35762">
        <ele>478</ele>
        <time>2000-01-01T06:06:57Z</time>
      </trkpt>
      <trkpt lat="50.04488" lon="5.35728">
        <ele>479</ele>
        <time>2000-01-01T06:07:07Z</time>
      </trkpt>
      <trkpt lat="50.04519" lon="5.35701">
        <ele>483</ele>
        <time>2000-01-01T06:07:17Z</time>
      </trkpt>
      <trkpt lat="50.04551" lon="5.35674">
        <ele>486</ele>
        <time>2000-01-01T06:07:27Z</time>
      </trkpt>
      <trkpt lat="50.04583" lon="5.35648">
        <ele>487</ele>
        <time>2000-01-01T06:07:37Z</time>
      </trkpt>
      <trkpt lat="50.04615" lon="5.35621">
        <ele>487</ele>
        <time>2000-01-01T06:07:47Z</time>
      </trkpt>
      <trkpt lat="50.04638" lon="5.35601">
        <ele>487</ele>
        <time>2000-01-01T06:07:57Z</time>
      </trkpt>
      <trkpt lat="50.04657" lon="5.35585">
        <ele>487</ele>
        <time>2000-01-01T06:08:07Z</time>
      </trkpt>
      <trkpt lat="50.04677" lon="5.35568">
        <ele>487</ele>
        <time>2000-01-01T06:08:17Z</time>
      </trkpt>
      <trkpt lat="50.04698" lon="5.35556">
        <ele>495</ele>
        <time>2000-01-01T06:08:27Z</time>
      </trkpt>
      <trkpt lat="50.04717" lon="5.3555">
        <ele>502</ele>
        <time>2000-01-01T06:08:37Z</time>
      </trkpt>
      <trkpt lat="50.04748" lon="5.35549">
        <ele>505</ele>
        <time>2000-01-01T06:08:47Z</time>
      </trkpt>
      <trkpt lat="50.0478" lon="5.35549">
        <ele>518</ele>
        <time>2000-01-01T06:08:57Z</time>
      </trkpt>
      <trkpt lat="50.04803" lon="5.35548">
        <ele>519</ele>
        <time>2000-01-01T06:09:07Z</time>
      </trkpt>
      <trkpt lat="50.0483" lon="5.35548">
        <ele>518</ele>
        <time>2000-01-01T06:09:17Z</time>
      </trkpt>
      <trkpt lat="50.04868" lon="5.35546">
        <ele>518</ele>
        <time>2000-01-01T06:09:27Z</time>
      </trkpt>
      <trkpt lat="50.04906" lon="5.35544">
        <ele>518</ele>
        <time>2000-01-01T06:09:37Z</time>
      </trkpt>
      <trkpt lat="50.04943" lon="5.35542">
        <ele>523</ele>
        <time>2000-01-01T06:09:47Z</time>
      </trkpt>
      <trkpt lat="50.04981" lon="5.3554">
        <ele>525</ele>
        <time>2000-01-01T06:09:57Z</time>
      </trkpt>
      <trkpt lat="50.05019" lon="5.35538">
        <ele>523</ele>
        <time>2000-01-01T06:10:07Z</time>
      </trkpt>
      <trkpt lat="50.05057" lon="5.35537">
        <ele>525</ele>
        <time>2000-01-01T06:10:17Z</time>
      </trkpt>
      <trkpt lat="50.05084" lon="5.35535">
        <ele>525</ele>
        <time>2000-01-01T06:10:27Z</time>
      </trkpt>
      <trkpt lat="50.05106" lon="5.35534">
        <ele>526</ele>
        <time>2000-01-01T06:10:37Z</time>
      </trkpt>
      <trkpt lat="50.05129" lon="5.35533">
        <ele>526</ele>
        <time>2000-01-01T06:10:47Z</time>
      </trkpt>
      <trkpt lat="50.05159" lon="5.35532">
        <ele>531</ele>
        <time>2000-01-01T06:10:57Z</time>
      </trkpt>
      <trkpt lat="50.05189" lon="5.35531">
        <ele>528</ele>
        <time>2000-01-01T06:11:07Z</time>
      </trkpt>
      <trkpt lat="50.05229" lon="5.3553">
        <ele>529</ele>
        <time>2000-01-01T06:11:17Z</time>
      </trkpt>
      <trkpt lat="50.05271" lon="5.35527">
        <ele>531</ele>
        <time>2000-01-01T06:11:27Z</time>
      </trkpt>
      <trkpt lat="50.05307" lon="5.35514">
        <ele>532</ele>
        <time>2000-01-01T06:11:37Z</time>
      </trkpt>
      <trkpt lat="50.0533" lon="5.355">
        <ele>533</ele>
        <time>2000-01-01T06:11:47Z</time>
      </trkpt>
      <trkpt lat="50.05362" lon="5.3548">
        <ele>533</ele>
        <time>2000-01-01T06:11:57Z</time>
      </trkpt>
      <trkpt lat="50.05389" lon="5.3546">
        <ele>534</ele>
        <time>2000-01-01T06:12:07Z</time>
      </trkpt>
      <trkpt lat="50.05416" lon="5.3544">
        <ele>539</ele>
        <time>2000-01-01T06:12:17Z</time>
      </trkpt>
      <trkpt lat="50.05449" lon="5.35415">
        <ele>539</ele>
        <time>2000-01-01T06:12:27Z</time>
      </trkpt>
      <trkpt lat="50.05482" lon="5.35394">
        <ele>535</ele>
        <time>2000-01-01T06:12:37Z</time>
      </trkpt>
      <trkpt lat="50.05502" lon="5.35385">
        <ele>532</ele>
        <time>2000-01-01T06:12:47Z</time>
      </trkpt>
      <trkpt lat="50.05524" lon="5.35375">
        <ele>521</ele>
        <time>2000-01-01T06:12:57Z</time>
      </trkpt>
      <trkpt lat="50.05546" lon="5.35372">
        <ele>521</ele>
        <time>2000-01-01T06:13:07Z</time>
      </trkpt>
      <trkpt lat="50.0557" lon="5.35369">
        <ele>520</ele>
        <time>2000-01-01T06:13:17Z</time>
      </trkpt>
      <trkpt lat="50.05602" lon="5.35373">
        <ele>521</ele>
        <time>2000-01-01T06:13:27Z</time>
      </trkpt>
      <trkpt lat="50.05635" lon="5.35378">
        <ele>517</ele>
        <time>2000-01-01T06:13:37Z</time>
      </trkpt>
      <trkpt lat="50.05668" lon="5.35383">
        <ele>518</ele>
        <time>2000-01-01T06:13:47Z</time>
      </trkpt>
      <trkpt lat="50.05704" lon="5.35389">
        <ele>518</ele>
        <time>2000-01-01T06:13:57Z</time>
      </trkpt>
      <trkpt lat="50.05732" lon="5.35396">
        <ele>516</ele>
        <time>2000-01-01T06:14:07Z</time>
      </trkpt>
      <trkpt lat="50.05755" lon="5.35402">
        <ele>515</ele>
        <time>2000-01-01T06:14:17Z</time>
      </trkpt>
      <trkpt lat="50.05785" lon="5.35409">
        <ele>513</ele>
        <time>2000-01-01T06:14:27Z</time>
      </trkpt>
      <trkpt lat="50.05806" lon="5.3542">
        <ele>508</ele>
        <time>2000-01-01T06:14:37Z</time>
      </trkpt>
      <trkpt lat="50.05831" lon="5.35432">
        <ele>507</ele>
        <time>2000-01-01T06:14:47Z</time>
      </trkpt>
      <trkpt lat="50.0587" lon="5.35437">
        <ele>506</ele>
        <time>2000-01-01T06:14:57Z</time>
      </trkpt>
      <trkpt lat="50.05893" lon="5.35438">
        <ele>501</ele>
        <time>2000-01-01T06:15:07Z</time>
      </trkpt>
      <trkpt lat="50.05918" lon="5.35438">
        <ele>493</ele>
        <time>2000-01-01T06:15:17Z</time>
      </trkpt>
      <trkpt lat="50.05946" lon="5.35438">
        <ele>491</ele>
        <time>2000-01-01T06:15:27Z</time>
      </trkpt>
      <trkpt lat="50.05971" lon="5.35437">
        <ele>489</ele>
        <time>2000-01-01T06:15:37Z</time>
      </trkpt>
      <trkpt lat="50.06003" lon="5.35436">
        <ele>489</ele>
        <time>2000-01-01T06:15:47Z</time>
      </trkpt>
      <trkpt lat="50.06024" lon="5.35442">
        <ele>489</ele>
        <time>2000-01-01T06:15:57Z</time>
      </trkpt>
      <trkpt lat="50.06046" lon="5.35461">
        <ele>489</ele>
        <time>2000-01-01T06:16:07Z</time>
      </trkpt>
      <trkpt lat="50.0607" lon="5.35488">
        <ele>490</ele>
        <time>2000-01-01T06:16:17Z</time>
      </trkpt>
      <trkpt lat="50.06093" lon="5.35516">
        <ele>487</ele>
        <time>2000-01-01T06:16:27Z</time>
      </trkpt>
      <trkpt lat="50.06118" lon="5.35546">
        <ele>487</ele>
        <time>2000-01-01T06:16:37Z</time>
      </trkpt>
      <trkpt lat="50.06098" lon="5.35583">
        <ele>481</ele>
        <time>2000-01-01T06:16:47Z</time>
      </trkpt>
      <trkpt lat="50.06078" lon="5.3562">
        <ele>480</ele>
        <time>2000-01-01T06:16:57Z</time>
      </trkpt>
      <trkpt lat="50.06063" lon="5.35647">
        <ele>479</ele>
        <time>2000-01-01T06:17:07Z</time>
      </trkpt>
      <trkpt lat="50.06046" lon="5.35678">
        <ele>474</ele>
        <time>2000-01-01T06:17:17Z</time>
      </trkpt>
      <trkpt lat="50.06041" lon="5.35692">
        <ele>460.3</ele>
        <time>2000-01-01T06:17:27Z</time>
      </trkpt>
      <trkpt lat="50.06046" lon="5.35709">
        <ele>472</ele>
        <time>2000-01-01T06:17:37Z</time>
      </trkpt>
      <trkpt lat="50.06058" lon="5.35708">
        <ele>458.3</ele>
        <time>2000-01-01T06:17:47Z</time>
      </trkpt>
      <trkpt lat="50.06083" lon="5.35689">
        <ele>471</ele>
        <time>2000-01-01T06:17:57Z</time>
      </trkpt>
      <trkpt lat="50.06107" lon="5.3568">
        <ele>467</ele>
        <time>2000-01-01T06:18:07Z</time>
      </trkpt>
      <trkpt lat="50.0614" lon="5.35668">
        <ele>466</ele>
        <time>2000-01-01T06:18:17Z</time>
      </trkpt>
      <trkpt lat="50.06159" lon="5.35665">
        <ele>466</ele>
        <time>2000-01-01T06:18:27Z</time>
      </trkpt>
      <trkpt lat="50.0618" lon="5.35671">
        <ele>466</ele>
        <time>2000-01-01T06:18:37Z</time>
      </trkpt>
      <trkpt lat="50.06199" lon="5.35685">
        <ele>466</ele>
        <time>2000-01-01T06:18:47Z</time>
      </trkpt>
      <trkpt lat="50.06197" lon="5.35717">
        <ele>462</ele>
        <time>2000-01-01T06:18:57Z</time>
      </trkpt>
      <trkpt lat="50.06188" lon="5.35741">
        <ele>459</ele>
        <time>2000-01-01T06:19:07Z</time>
      </trkpt>
      <trkpt lat="50.06162" lon="5.35784">
        <ele>456</ele>
        <time>2000-01-01T06:19:17Z</time>
      </trkpt>
      <trkpt lat="50.06152" lon="5.35827">
        <ele>453</ele>
        <time>2000-01-01T06:19:27Z</time>
      </trkpt>
      <trkpt lat="50.06157" lon="5.35848">
        <ele>438.1</ele>
        <time>2000-01-01T06:19:37Z</time>
      </trkpt>
      <trkpt lat="50.06174" lon="5.35862">
        <ele>453</ele>
        <time>2000-01-01T06:19:47Z</time>
      </trkpt>
      <trkpt lat="50.06199" lon="5.35867">
        <ele>451</ele>
        <time>2000-01-01T06:19:57Z</time>
      </trkpt>
      <trkpt lat="50.06221" lon="5.35863">
        <ele>450</ele>
        <time>2000-01-01T06:20:07Z</time>
      </trkpt>
      <trkpt lat="50.06245" lon="5.35858">
        <ele>451</ele>
        <time>2000-01-01T06:20:17Z</time>
      </trkpt>
      <trkpt lat="50.06267" lon="5.35849">
        <ele>449</ele>
        <time>2000-01-01T06:20:27Z</time>
      </trkpt>
      <trkpt lat="50.06288" lon="5.35841">
        <ele>449</ele>
        <time>2000-01-01T06:20:37Z</time>
      </trkpt>
      <trkpt lat="50.06316" lon="5.35824">
        <ele>449</ele>
        <time>2000-01-01T06:20:47Z</time>
      </trkpt>
      <trkpt lat="50.06343" lon="5.35808">
        <ele>447</ele>
        <time>2000-01-01T06:20:57Z</time>
      </trkpt>
      <trkpt lat="50.06375" lon="5.35789">
        <ele>437</ele>
        <time>2000-01-01T06:21:07Z</time>
      </trkpt>
      <trkpt lat="50.06389" lon="5.35794">
        <ele>421.2</ele>
        <time>2000-01-01T06:21:17Z</time>
      </trkpt>
      <trkpt lat="50.06391" lon="5.35807">
        <ele>434</ele>
        <time>2000-01-01T06:21:27Z</time>
      </trkpt>
      <trkpt lat="50.0639" lon="5.35818">
        <ele>418.5</ele>
        <time>2000-01-01T06:21:37Z</time>
      </trkpt>
      <trkpt lat="50.06371" lon="5.35841">
        <ele>432</ele>
        <time>2000-01-01T06:21:47Z</time>
      </trkpt>
      <trkpt lat="50.06363" lon="5.35859">
        <ele>417</ele>
        <time>2000-01-01T06:21:57Z</time>
      </trkpt>
      <trkpt lat="50.06364" lon="5.35881">
        <ele>431</ele>
        <time>2000-01-01T06:22:07Z</time>
      </trkpt>
      <trkpt lat="50.06374" lon="5.35894">
        <ele>414.6</ele>
        <time>2000-01-01T06:22:17Z</time>
      </trkpt>
      <trkpt lat="50.0647" lon="5.35892">
        <ele>416</ele>
        <time>2000-01-01T06:22:27Z</time>
      </trkpt>
      <trkpt lat="50.06512" lon="5.35888">
        <ele>414</ele>
        <time>2000-01-01T06:22:37Z</time>
      </trkpt>
      <trkpt lat="50.06553" lon="5.35894">
        <ele>412</ele>
        <time>2000-01-01T06:22:47Z</time>
      </trkpt>
      <trkpt lat="50.0658" lon="5.35891">
        <ele>409</ele>
        <time>2000-01-01T06:22:57Z</time>
      </trkpt>
      <trkpt lat="50.06602" lon="5.35889">
        <ele>405</ele>
        <time>2000-01-01T06:23:07Z</time>
      </trkpt>
      <trkpt lat="50.06625" lon="5.35887">
        <ele>405</ele>
        <time>2000-01-01T06:23:17Z</time>
      </trkpt>
      <trkpt lat="50.06658" lon="5.35875">
        <ele>400</ele>
        <time>2000-01-01T06:23:27Z</time>
      </trkpt>
      <trkpt lat="50.06691" lon="5.35862">
        <ele>395</ele>
        <time>2000-01-01T06:23:37Z</time>
      </trkpt>
      <trkpt lat="50.06723" lon="5.3585">
        <ele>392</ele>
        <time>2000-01-01T06:23:47Z</time>
      </trkpt>
      <trkpt lat="50.06746" lon="5.35842">
        <ele>391</ele>
        <time>2000-01-01T06:23:57Z</time>
      </trkpt>
      <trkpt lat="50.06774" lon="5.35832">
        <ele>391</ele>
        <time>2000-01-01T06:24:07Z</time>
      </trkpt>
      <trkpt lat="50.06799" lon="5.35823">
        <ele>391</ele>
        <time>2000-01-01T06:24:17Z</time>
      </trkpt>
      <trkpt lat="50.06831" lon="5.35811">
        <ele>389</ele>
        <time>2000-01-01T06:24:27Z</time>
      </trkpt>
      <trkpt lat="50.0685" lon="5.35815">
        <ele>389</ele>
        <time>2000-01-01T06:24:37Z</time>
      </trkpt>
      <trkpt lat="50.06868" lon="5.35824">
        <ele>382</ele>
        <time>2000-01-01T06:24:47Z</time>
      </trkpt>
      <trkpt lat="50.06894" lon="5.35826">
        <ele>382</ele>
        <time>2000-01-01T06:24:57Z</time>
      </trkpt>
      <trkpt lat="50.06936" lon="5.35831">
        <ele>381</ele>
        <time>2000-01-01T06:25:07Z</time>
      </trkpt>
      <trkpt lat="50.06969" lon="5.35841">
        <ele>380</ele>
        <time>2000-01-01T06:25:17Z</time>
      </trkpt>
      <trkpt lat="50.06988" lon="5.35837">
        <ele>380</ele>
        <time>2000-01-01T06:25:27Z</time>
      </trkpt>
      <trkpt lat="50.07026" lon="5.35837">
        <ele>374</ele>
        <time>2000-01-01T06:25:37Z</time>
      </trkpt>
      <trkpt lat="50.07061" lon="5.3584">
        <ele>369</ele>
        <time>2000-01-01T06:25:47Z</time>
      </trkpt>
      <trkpt lat="50.07097" lon="5.35842">
        <ele>366</ele>
        <time>2000-01-01T06:25:57Z</time>
      </trkpt>
      <trkpt lat="50.07132" lon="5.35845">
        <ele>360</ele>
        <time>2000-01-01T06:26:07Z</time>
      </trkpt>
      <trkpt lat="50.07168" lon="5.35848">
        <ele>361</ele>
        <time>2000-01-01T06:26:17Z</time>
      </trkpt>
      <trkpt lat="50.07192" lon="5.3585">
        <ele>360</ele>
        <time>2000-01-01T06:26:27Z</time>
      </trkpt>
      <trkpt lat="50.07224" lon="5.35852">
        <ele>360</ele>
        <time>2000-01-01T06:26:37Z</time>
      </trkpt>
      <trkpt lat="50.07253" lon="5.35852">
        <ele>359</ele>
        <time>2000-01-01T06:26:47Z</time>
      </trkpt>
      <trkpt lat="50.07276" lon="5.35852">
        <ele>358</ele>
        <time>2000-01-01T06:26:57Z</time>
      </trkpt>
      <trkpt lat="50.07304" lon="5.35852">
        <ele>357</ele>
        <time>2000-01-01T06:27:07Z</time>
      </trkpt>
      <trkpt lat="50.0733" lon="5.35854">
        <ele>356</ele>
        <time>2000-01-01T06:27:17Z</time>
      </trkpt>
      <trkpt lat="50.07368" lon="5.35856">
        <ele>355</ele>
        <time>2000-01-01T06:27:27Z</time>
      </trkpt>
      <trkpt lat="50.07393" lon="5.35867">
        <ele>352</ele>
        <time>2000-01-01T06:27:37Z</time>
      </trkpt>
      <trkpt lat="50.07432" lon="5.35884">
        <ele>350</ele>
        <time>2000-01-01T06:27:47Z</time>
      </trkpt>
      <trkpt lat="50.07453" lon="5.35905">
        <ele>349</ele>
        <time>2000-01-01T06:27:57Z</time>
      </trkpt>
      <trkpt lat="50.07479" lon="5.35931">
        <ele>348</ele>
        <time>2000-01-01T06:28:07Z</time>
      </trkpt>
      <trkpt lat="50.07506" lon="5.35934">
        <ele>347</ele>
        <time>2000-01-01T06:28:17Z</time>
      </trkpt>
      <trkpt lat="50.07514" lon="5.35975">
        <ele>344</ele>
        <time>2000-01-01T06:28:27Z</time>
      </trkpt>
      <trkpt lat="50.07512" lon="5.35992">
        <ele>338</ele>
        <time>2000-01-01T06:28:37Z</time>
      </trkpt>
      <trkpt lat="50.07502" lon="5.36001">
        <ele>344</ele>
        <time>2000-01-01T06:28:47Z</time>
      </trkpt>
      <trkpt lat="50.07481" lon="5.35994">
        <ele>352</ele>
        <time>2000-01-01T06:28:57Z</time>
      </trkpt>
      <trkpt lat="50.07462" lon="5.35995">
        <ele>352</ele>
        <time>2000-01-01T06:29:07Z</time>
      </trkpt>
      <trkpt lat="50.0745" lon="5.36006">
        <ele>352.8</ele>
        <time>2000-01-01T06:29:17Z</time>
      </trkpt>
      <trkpt lat="50.07439" lon="5.36029">
        <ele>355</ele>
        <time>2000-01-01T06:29:27Z</time>
      </trkpt>
      <trkpt lat="50.0745" lon="5.36006">
        <ele>353</ele>
        <time>2000-01-01T06:29:37Z</time>
      </trkpt>
      <trkpt lat="50.07462" lon="5.35995">
        <ele>349.8</ele>
        <time>2000-01-01T06:29:47Z</time>
      </trkpt>
      <trkpt lat="50.07481" lon="5.35994">
        <ele>352</ele>
        <time>2000-01-01T06:29:57Z</time>
      </trkpt>
      <trkpt lat="50.07502" lon="5.36001">
        <ele>344</ele>
        <time>2000-01-01T06:30:07Z</time>
      </trkpt>
      <trkpt lat="50.07512" lon="5.35992">
        <ele>338</ele>
        <time>2000-01-01T06:30:17Z</time>
      </trkpt>
      <trkpt lat="50.07514" lon="5.35975">
        <ele>344</ele>
        <time>2000-01-01T06:30:27Z</time>
      </trkpt>
      <trkpt lat="50.07506" lon="5.35934">
        <ele>344</ele>
        <time>2000-01-01T06:30:37Z</time>
      </trkpt>
      <trkpt lat="50.07518" lon="5.35936">
        <ele>333.7</ele>
        <time>2000-01-01T06:30:47Z</time>
      </trkpt>
      <trkpt lat="50.07544" lon="5.35902">
        <ele>343</ele>
        <time>2000-01-01T06:30:57Z</time>
      </trkpt>
      <trkpt lat="50.0758" lon="5.35912">
        <ele>342</ele>
        <time>2000-01-01T06:31:07Z</time>
      </trkpt>
      <trkpt lat="50.07599" lon="5.35922">
        <ele>342</ele>
        <time>2000-01-01T06:31:17Z</time>
      </trkpt>
      <trkpt lat="50.07586" lon="5.35941">
        <ele>342</ele>
        <time>2000-01-01T06:31:27Z</time>
      </trkpt>
      <trkpt lat="50.07574" lon="5.35972">
        <ele>342</ele>
        <time>2000-01-01T06:31:37Z</time>
      </trkpt>
      <trkpt lat="50.07558" lon="5.36018">
        <ele>343</ele>
        <time>2000-01-01T06:31:47Z</time>
      </trkpt>
      <trkpt lat="50.07545" lon="5.36082">
        <ele>343</ele>
        <time>2000-01-01T06:31:57Z</time>
      </trkpt>
      <trkpt lat="50.07538" lon="5.36107">
        <ele>343</ele>
        <time>2000-01-01T06:32:07Z</time>
      </trkpt>
      <trkpt lat="50.07523" lon="5.36148">
        <ele>343</ele>
        <time>2000-01-01T06:32:17Z</time>
      </trkpt>
      <trkpt lat="50.07507" lon="5.36187">
        <ele>336</ele>
        <time>2000-01-01T06:32:27Z</time>
      </trkpt>
      <trkpt lat="50.0749" lon="5.36226">
        <ele>336</ele>
        <time>2000-01-01T06:32:37Z</time>
      </trkpt>
      <trkpt lat="50.07468" lon="5.36277">
        <ele>342</ele>
        <time>2000-01-01T06:32:47Z</time>
      </trkpt>
      <trkpt lat="50.0745" lon="5.36306">
        <ele>345</ele>
        <time>2000-01-01T06:32:57Z</time>
      </trkpt>
      <trkpt lat="50.07424" lon="5.3635">
        <ele>347</ele>
        <time>2000-01-01T06:33:07Z</time>
      </trkpt>
      <trkpt lat="50.0741" lon="5.36391">
        <ele>301</ele>
        <time>2000-01-01T06:33:17Z</time>
      </trkpt>
      <trkpt lat="50.07409" lon="5.36439">
        <ele>327</ele>
        <time>2000-01-01T06:33:27Z</time>
      </trkpt>
      <trkpt lat="50.07408" lon="5.36488">
        <ele>354</ele>
        <time>2000-01-01T06:33:37Z</time>
      </trkpt>
      <trkpt lat="50.07407" lon="5.36524">
        <ele>354</ele>
        <time>2000-01-01T06:33:47Z</time>
      </trkpt>
      <trkpt lat="50.07406" lon="5.36566">
        <ele>354</ele>
        <time>2000-01-01T06:33:57Z</time>
      </trkpt>
      <trkpt lat="50.07414" lon="5.36611">
        <ele>354</ele>
        <time>2000-01-01T06:34:07Z</time>
      </trkpt>
      <trkpt lat="50.07421" lon="5.36656">
        <ele>353</ele>
        <time>2000-01-01T06:34:17Z</time>
      </trkpt>
      <trkpt lat="50.0743" lon="5.3671">
        <ele>355</ele>
        <time>2000-01-01T06:34:27Z</time>
      </trkpt>
      <trkpt lat="50.0743" lon="5.36775">
        <ele>357</ele>
        <time>2000-01-01T06:34:37Z</time>
      </trkpt>
      <trkpt lat="50.07435" lon="5.36813">
        <ele>359</ele>
        <time>2000-01-01T06:34:47Z</time>
      </trkpt>
      <trkpt lat="50.07442" lon="5.36867">
        <ele>361</ele>
        <time>2000-01-01T06:34:57Z</time>
      </trkpt>
      <trkpt lat="50.07456" lon="5.36927">
        <ele>361</ele>
        <time>2000-01-01T06:35:07Z</time>
      </trkpt>
      <trkpt lat="50.07457" lon="5.3697">
        <ele>361</ele>
        <time>2000-01-01T06:35:17Z</time>
      </trkpt>
      <trkpt lat="50.07458" lon="5.37007">
        <ele>361</ele>
        <time>2000-01-01T06:35:27Z</time>
      </trkpt>
      <trkpt lat="50.0746" lon="5.37049">
        <ele>361</ele>
        <time>2000-01-01T06:35:37Z</time>
      </trkpt>
      <trkpt lat="50.07461" lon="5.371">
        <ele>361</ele>
        <time>2000-01-01T06:35:47Z</time>
      </trkpt>
      <trkpt lat="50.07461" lon="5.3715">
        <ele>361</ele>
        <time>2000-01-01T06:35:57Z</time>
      </trkpt>
      <trkpt lat="50.07462" lon="5.37201">
        <ele>365</ele>
        <time>2000-01-01T06:36:07Z</time>
      </trkpt>
      <trkpt lat="50.07463" lon="5.37253">
        <ele>367</ele>
        <time>2000-01-01T06:36:17Z</time>
      </trkpt>
      <trkpt lat="50.07459" lon="5.37307">
        <ele>367</ele>
        <time>2000-01-01T06:36:27Z</time>
      </trkpt>
      <trkpt lat="50.07449" lon="5.37352">
        <ele>368</ele>
        <time>2000-01-01T06:36:37Z</time>
      </trkpt>
      <trkpt lat="50.07439" lon="5.37397">
        <ele>370</ele>
        <time>2000-01-01T06:36:47Z</time>
      </trkpt>
      <trkpt lat="50.07425" lon="5.37459">
        <ele>371</ele>
        <time>2000-01-01T06:36:57Z</time>
      </trkpt>
      <trkpt lat="50.07413" lon="5.37497">
        <ele>376</ele>
        <time>2000-01-01T06:37:07Z</time>
      </trkpt>
      <trkpt lat="50.07403" lon="5.37529">
        <ele>375</ele>
        <time>2000-01-01T06:37:17Z</time>
      </trkpt>
      <trkpt lat="50.07391" lon="5.37564">
        <ele>375</ele>
        <time>2000-01-01T06:37:27Z</time>
      </trkpt>
      <trkpt lat="50.07386" lon="5.37599">
        <ele>374</ele>
        <time>2000-01-01T06:37:37Z</time>
      </trkpt>
      <trkpt lat="50.0738" lon="5.37637">
        <ele>372</ele>
        <time>2000-01-01T06:37:47Z</time>
      </trkpt>
      <trkpt lat="50.07379" lon="5.37672">
        <ele>370</ele>
        <time>2000-01-01T06:37:57Z</time>
      </trkpt>
      <trkpt lat="50.07378" lon="5.3771">
        <ele>370</ele>
        <time>2000-01-01T06:38:07Z</time>
      </trkpt>
      <trkpt lat="50.0738" lon="5.37747">
        <ele>375</ele>
        <time>2000-01-01T06:38:17Z</time>
      </trkpt>
      <trkpt lat="50.07383" lon="5.37794">
        <ele>379</ele>
        <time>2000-01-01T06:38:27Z</time>
      </trkpt>
      <trkpt lat="50.07394" lon="5.37832">
        <ele>379</ele>
        <time>2000-01-01T06:38:37Z</time>
      </trkpt>
      <trkpt lat="50.07403" lon="5.37863">
        <ele>380</ele>
        <time>2000-01-01T06:38:47Z</time>
      </trkpt>
      <trkpt lat="50.07413" lon="5.37895">
        <ele>380</ele>
        <time>2000-01-01T06:38:57Z</time>
      </trkpt>
      <trkpt lat="50.07421" lon="5.37932">
        <ele>380</ele>
        <time>2000-01-01T06:39:07Z</time>
      </trkpt>
      <trkpt lat="50.07432" lon="5.37985">
        <ele>380</ele>
        <time>2000-01-01T06:39:17Z</time>
      </trkpt>
      <trkpt lat="50.07434" lon="5.38019">
        <ele>382</ele>
        <time>2000-01-01T06:39:27Z</time>
      </trkpt>
      <trkpt lat="50.07435" lon="5.38055">
        <ele>384</ele>
        <time>2000-01-01T06:39:37Z</time>
      </trkpt>
      <trkpt lat="50.0743" lon="5.38116">
        <ele>388</ele>
        <time>2000-01-01T06:39:47Z</time>
      </trkpt>
      <trkpt lat="50.07423" lon="5.38152">
        <ele>390</ele>
        <time>2000-01-01T06:39:57Z</time>
      </trkpt>
      <trkpt lat="50.07414" lon="5.38197">
        <ele>394</ele>
        <time>2000-01-01T06:40:07Z</time>
      </trkpt>
      <trkpt lat="50.07402" lon="5.38234">
        <ele>394</ele>
        <time>2000-01-01T06:40:17Z</time>
      </trkpt>
      <trkpt lat="50.07383" lon="5.38291">
        <ele>392</ele>
        <time>2000-01-01T06:40:27Z</time>
      </trkpt>
      <trkpt lat="50.0737" lon="5.38324">
        <ele>390</ele>
        <time>2000-01-01T06:40:37Z</time>
      </trkpt>
      <trkpt lat="50.07352" lon="5.38369">
        <ele>390</ele>
        <time>2000-01-01T06:40:47Z</time>
      </trkpt>
      <trkpt lat="50.07347" lon="5.38413">
        <ele>389</ele>
        <time>2000-01-01T06:40:57Z</time>
      </trkpt>
      <trkpt lat="50.07343" lon="5.3845">
        <ele>392</ele>
        <time>2000-01-01T06:41:07Z</time>
      </trkpt>
      <trkpt lat="50.07337" lon="5.385">
        <ele>395</ele>
        <time>2000-01-01T06:41:17Z</time>
      </trkpt>
      <trkpt lat="50.07339" lon="5.38541">
        <ele>393</ele>
        <time>2000-01-01T06:41:27Z</time>
      </trkpt>
      <trkpt lat="50.07343" lon="5.38605">
        <ele>394</ele>
        <time>2000-01-01T06:41:37Z</time>
      </trkpt>
      <trkpt lat="50.0735" lon="5.38651">
        <ele>396</ele>
        <time>2000-01-01T06:41:47Z</time>
      </trkpt>
      <trkpt lat="50.07358" lon="5.38697">
        <ele>398</ele>
        <time>2000-01-01T06:41:57Z</time>
      </trkpt>
      <trkpt lat="50.07368" lon="5.38761">
        <ele>398</ele>
        <time>2000-01-01T06:42:07Z</time>
      </trkpt>
      <trkpt lat="50.07377" lon="5.38801">
        <ele>397</ele>
        <time>2000-01-01T06:42:17Z</time>
      </trkpt>
      <trkpt lat="50.07384" lon="5.38835">
        <ele>393</ele>
        <time>2000-01-01T06:42:27Z</time>
      </trkpt>
      <trkpt lat="50.07393" lon="5.38872">
        <ele>391</ele>
        <time>2000-01-01T06:42:37Z</time>
      </trkpt>
      <trkpt lat="50.07394" lon="5.38921">
        <ele>392</ele>
        <time>2000-01-01T06:42:47Z</time>
      </trkpt>
      <trkpt lat="50.07396" lon="5.3897">
        <ele>393</ele>
        <time>2000-01-01T06:42:57Z</time>
      </trkpt>
      <trkpt lat="50.07397" lon="5.39007">
        <ele>396</ele>
        <time>2000-01-01T06:43:07Z</time>
      </trkpt>
      <trkpt lat="50.07398" lon="5.39052">
        <ele>402</ele>
        <time>2000-01-01T06:43:17Z</time>
      </trkpt>
      <trkpt lat="50.07404" lon="5.39085">
        <ele>406</ele>
        <time>2000-01-01T06:43:27Z</time>
      </trkpt>
      <trkpt lat="50.0741" lon="5.3912">
        <ele>408</ele>
        <time>2000-01-01T06:43:37Z</time>
      </trkpt>
      <trkpt lat="50.07432" lon="5.39161">
        <ele>410</ele>
        <time>2000-01-01T06:43:47Z</time>
      </trkpt>
      <trkpt lat="50.07456" lon="5.39161">
        <ele>413</ele>
        <time>2000-01-01T06:43:57Z</time>
      </trkpt>
      <trkpt lat="50.07486" lon="5.39161">
        <ele>429</ele>
        <time>2000-01-01T06:44:07Z</time>
      </trkpt>
      <trkpt lat="50.07519" lon="5.39157">
        <ele>443</ele>
        <time>2000-01-01T06:44:17Z</time>
      </trkpt>
      <trkpt lat="50.07551" lon="5.39153">
        <ele>445</ele>
        <time>2000-01-01T06:44:27Z</time>
      </trkpt>
      <trkpt lat="50.07576" lon="5.3915">
        <ele>444</ele>
        <time>2000-01-01T06:44:37Z</time>
      </trkpt>
      <trkpt lat="50.07613" lon="5.39145">
        <ele>449</ele>
        <time>2000-01-01T06:44:47Z</time>
      </trkpt>
      <trkpt lat="50.07643" lon="5.39124">
        <ele>450</ele>
        <time>2000-01-01T06:44:57Z</time>
      </trkpt>
      <trkpt lat="50.07673" lon="5.39104">
        <ele>451</ele>
        <time>2000-01-01T06:45:07Z</time>
      </trkpt>
      <trkpt lat="50.07702" lon="5.39083">
        <ele>453</ele>
        <time>2000-01-01T06:45:17Z</time>
      </trkpt>
      <trkpt lat="50.07735" lon="5.3906">
        <ele>455</ele>
        <time>2000-01-01T06:45:27Z</time>
      </trkpt>
      <trkpt lat="50.07757" lon="5.39046">
        <ele>462</ele>
        <time>2000-01-01T06:45:37Z</time>
      </trkpt>
      <trkpt lat="50.07782" lon="5.3903">
        <ele>464</ele>
        <time>2000-01-01T06:45:47Z</time>
      </trkpt>
      <trkpt lat="50.07804" lon="5.39022">
        <ele>464</ele>
        <time>2000-01-01T06:45:57Z</time>
      </trkpt>
      <trkpt lat="50.07828" lon="5.39013">
        <ele>459</ele>
        <time>2000-01-01T06:46:07Z</time>
      </trkpt>
      <trkpt lat="50.07845" lon="5.38995">
        <ele>459</ele>
        <time>2000-01-01T06:46:17Z</time>
      </trkpt>
      <trkpt lat="50.07862" lon="5.38946">
        <ele>461</ele>
        <time>2000-01-01T06:46:27Z</time>
      </trkpt>
      <trkpt lat="50.07872" lon="5.38899">
        <ele>466</ele>
        <time>2000-01-01T06:46:37Z</time>
      </trkpt>
      <trkpt lat="50.07888" lon="5.3887">
        <ele>472</ele>
        <time>2000-01-01T06:46:47Z</time>
      </trkpt>
      <trkpt lat="50.07909" lon="5.3883">
        <ele>475</ele>
        <time>2000-01-01T06:46:57Z</time>
      </trkpt>
      <trkpt lat="50.07937" lon="5.3879">
        <ele>481</ele>
        <time>2000-01-01T06:47:07Z</time>
      </trkpt>
      <trkpt lat="50.07954" lon="5.3877">
        <ele>477</ele>
        <time>2000-01-01T06:47:17Z</time>
      </trkpt>
      <trkpt lat="50.07991" lon="5.38753">
        <ele>474</ele>
        <time>2000-01-01T06:47:27Z</time>
      </trkpt>
      <trkpt lat="50.08017" lon="5.38755">
        <ele>474</ele>
        <time>2000-01-01T06:47:37Z</time>
      </trkpt>
      <trkpt lat="50.08056" lon="5.38757">
        <ele>482</ele>
        <time>2000-01-01T06:47:47Z</time>
      </trkpt>
      <trkpt lat="50.08086" lon="5.38733">
        <ele>490</ele>
        <time>2000-01-01T06:47:57Z</time>
      </trkpt>
      <trkpt lat="50.08115" lon="5.38709">
        <ele>494</ele>
        <time>2000-01-01T06:48:07Z</time>
      </trkpt>
      <trkpt lat="50.08144" lon="5.38684">
        <ele>499</ele>
        <time>2000-01-01T06:48:17Z</time>
      </trkpt>
      <trkpt lat="50.08163" lon="5.38668">
        <ele>504</ele>
        <time>2000-01-01T06:48:27Z</time>
      </trkpt>
      <trkpt lat="50.08183" lon="5.38652">
        <ele>513</ele>
        <time>2000-01-01T06:48:37Z</time>
      </trkpt>
      <trkpt lat="50.08208" lon="5.38629">
        <ele>511</ele>
        <time>2000-01-01T06:48:47Z</time>
      </trkpt>
      <trkpt lat="50.08233" lon="5.38605">
        <ele>513</ele>
        <time>2000-01-01T06:48:57Z</time>
      </trkpt>
      <trkpt lat="50.08261" lon="5.38579">
        <ele>515</ele>
        <time>2000-01-01T06:49:07Z</time>
      </trkpt>
      <trkpt lat="50.08277" lon="5.38553">
        <ele>522</ele>
        <time>2000-01-01T06:49:17Z</time>
      </trkpt>
      <trkpt lat="50.08296" lon="5.38522">
        <ele>522</ele>
        <time>2000-01-01T06:49:27Z</time>
      </trkpt>
      <trkpt lat="50.08305" lon="5.38499">
        <ele>525</ele>
        <time>2000-01-01T06:49:37Z</time>
      </trkpt>
      <trkpt lat="50.08305" lon="5.38479">
        <ele>512.8</ele>
        <time>2000-01-01T06:49:47Z</time>
      </trkpt>
      <trkpt lat="50.08348" lon="5.38414">
        <ele>525</ele>
        <time>2000-01-01T06:49:57Z</time>
      </trkpt>
      <trkpt lat="50.08342" lon="5.38377">
        <ele>525</ele>
        <time>2000-01-01T06:50:07Z</time>
      </trkpt>
      <trkpt lat="50.08336" lon="5.38329">
        <ele>525</ele>
        <time>2000-01-01T06:50:17Z</time>
      </trkpt>
      <trkpt lat="50.08338" lon="5.38293">
        <ele>526</ele>
        <time>2000-01-01T06:50:27Z</time>
      </trkpt>
      <trkpt lat="50.08341" lon="5.38248">
        <ele>526</ele>
        <time>2000-01-01T06:50:37Z</time>
      </trkpt>
      <trkpt lat="50.08345" lon="5.38209">
        <ele>526</ele>
        <time>2000-01-01T06:50:47Z</time>
      </trkpt>
      <trkpt lat="50.08351" lon="5.38152">
        <ele>533</ele>
        <time>2000-01-01T06:50:57Z</time>
      </trkpt>
      <trkpt lat="50.08358" lon="5.38101">
        <ele>535</ele>
        <time>2000-01-01T06:51:07Z</time>
      </trkpt>
      <trkpt lat="50.08365" lon="5.38051">
        <ele>537</ele>
        <time>2000-01-01T06:51:17Z</time>
      </trkpt>
      <trkpt lat="50.08371" lon="5.38">
        <ele>537</ele>
        <time>2000-01-01T06:51:27Z</time>
      </trkpt>
      <trkpt lat="50.0838" lon="5.37934">
        <ele>532</ele>
        <time>2000-01-01T06:51:37Z</time>
      </trkpt>
      <trkpt lat="50.08389" lon="5.37885">
        <ele>531</ele>
        <time>2000-01-01T06:51:47Z</time>
      </trkpt>
      <trkpt lat="50.08398" lon="5.37835">
        <ele>529</ele>
        <time>2000-01-01T06:51:57Z</time>
      </trkpt>
      <trkpt lat="50.08407" lon="5.37785">
        <ele>526</ele>
        <time>2000-01-01T06:52:07Z</time>
      </trkpt>
      <trkpt lat="50.08418" lon="5.37725">
        <ele>525</ele>
        <time>2000-01-01T06:52:17Z</time>
      </trkpt>
      <trkpt lat="50.08423" lon="5.3768">
        <ele>523</ele>
        <time>2000-01-01T06:52:27Z</time>
      </trkpt>
      <trkpt lat="50.08429" lon="5.37635">
        <ele>520</ele>
        <time>2000-01-01T06:52:37Z</time>
      </trkpt>
      <trkpt lat="50.08435" lon="5.37586">
        <ele>519</ele>
        <time>2000-01-01T06:52:47Z</time>
      </trkpt>
      <trkpt lat="50.08436" lon="5.37535">
        <ele>518</ele>
        <time>2000-01-01T06:52:57Z</time>
      </trkpt>
      <trkpt lat="50.08438" lon="5.37485">
        <ele>510</ele>
        <time>2000-01-01T06:53:07Z</time>
      </trkpt>
      <trkpt lat="50.08439" lon="5.37434">
        <ele>509</ele>
        <time>2000-01-01T06:53:17Z</time>
      </trkpt>
      <trkpt lat="50.08441" lon="5.37379">
        <ele>509</ele>
        <time>2000-01-01T06:53:27Z</time>
      </trkpt>
      <trkpt lat="50.08442" lon="5.37325">
        <ele>509</ele>
        <time>2000-01-01T06:53:37Z</time>
      </trkpt>
      <trkpt lat="50.08463" lon="5.37322">
        <ele>507</ele>
        <time>2000-01-01T06:53:47Z</time>
      </trkpt>
      <trkpt lat="50.08472" lon="5.3732">
        <ele>494.5</ele>
        <time>2000-01-01T06:53:57Z</time>
      </trkpt>
      <trkpt lat="50.0849" lon="5.37301">
        <ele>506</ele>
        <time>2000-01-01T06:54:07Z</time>
      </trkpt>
      <trkpt lat="50.08502" lon="5.3728">
        <ele>501</ele>
        <time>2000-01-01T06:54:17Z</time>
      </trkpt>
      <trkpt lat="50.08519" lon="5.37241">
        <ele>497</ele>
        <time>2000-01-01T06:54:27Z</time>
      </trkpt>
      <trkpt lat="50.08529" lon="5.37207">
        <ele>491</ele>
        <time>2000-01-01T06:54:37Z</time>
      </trkpt>
      <trkpt lat="50.08542" lon="5.37162">
        <ele>490</ele>
        <time>2000-01-01T06:54:47Z</time>
      </trkpt>
      <trkpt lat="50.0855" lon="5.37125">
        <ele>489</ele>
        <time>2000-01-01T06:54:57Z</time>
      </trkpt>
      <trkpt lat="50.08561" lon="5.37072">
        <ele>488</ele>
        <time>2000-01-01T06:55:07Z</time>
      </trkpt>
      <trkpt lat="50.08568" lon="5.37031">
        <ele>492</ele>
        <time>2000-01-01T06:55:17Z</time>
      </trkpt>
      <trkpt lat="50.08574" lon="5.36997">
        <ele>492</ele>
        <time>2000-01-01T06:55:27Z</time>
      </trkpt>
      <trkpt lat="50.08579" lon="5.3696">
        <ele>492</ele>
        <time>2000-01-01T06:55:37Z</time>
      </trkpt>
      <trkpt lat="50.08577" lon="5.36911">
        <ele>483</ele>
        <time>2000-01-01T06:55:47Z</time>
      </trkpt>
      <trkpt lat="50.08595" lon="5.36864">
        <ele>483</ele>
        <time>2000-01-01T06:55:57Z</time>
      </trkpt>
      <trkpt lat="50.08606" lon="5.36825">
        <ele>483</ele>
        <time>2000-01-01T06:56:07Z</time>
      </trkpt>
      <trkpt lat="50.08611" lon="5.36787">
        <ele>480</ele>
        <time>2000-01-01T06:56:17Z</time>
      </trkpt>
      <trkpt lat="50.08618" lon="5.36737">
        <ele>472</ele>
        <time>2000-01-01T06:56:27Z</time>
      </trkpt>
      <trkpt lat="50.08621" lon="5.36705">
        <ele>464</ele>
        <time>2000-01-01T06:56:37Z</time>
      </trkpt>
      <trkpt lat="50.08617" lon="5.3666">
        <ele>458</ele>
        <time>2000-01-01T06:56:47Z</time>
      </trkpt>
      <trkpt lat="50.08607" lon="5.36623">
        <ele>458</ele>
        <time>2000-01-01T06:56:57Z</time>
      </trkpt>
      <trkpt lat="50.086" lon="5.36574">
        <ele>458</ele>
        <time>2000-01-01T06:57:07Z</time>
      </trkpt>
      <trkpt lat="50.08605" lon="5.36514">
        <ele>453</ele>
        <time>2000-01-01T06:57:17Z</time>
      </trkpt>
      <trkpt lat="50.08595" lon="5.36505">
        <ele>449.7</ele>
        <time>2000-01-01T06:57:27Z</time>
      </trkpt>
      <trkpt lat="50.08581" lon="5.36505">
        <ele>452</ele>
        <time>2000-01-01T06:57:37Z</time>
      </trkpt>
      <trkpt lat="50.08581" lon="5.36522">
        <ele>446.7</ele>
        <time>2000-01-01T06:57:47Z</time>
      </trkpt>
      <trkpt lat="50.08572" lon="5.36605">
        <ele>451</ele>
        <time>2000-01-01T06:57:57Z</time>
      </trkpt>
      <trkpt lat="50.08563" lon="5.36629">
        <ele>445</ele>
        <time>2000-01-01T06:58:07Z</time>
      </trkpt>
      <trkpt lat="50.08553" lon="5.36635">
        <ele>441.3</ele>
        <time>2000-01-01T06:58:17Z</time>
      </trkpt>
      <trkpt lat="50.08542" lon="5.36631">
        <ele>443</ele>
        <time>2000-01-01T06:58:27Z</time>
      </trkpt>
      <trkpt lat="50.08534" lon="5.36607">
        <ele>435.9</ele>
        <time>2000-01-01T06:58:37Z</time>
      </trkpt>
      <trkpt lat="50.08522" lon="5.36547">
        <ele>434</ele>
        <time>2000-01-01T06:58:47Z</time>
      </trkpt>
      <trkpt lat="50.08524" lon="5.36512">
        <ele>429</ele>
        <time>2000-01-01T06:58:57Z</time>
      </trkpt>
      <trkpt lat="50.08527" lon="5.36474">
        <ele>425</ele>
        <time>2000-01-01T06:59:07Z</time>
      </trkpt>
      <trkpt lat="50.08534" lon="5.3644">
        <ele>421</ele>
        <time>2000-01-01T06:59:17Z</time>
      </trkpt>
      <trkpt lat="50.08541" lon="5.36401">
        <ele>418</ele>
        <time>2000-01-01T06:59:27Z</time>
      </trkpt>
      <trkpt lat="50.08547" lon="5.36362">
        <ele>417</ele>
        <time>2000-01-01T06:59:37Z</time>
      </trkpt>
      <trkpt lat="50.08555" lon="5.36302">
        <ele>417</ele>
        <time>2000-01-01T06:59:47Z</time>
      </trkpt>
      <trkpt lat="50.08549" lon="5.36259">
        <ele>411</ele>
        <time>2000-01-01T06:59:57Z</time>
      </trkpt>
      <trkpt lat="50.08544" lon="5.36223">
        <ele>411</ele>
        <time>2000-01-01T07:00:07Z</time>
      </trkpt>
      <trkpt lat="50.08537" lon="5.36178">
        <ele>408</ele>
        <time>2000-01-01T07:00:17Z</time>
      </trkpt>
      <trkpt lat="50.08526" lon="5.36113">
        <ele>406</ele>
        <time>2000-01-01T07:00:27Z</time>
      </trkpt>
      <trkpt lat="50.08528" lon="5.3608">
        <ele>404</ele>
        <time>2000-01-01T07:00:37Z</time>
      </trkpt>
      <trkpt lat="50.0853" lon="5.36046">
        <ele>396</ele>
        <time>2000-01-01T07:00:47Z</time>
      </trkpt>
      <trkpt lat="50.08533" lon="5.36012">
        <ele>392</ele>
        <time>2000-01-01T07:00:57Z</time>
      </trkpt>
      <trkpt lat="50.08536" lon="5.35978">
        <ele>391</ele>
        <time>2000-01-01T07:01:07Z</time>
      </trkpt>
      <trkpt lat="50.08541" lon="5.35942">
        <ele>391</ele>
        <time>2000-01-01T07:01:17Z</time>
      </trkpt>
      <trkpt lat="50.08547" lon="5.35897">
        <ele>388</ele>
        <time>2000-01-01T07:01:27Z</time>
      </trkpt>
      <trkpt lat="50.08548" lon="5.35861">
        <ele>388</ele>
        <time>2000-01-01T07:01:37Z</time>
      </trkpt>
      <trkpt lat="50.0855" lon="5.35821">
        <ele>390</ele>
        <time>2000-01-01T07:01:47Z</time>
      </trkpt>
      <trkpt lat="50.08542" lon="5.35768">
        <ele>392</ele>
        <time>2000-01-01T07:01:57Z</time>
      </trkpt>
      <trkpt lat="50.08527" lon="5.35735">
        <ele>387</ele>
        <time>2000-01-01T07:02:07Z</time>
      </trkpt>
      <trkpt lat="50.08507" lon="5.35689">
        <ele>385</ele>
        <time>2000-01-01T07:02:17Z</time>
      </trkpt>
      <trkpt lat="50.08496" lon="5.35654">
        <ele>383</ele>
        <time>2000-01-01T07:02:27Z</time>
      </trkpt>
      <trkpt lat="50.08479" lon="5.35602">
        <ele>382</ele>
        <time>2000-01-01T07:02:37Z</time>
      </trkpt>
      <trkpt lat="50.08462" lon="5.35568">
        <ele>381</ele>
        <time>2000-01-01T07:02:47Z</time>
      </trkpt>
      <trkpt lat="50.08449" lon="5.3554">
        <ele>380</ele>
        <time>2000-01-01T07:02:57Z</time>
      </trkpt>
      <trkpt lat="50.08435" lon="5.35511">
        <ele>376</ele>
        <time>2000-01-01T07:03:07Z</time>
      </trkpt>
      <trkpt lat="50.08419" lon="5.35458">
        <ele>366</ele>
        <time>2000-01-01T07:03:17Z</time>
      </trkpt>
      <trkpt lat="50.08413" lon="5.35415">
        <ele>364</ele>
        <time>2000-01-01T07:03:27Z</time>
      </trkpt>
      <trkpt lat="50.08407" lon="5.35378">
        <ele>356</ele>
        <time>2000-01-01T07:03:37Z</time>
      </trkpt>
      <trkpt lat="50.084" lon="5.35331">
        <ele>356</ele>
        <time>2000-01-01T07:03:47Z</time>
      </trkpt>
      <trkpt lat="50.08394" lon="5.35282">
        <ele>358</ele>
        <time>2000-01-01T07:03:57Z</time>
      </trkpt>
      <trkpt lat="50.08388" lon="5.35233">
        <ele>360</ele>
        <time>2000-01-01T07:04:07Z</time>
      </trkpt>
      <trkpt lat="50.08383" lon="5.35194">
        <ele>360</ele>
        <time>2000-01-01T07:04:17Z</time>
      </trkpt>
      <trkpt lat="50.08375" lon="5.35138">
        <ele>348</ele>
        <time>2000-01-01T07:04:27Z</time>
      </trkpt>
      <trkpt lat="50.08367" lon="5.35106">
        <ele>348</ele>
        <time>2000-01-01T07:04:37Z</time>
      </trkpt>
      <trkpt lat="50.08359" lon="5.35074">
        <ele>350</ele>
        <time>2000-01-01T07:04:47Z</time>
      </trkpt>
      <trkpt lat="50.08325" lon="5.3504">
        <ele>349</ele>
        <time>2000-01-01T07:04:57Z</time>
      </trkpt>
      <trkpt lat="50.08306" lon="5.35004">
        <ele>348</ele>
        <time>2000-01-01T07:05:07Z</time>
      </trkpt>
      <trkpt lat="50.08286" lon="5.34968">
        <ele>339</ele>
        <time>2000-01-01T07:05:17Z</time>
      </trkpt>
      <trkpt lat="50.08262" lon="5.34921">
        <ele>336</ele>
        <time>2000-01-01T07:05:27Z</time>
      </trkpt>
      <trkpt lat="50.08249" lon="5.34881">
        <ele>333</ele>
        <time>2000-01-01T07:05:37Z</time>
      </trkpt>
      <trkpt lat="50.08237" lon="5.3484">
        <ele>327</ele>
        <time>2000-01-01T07:05:47Z</time>
      </trkpt>
      <trkpt lat="50.08224" lon="5.34799">
        <ele>321</ele>
        <time>2000-01-01T07:05:57Z</time>
      </trkpt>
      <trkpt lat="50.08223" lon="5.34764">
        <ele>319</ele>
        <time>2000-01-01T07:06:07Z</time>
      </trkpt>
      <trkpt lat="50.08222" lon="5.34727">
        <ele>318</ele>
        <time>2000-01-01T07:06:17Z</time>
      </trkpt>
      <trkpt lat="50.0823" lon="5.34684">
        <ele>315</ele>
        <time>2000-01-01T07:06:27Z</time>
      </trkpt>
      <trkpt lat="50.08236" lon="5.34647">
        <ele>314</ele>
        <time>2000-01-01T07:06:37Z</time>
      </trkpt>
      <trkpt lat="50.08245" lon="5.34599">
        <ele>313</ele>
        <time>2000-01-01T07:06:47Z</time>
      </trkpt>
      <trkpt lat="50.0825" lon="5.34547">
        <ele>306</ele>
        <time>2000-01-01T07:06:57Z</time>
      </trkpt>
      <trkpt lat="50.0826" lon="5.34494">
        <ele>305</ele>
        <time>2000-01-01T07:07:07Z</time>
      </trkpt>
      <trkpt lat="50.08273" lon="5.34459">
        <ele>304</ele>
        <time>2000-01-01T07:07:17Z</time>
      </trkpt>
      <trkpt lat="50.08293" lon="5.34405">
        <ele>303</ele>
        <time>2000-01-01T07:07:27Z</time>
      </trkpt>
      <trkpt lat="50.08309" lon="5.34365">
        <ele>309</ele>
        <time>2000-01-01T07:07:37Z</time>
      </trkpt>
      <trkpt lat="50.08324" lon="5.34326">
        <ele>307</ele>
        <time>2000-01-01T07:07:47Z</time>
      </trkpt>
      <trkpt lat="50.08342" lon="5.34279">
        <ele>306</ele>
        <time>2000-01-01T07:07:57Z</time>
      </trkpt>
      <trkpt lat="50.08358" lon="5.34243">
        <ele>304</ele>
        <time>2000-01-01T07:08:07Z</time>
      </trkpt>
      <trkpt lat="50.08372" lon="5.34212">
        <ele>301</ele>
        <time>2000-01-01T07:08:17Z</time>
      </trkpt>
      <trkpt lat="50.08388" lon="5.34174">
        <ele>301</ele>
        <time>2000-01-01T07:08:27Z</time>
      </trkpt>
      <trkpt lat="50.08406" lon="5.34136">
        <ele>300</ele>
        <time>2000-01-01T07:08:37Z</time>
      </trkpt>
      <trkpt lat="50.08424" lon="5.34098">
        <ele>299</ele>
        <time>2000-01-01T07:08:47Z</time>
      </trkpt>
      <trkpt lat="50.08446" lon="5.34052">
        <ele>297</ele>
        <time>2000-01-01T07:08:57Z</time>
      </trkpt>
      <trkpt lat="50.08459" lon="5.34021">
        <ele>297</ele>
        <time>2000-01-01T07:09:07Z</time>
      </trkpt>
      <trkpt lat="50.08476" lon="5.33982">
        <ele>295</ele>
        <time>2000-01-01T07:09:17Z</time>
      </trkpt>
      <trkpt lat="50.08486" lon="5.33949">
        <ele>294</ele>
        <time>2000-01-01T07:09:27Z</time>
      </trkpt>
      <trkpt lat="50.08505" lon="5.3393">
        <ele>285</ele>
        <time>2000-01-01T07:09:37Z</time>
      </trkpt>
      <trkpt lat="50.08528" lon="5.33909">
        <ele>283</ele>
        <time>2000-01-01T07:09:47Z</time>
      </trkpt>
      <trkpt lat="50.08554" lon="5.33878">
        <ele>283</ele>
        <time>2000-01-01T07:09:57Z</time>
      </trkpt>
      <trkpt lat="50.0858" lon="5.33848">
        <ele>284</ele>
        <time>2000-01-01T07:10:07Z</time>
      </trkpt>
      <trkpt lat="50.086" lon="5.33824">
        <ele>284</ele>
        <time>2000-01-01T07:10:17Z</time>
      </trkpt>
      <trkpt lat="50.08629" lon="5.33789">
        <ele>290</ele>
        <time>2000-01-01T07:10:27Z</time>
      </trkpt>
      <trkpt lat="50.08651" lon="5.33766">
        <ele>296</ele>
        <time>2000-01-01T07:10:37Z</time>
      </trkpt>
      <trkpt lat="50.08669" lon="5.33746">
        <ele>298</ele>
        <time>2000-01-01T07:10:47Z</time>
      </trkpt>
      <trkpt lat="50.08688" lon="5.33726">
        <ele>300</ele>
        <time>2000-01-01T07:10:57Z</time>
      </trkpt>
      <trkpt lat="50.08725" lon="5.33693">
        <ele>300</ele>
        <time>2000-01-01T07:11:07Z</time>
      </trkpt>
      <trkpt lat="50.08741" lon="5.33686">
        <ele>305.1</ele>
        <time>2000-01-01T07:11:17Z</time>
      </trkpt>
      <trkpt lat="50.08758" lon="5.33684">
        <ele>298</ele>
        <time>2000-01-01T07:11:27Z</time>
      </trkpt>
      <trkpt lat="50.08792" lon="5.33686">
        <ele>298</ele>
        <time>2000-01-01T07:11:37Z</time>
      </trkpt>
      <trkpt lat="50.08824" lon="5.33694">
        <ele>301</ele>
        <time>2000-01-01T07:11:47Z</time>
      </trkpt>
      <trkpt lat="50.08856" lon="5.33702">
        <ele>301</ele>
        <time>2000-01-01T07:11:57Z</time>
      </trkpt>
      <trkpt lat="50.08888" lon="5.3371">
        <ele>303</ele>
        <time>2000-01-01T07:12:07Z</time>
      </trkpt>
      <trkpt lat="50.08921" lon="5.33718">
        <ele>305</ele>
        <time>2000-01-01T07:12:17Z</time>
      </trkpt>
      <trkpt lat="50.08949" lon="5.33733">
        <ele>307</ele>
        <time>2000-01-01T07:12:27Z</time>
      </trkpt>
      <trkpt lat="50.08976" lon="5.33749">
        <ele>307</ele>
        <time>2000-01-01T07:12:37Z</time>
      </trkpt>
      <trkpt lat="50.09006" lon="5.33765">
        <ele>305</ele>
        <time>2000-01-01T07:12:47Z</time>
      </trkpt>
      <trkpt lat="50.09027" lon="5.33776">
        <ele>304</ele>
        <time>2000-01-01T07:12:57Z</time>
      </trkpt>
      <trkpt lat="50.0905" lon="5.33787">
        <ele>304</ele>
        <time>2000-01-01T07:13:07Z</time>
      </trkpt>
      <trkpt lat="50.09075" lon="5.33796">
        <ele>303</ele>
        <time>2000-01-01T07:13:17Z</time>
      </trkpt>
      <trkpt lat="50.09095" lon="5.33801">
        <ele>302</ele>
        <time>2000-01-01T07:13:27Z</time>
      </trkpt>
      <trkpt lat="50.09118" lon="5.33814">
        <ele>302</ele>
        <time>2000-01-01T07:13:37Z</time>
      </trkpt>
      <trkpt lat="50.09147" lon="5.33831">
        <ele>304</ele>
        <time>2000-01-01T07:13:47Z</time>
      </trkpt>
      <trkpt lat="50.09157" lon="5.33848">
        <ele>308.3</ele>
        <time>2000-01-01T07:13:57Z</time>
      </trkpt>
      <trkpt lat="50.09174" lon="5.33926">
        <ele>307</ele>
        <time>2000-01-01T07:14:07Z</time>
      </trkpt>
      <trkpt lat="50.09179" lon="5.33962">
        <ele>314</ele>
        <time>2000-01-01T07:14:17Z</time>
      </trkpt>
      <trkpt lat="50.09184" lon="5.34021">
        <ele>316</ele>
        <time>2000-01-01T07:14:27Z</time>
      </trkpt>
      <trkpt lat="50.09181" lon="5.34081">
        <ele>320</ele>
        <time>2000-01-01T07:14:37Z</time>
      </trkpt>
      <trkpt lat="50.09174" lon="5.34135">
        <ele>321</ele>
        <time>2000-01-01T07:14:47Z</time>
      </trkpt>
      <trkpt lat="50.09167" lon="5.34189">
        <ele>321</ele>
        <time>2000-01-01T07:14:57Z</time>
      </trkpt>
      <trkpt lat="50.0916" lon="5.34243">
        <ele>331</ele>
        <time>2000-01-01T07:15:07Z</time>
      </trkpt>
      <trkpt lat="50.09153" lon="5.34297">
        <ele>331</ele>
        <time>2000-01-01T07:15:17Z</time>
      </trkpt>
      <trkpt lat="50.09148" lon="5.34333">
        <ele>331</ele>
        <time>2000-01-01T07:15:27Z</time>
      </trkpt>
      <trkpt lat="50.09142" lon="5.34377">
        <ele>331</ele>
        <time>2000-01-01T07:15:37Z</time>
      </trkpt>
      <trkpt lat="50.09141" lon="5.34427">
        <ele>334</ele>
        <time>2000-01-01T07:15:47Z</time>
      </trkpt>
      <trkpt lat="50.09139" lon="5.34477">
        <ele>334</ele>
        <time>2000-01-01T07:15:57Z</time>
      </trkpt>
      <trkpt lat="50.09138" lon="5.34515">
        <ele>333</ele>
        <time>2000-01-01T07:16:07Z</time>
      </trkpt>
      <trkpt lat="50.09137" lon="5.34567">
        <ele>333</ele>
        <time>2000-01-01T07:16:17Z</time>
      </trkpt>
      <trkpt lat="50.09141" lon="5.34602">
        <ele>334</ele>
        <time>2000-01-01T07:16:27Z</time>
      </trkpt>
      <trkpt lat="50.09145" lon="5.34639">
        <ele>336</ele>
        <time>2000-01-01T07:16:37Z</time>
      </trkpt>
      <trkpt lat="50.09153" lon="5.34682">
        <ele>336</ele>
        <time>2000-01-01T07:16:47Z</time>
      </trkpt>
      <trkpt lat="50.0916" lon="5.34718">
        <ele>335</ele>
        <time>2000-01-01T07:16:57Z</time>
      </trkpt>
      <trkpt lat="50.09169" lon="5.34763">
        <ele>337</ele>
        <time>2000-01-01T07:17:07Z</time>
      </trkpt>
      <trkpt lat="50.0918" lon="5.34811">
        <ele>339</ele>
        <time>2000-01-01T07:17:17Z</time>
      </trkpt>
      <trkpt lat="50.0919" lon="5.34858">
        <ele>339</ele>
        <time>2000-01-01T07:17:27Z</time>
      </trkpt>
      <trkpt lat="50.09199" lon="5.34896">
        <ele>344</ele>
        <time>2000-01-01T07:17:37Z</time>
      </trkpt>
      <trkpt lat="50.09212" lon="5.34952">
        <ele>348</ele>
        <time>2000-01-01T07:17:47Z</time>
      </trkpt>
      <trkpt lat="50.09225" lon="5.3499">
        <ele>352</ele>
        <time>2000-01-01T07:17:57Z</time>
      </trkpt>
      <trkpt lat="50.09236" lon="5.3502">
        <ele>351</ele>
        <time>2000-01-01T07:18:07Z</time>
      </trkpt>
      <trkpt lat="50.09248" lon="5.35054">
        <ele>351</ele>
        <time>2000-01-01T07:18:17Z</time>
      </trkpt>
      <trkpt lat="50.09274" lon="5.35106">
        <ele>353</ele>
        <time>2000-01-01T07:18:27Z</time>
      </trkpt>
      <trkpt lat="50.09293" lon="5.35146">
        <ele>354</ele>
        <time>2000-01-01T07:18:37Z</time>
      </trkpt>
      <trkpt lat="50.09312" lon="5.35186">
        <ele>358</ele>
        <time>2000-01-01T07:18:47Z</time>
      </trkpt>
      <trkpt lat="50.09326" lon="5.35216">
        <ele>361</ele>
        <time>2000-01-01T07:18:57Z</time>
      </trkpt>
      <trkpt lat="50.09343" lon="5.35253">
        <ele>363</ele>
        <time>2000-01-01T07:19:07Z</time>
      </trkpt>
      <trkpt lat="50.09364" lon="5.35282">
        <ele>363</ele>
        <time>2000-01-01T07:19:17Z</time>
      </trkpt>
      <trkpt lat="50.09381" lon="5.35306">
        <ele>363</ele>
        <time>2000-01-01T07:19:27Z</time>
      </trkpt>
      <trkpt lat="50.09399" lon="5.35332">
        <ele>363</ele>
        <time>2000-01-01T07:19:37Z</time>
      </trkpt>
      <trkpt lat="50.09426" lon="5.35364">
        <ele>358</ele>
        <time>2000-01-01T07:19:47Z</time>
      </trkpt>
      <trkpt lat="50.09429" lon="5.35383">
        <ele>354.2</ele>
        <time>2000-01-01T07:19:57Z</time>
      </trkpt>
      <trkpt lat="50.09423" lon="5.35434">
        <ele>358</ele>
        <time>2000-01-01T07:20:07Z</time>
      </trkpt>
      <trkpt lat="50.09425" lon="5.35468">
        <ele>361</ele>
        <time>2000-01-01T07:20:17Z</time>
      </trkpt>
      <trkpt lat="50.0943" lon="5.35501">
        <ele>363</ele>
        <time>2000-01-01T07:20:27Z</time>
      </trkpt>
      <trkpt lat="50.09436" lon="5.35534">
        <ele>365</ele>
        <time>2000-01-01T07:20:37Z</time>
      </trkpt>
      <trkpt lat="50.09445" lon="5.35569">
        <ele>370</ele>
        <time>2000-01-01T07:20:47Z</time>
      </trkpt>
      <trkpt lat="50.09457" lon="5.35615">
        <ele>376</ele>
        <time>2000-01-01T07:20:57Z</time>
      </trkpt>
      <trkpt lat="50.09463" lon="5.3565">
        <ele>378</ele>
        <time>2000-01-01T07:21:07Z</time>
      </trkpt>
      <trkpt lat="50.09471" lon="5.35691">
        <ele>380</ele>
        <time>2000-01-01T07:21:17Z</time>
      </trkpt>
      <trkpt lat="50.0948" lon="5.35726">
        <ele>382</ele>
        <time>2000-01-01T07:21:27Z</time>
      </trkpt>
      <trkpt lat="50.09492" lon="5.35756">
        <ele>386</ele>
        <time>2000-01-01T07:21:37Z</time>
      </trkpt>
      <trkpt lat="50.09509" lon="5.35779">
        <ele>386</ele>
        <time>2000-01-01T07:21:47Z</time>
      </trkpt>
      <trkpt lat="50.09526" lon="5.35801">
        <ele>386</ele>
        <time>2000-01-01T07:21:57Z</time>
      </trkpt>
      <trkpt lat="50.09548" lon="5.35835">
        <ele>386</ele>
        <time>2000-01-01T07:22:07Z</time>
      </trkpt>
      <trkpt lat="50.0957" lon="5.35869">
        <ele>391</ele>
        <time>2000-01-01T07:22:17Z</time>
      </trkpt>
      <trkpt lat="50.09586" lon="5.35893">
        <ele>396</ele>
        <time>2000-01-01T07:22:27Z</time>
      </trkpt>
      <trkpt lat="50.09603" lon="5.3592">
        <ele>398</ele>
        <time>2000-01-01T07:22:37Z</time>
      </trkpt>
      <trkpt lat="50.09625" lon="5.35961">
        <ele>401</ele>
        <time>2000-01-01T07:22:47Z</time>
      </trkpt>
      <trkpt lat="50.09646" lon="5.36001">
        <ele>402</ele>
        <time>2000-01-01T07:22:57Z</time>
      </trkpt>
      <trkpt lat="50.09667" lon="5.36042">
        <ele>404</ele>
        <time>2000-01-01T07:23:07Z</time>
      </trkpt>
      <trkpt lat="50.09681" lon="5.3607">
        <ele>407</ele>
        <time>2000-01-01T07:23:17Z</time>
      </trkpt>
      <trkpt lat="50.09698" lon="5.36102">
        <ele>410</ele>
        <time>2000-01-01T07:23:27Z</time>
      </trkpt>
      <trkpt lat="50.09712" lon="5.3613">
        <ele>411</ele>
        <time>2000-01-01T07:23:37Z</time>
      </trkpt>
      <trkpt lat="50.09726" lon="5.3616">
        <ele>412</ele>
        <time>2000-01-01T07:23:47Z</time>
      </trkpt>
      <trkpt lat="50.09746" lon="5.36185">
        <ele>413</ele>
        <time>2000-01-01T07:23:57Z</time>
      </trkpt>
      <trkpt lat="50.09772" lon="5.36219">
        <ele>413</ele>
        <time>2000-01-01T07:24:07Z</time>
      </trkpt>
      <trkpt lat="50.09789" lon="5.36251">
        <ele>413</ele>
        <time>2000-01-01T07:24:17Z</time>
      </trkpt>
      <trkpt lat="50.09801" lon="5.36288">
        <ele>424</ele>
        <time>2000-01-01T07:24:27Z</time>
      </trkpt>
      <trkpt lat="50.09811" lon="5.36318">
        <ele>426</ele>
        <time>2000-01-01T07:24:37Z</time>
      </trkpt>
      <trkpt lat="50.09821" lon="5.36348">
        <ele>427</ele>
        <time>2000-01-01T07:24:47Z</time>
      </trkpt>
      <trkpt lat="50.09837" lon="5.36385">
        <ele>426</ele>
        <time>2000-01-01T07:24:57Z</time>
      </trkpt>
      <trkpt lat="50.09849" lon="5.36415">
        <ele>426</ele>
        <time>2000-01-01T07:25:07Z</time>
      </trkpt>
      <trkpt lat="50.09865" lon="5.36452">
        <ele>427</ele>
        <time>2000-01-01T07:25:17Z</time>
      </trkpt>
      <trkpt lat="50.09875" lon="5.36468">
        <ele>422.7</ele>
        <time>2000-01-01T07:25:27Z</time>
      </trkpt>
      <trkpt lat="50.09947" lon="5.36532">
        <ele>449</ele>
        <time>2000-01-01T07:25:37Z</time>
      </trkpt>
      <trkpt lat="50.09959" lon="5.36548">
        <ele>432.8</ele>
        <time>2000-01-01T07:25:47Z</time>
      </trkpt>
      <trkpt lat="50.09977" lon="5.36581">
        <ele>453</ele>
        <time>2000-01-01T07:25:57Z</time>
      </trkpt>
      <trkpt lat="50.09992" lon="5.36624">
        <ele>455</ele>
        <time>2000-01-01T07:26:07Z</time>
      </trkpt>
      <trkpt lat="50.10005" lon="5.36665">
        <ele>453</ele>
        <time>2000-01-01T07:26:17Z</time>
      </trkpt>
      <trkpt lat="50.10017" lon="5.36705">
        <ele>455</ele>
        <time>2000-01-01T07:26:27Z</time>
      </trkpt>
      <trkpt lat="50.1003" lon="5.36748">
        <ele>458</ele>
        <time>2000-01-01T07:26:37Z</time>
      </trkpt>
      <trkpt lat="50.10037" lon="5.36782">
        <ele>461</ele>
        <time>2000-01-01T07:26:47Z</time>
      </trkpt>
      <trkpt lat="50.10047" lon="5.36816">
        <ele>462</ele>
        <time>2000-01-01T07:26:57Z</time>
      </trkpt>
      <trkpt lat="50.10064" lon="5.36853">
        <ele>466</ele>
        <time>2000-01-01T07:27:07Z</time>
      </trkpt>
      <trkpt lat="50.10082" lon="5.36882">
        <ele>471</ele>
        <time>2000-01-01T07:27:17Z</time>
      </trkpt>
      <trkpt lat="50.10111" lon="5.36929">
        <ele>473</ele>
        <time>2000-01-01T07:27:27Z</time>
      </trkpt>
      <trkpt lat="50.10132" lon="5.36946">
        <ele>487</ele>
        <time>2000-01-01T07:27:37Z</time>
      </trkpt>
      <trkpt lat="50.10158" lon="5.36966">
        <ele>484</ele>
        <time>2000-01-01T07:27:47Z</time>
      </trkpt>
      <trkpt lat="50.10171" lon="5.36982">
        <ele>468.3</ele>
        <time>2000-01-01T07:27:57Z</time>
      </trkpt>
      <trkpt lat="50.1018" lon="5.37">
        <ele>486</ele>
        <time>2000-01-01T07:28:07Z</time>
      </trkpt>
      <trkpt lat="50.10193" lon="5.37031">
        <ele>489</ele>
        <time>2000-01-01T07:28:17Z</time>
      </trkpt>
      <trkpt lat="50.10208" lon="5.37066">
        <ele>490</ele>
        <time>2000-01-01T07:28:27Z</time>
      </trkpt>
      <trkpt lat="50.10225" lon="5.37092">
        <ele>495</ele>
        <time>2000-01-01T07:28:37Z</time>
      </trkpt>
      <trkpt lat="50.10244" lon="5.37113">
        <ele>495</ele>
        <time>2000-01-01T07:28:47Z</time>
      </trkpt>
      <trkpt lat="50.10269" lon="5.37139">
        <ele>496</ele>
        <time>2000-01-01T07:28:57Z</time>
      </trkpt>
      <trkpt lat="50.10286" lon="5.37163">
        <ele>496</ele>
        <time>2000-01-01T07:29:07Z</time>
      </trkpt>
      <trkpt lat="50.10303" lon="5.37196">
        <ele>500</ele>
        <time>2000-01-01T07:29:17Z</time>
      </trkpt>
      <trkpt lat="50.10316" lon="5.37222">
        <ele>505</ele>
        <time>2000-01-01T07:29:27Z</time>
      </trkpt>
      <trkpt lat="50.1033" lon="5.37249">
        <ele>505</ele>
        <time>2000-01-01T07:29:37Z</time>
      </trkpt>
      <trkpt lat="50.10339" lon="5.37259">
        <ele>491.3</ele>
        <time>2000-01-01T07:29:47Z</time>
      </trkpt>
      <trkpt lat="50.10351" lon="5.37267">
        <ele>506</ele>
        <time>2000-01-01T07:29:57Z</time>
      </trkpt>
      <trkpt lat="50.10378" lon="5.3727">
        <ele>509</ele>
        <time>2000-01-01T07:30:07Z</time>
      </trkpt>
      <trkpt lat="50.104" lon="5.37273">
        <ele>512</ele>
        <time>2000-01-01T07:30:17Z</time>
      </trkpt>
      <trkpt lat="50.10422" lon="5.37276">
        <ele>512</ele>
        <time>2000-01-01T07:30:27Z</time>
      </trkpt>
      <trkpt lat="50.10434" lon="5.3728">
        <ele>499.3</ele>
        <time>2000-01-01T07:30:37Z</time>
      </trkpt>
      <trkpt lat="50.10441" lon="5.37286">
        <ele>509</ele>
        <time>2000-01-01T07:30:47Z</time>
      </trkpt>
      <trkpt lat="50.10462" lon="5.37313">
        <ele>506</ele>
        <time>2000-01-01T07:30:57Z</time>
      </trkpt>
      <trkpt lat="50.10482" lon="5.37346">
        <ele>506</ele>
        <time>2000-01-01T07:31:07Z</time>
      </trkpt>
      <trkpt lat="50.10501" lon="5.3738">
        <ele>507</ele>
        <time>2000-01-01T07:31:17Z</time>
      </trkpt>
      <trkpt lat="50.10521" lon="5.37414">
        <ele>518</ele>
        <time>2000-01-01T07:31:27Z</time>
      </trkpt>
      <trkpt lat="50.10535" lon="5.37463">
        <ele>523</ele>
        <time>2000-01-01T07:31:37Z</time>
      </trkpt>
      <trkpt lat="50.10542" lon="5.3745">
        <ele>512.2</ele>
        <time>2000-01-01T07:31:47Z</time>
      </trkpt>
      <trkpt lat="50.10557" lon="5.37432">
        <ele>523</ele>
        <time>2000-01-01T07:31:57Z</time>
      </trkpt>
      <trkpt lat="50.10567" lon="5.37402">
        <ele>523</ele>
        <time>2000-01-01T07:32:07Z</time>
      </trkpt>
      <trkpt lat="50.10577" lon="5.37371">
        <ele>531</ele>
        <time>2000-01-01T07:32:17Z</time>
      </trkpt>
      <trkpt lat="50.10597" lon="5.37338">
        <ele>531</ele>
        <time>2000-01-01T07:32:27Z</time>
      </trkpt>
      <trkpt lat="50.10613" lon="5.37311">
        <ele>533</ele>
        <time>2000-01-01T07:32:37Z</time>
      </trkpt>
      <trkpt lat="50.10633" lon="5.37277">
        <ele>534</ele>
        <time>2000-01-01T07:32:47Z</time>
      </trkpt>
      <trkpt lat="50.10643" lon="5.37252">
        <ele>535</ele>
        <time>2000-01-01T07:32:57Z</time>
      </trkpt>
      <trkpt lat="50.10644" lon="5.37218">
        <ele>537</ele>
        <time>2000-01-01T07:33:07Z</time>
      </trkpt>
      <trkpt lat="50.10642" lon="5.3718">
        <ele>537</ele>
        <time>2000-01-01T07:33:17Z</time>
      </trkpt>
      <trkpt lat="50.10645" lon="5.37141">
        <ele>537</ele>
        <time>2000-01-01T07:33:27Z</time>
      </trkpt>
      <trkpt lat="50.10641" lon="5.37106">
        <ele>536</ele>
        <time>2000-01-01T07:33:37Z</time>
      </trkpt>
      <trkpt lat="50.10628" lon="5.37071">
        <ele>536</ele>
        <time>2000-01-01T07:33:47Z</time>
      </trkpt>
      <trkpt lat="50.10618" lon="5.37031">
        <ele>531</ele>
        <time>2000-01-01T07:33:57Z</time>
      </trkpt>
      <trkpt lat="50.10613" lon="5.36996">
        <ele>528</ele>
        <time>2000-01-01T07:34:07Z</time>
      </trkpt>
      <trkpt lat="50.10598" lon="5.36952">
        <ele>528</ele>
        <time>2000-01-01T07:34:17Z</time>
      </trkpt>
      <trkpt lat="50.10581" lon="5.36895">
        <ele>529</ele>
        <time>2000-01-01T07:34:27Z</time>
      </trkpt>
      <trkpt lat="50.10566" lon="5.36865">
        <ele>534</ele>
        <time>2000-01-01T07:34:37Z</time>
      </trkpt>
      <trkpt lat="50.10549" lon="5.36805">
        <ele>536</ele>
        <time>2000-01-01T07:34:47Z</time>
      </trkpt>
      <trkpt lat="50.10533" lon="5.36775">
        <ele>533</ele>
        <time>2000-01-01T07:34:57Z</time>
      </trkpt>
      <trkpt lat="50.10511" lon="5.36742">
        <ele>534</ele>
        <time>2000-01-01T07:35:07Z</time>
      </trkpt>
      <trkpt lat="50.105" lon="5.36711">
        <ele>535</ele>
        <time>2000-01-01T07:35:17Z</time>
      </trkpt>
      <trkpt lat="50.10488" lon="5.36676">
        <ele>535</ele>
        <time>2000-01-01T07:35:27Z</time>
      </trkpt>
      <trkpt lat="50.10472" lon="5.3665">
        <ele>534</ele>
        <time>2000-01-01T07:35:37Z</time>
      </trkpt>
      <trkpt lat="50.10455" lon="5.36601">
        <ele>533</ele>
        <time>2000-01-01T07:35:47Z</time>
      </trkpt>
      <trkpt lat="50.10435" lon="5.36563">
        <ele>531</ele>
        <time>2000-01-01T07:35:57Z</time>
      </trkpt>
      <trkpt lat="50.10427" lon="5.36542">
        <ele>516.8</ele>
        <time>2000-01-01T07:36:07Z</time>
      </trkpt>
      <trkpt lat="50.1042" lon="5.36519">
        <ele>530</ele>
        <time>2000-01-01T07:36:17Z</time>
      </trkpt>
      <trkpt lat="50.10402" lon="5.36489">
        <ele>529</ele>
        <time>2000-01-01T07:36:27Z</time>
      </trkpt>
      <trkpt lat="50.10387" lon="5.36464">
        <ele>529</ele>
        <time>2000-01-01T07:36:37Z</time>
      </trkpt>
      <trkpt lat="50.10371" lon="5.36439">
        <ele>524</ele>
        <time>2000-01-01T07:36:47Z</time>
      </trkpt>
      <trkpt lat="50.1037" lon="5.36416">
        <ele>513.6</ele>
        <time>2000-01-01T07:36:57Z</time>
      </trkpt>
      <trkpt lat="50.10358" lon="5.36373">
        <ele>520</ele>
        <time>2000-01-01T07:37:07Z</time>
      </trkpt>
      <trkpt lat="50.10349" lon="5.36348">
        <ele>518</ele>
        <time>2000-01-01T07:37:17Z</time>
      </trkpt>
      <trkpt lat="50.10346" lon="5.36328">
        <ele>508.5</ele>
        <time>2000-01-01T07:37:27Z</time>
      </trkpt>
      <trkpt lat="50.10321" lon="5.36302">
        <ele>516</ele>
        <time>2000-01-01T07:37:37Z</time>
      </trkpt>
      <trkpt lat="50.10308" lon="5.36294">
        <ele>508</ele>
        <time>2000-01-01T07:37:47Z</time>
      </trkpt>
      <trkpt lat="50.1029" lon="5.36263">
        <ele>512</ele>
        <time>2000-01-01T07:37:57Z</time>
      </trkpt>
      <trkpt lat="50.10275" lon="5.36249">
        <ele>512</ele>
        <time>2000-01-01T07:38:07Z</time>
      </trkpt>
      <trkpt lat="50.1025" lon="5.36205">
        <ele>512</ele>
        <time>2000-01-01T07:38:17Z</time>
      </trkpt>
      <trkpt lat="50.1024" lon="5.36196">
        <ele>502.5</ele>
        <time>2000-01-01T07:38:27Z</time>
      </trkpt>
      <trkpt lat="50.10231" lon="5.3617">
        <ele>512</ele>
        <time>2000-01-01T07:38:37Z</time>
      </trkpt>
      <trkpt lat="50.10203" lon="5.36154">
        <ele>505</ele>
        <time>2000-01-01T07:38:47Z</time>
      </trkpt>
      <trkpt lat="50.10177" lon="5.36114">
        <ele>506</ele>
        <time>2000-01-01T07:38:57Z</time>
      </trkpt>
      <trkpt lat="50.10149" lon="5.36081">
        <ele>505</ele>
        <time>2000-01-01T07:39:07Z</time>
      </trkpt>
      <trkpt lat="50.10143" lon="5.36045">
        <ele>505</ele>
        <time>2000-01-01T07:39:17Z</time>
      </trkpt>
      <trkpt lat="50.1014" lon="5.36012">
        <ele>503</ele>
        <time>2000-01-01T07:39:27Z</time>
      </trkpt>
      <trkpt lat="50.10137" lon="5.35977">
        <ele>503</ele>
        <time>2000-01-01T07:39:37Z</time>
      </trkpt>
      <trkpt lat="50.10139" lon="5.35935">
        <ele>497</ele>
        <time>2000-01-01T07:39:47Z</time>
      </trkpt>
      <trkpt lat="50.10141" lon="5.359">
        <ele>494</ele>
        <time>2000-01-01T07:39:57Z</time>
      </trkpt>
      <trkpt lat="50.10143" lon="5.35864">
        <ele>492</ele>
        <time>2000-01-01T07:40:07Z</time>
      </trkpt>
      <trkpt lat="50.10137" lon="5.35823">
        <ele>488</ele>
        <time>2000-01-01T07:40:17Z</time>
      </trkpt>
      <trkpt lat="50.1014" lon="5.35791">
        <ele>488</ele>
        <time>2000-01-01T07:40:27Z</time>
      </trkpt>
      <trkpt lat="50.10151" lon="5.35761">
        <ele>488</ele>
        <time>2000-01-01T07:40:37Z</time>
      </trkpt>
      <trkpt lat="50.10157" lon="5.35727">
        <ele>485</ele>
        <time>2000-01-01T07:40:47Z</time>
      </trkpt>
      <trkpt lat="50.10165" lon="5.35689">
        <ele>483</ele>
        <time>2000-01-01T07:40:57Z</time>
      </trkpt>
      <trkpt lat="50.10171" lon="5.35629">
        <ele>479</ele>
        <time>2000-01-01T07:41:07Z</time>
      </trkpt>
      <trkpt lat="50.10185" lon="5.3558">
        <ele>478</ele>
        <time>2000-01-01T07:41:17Z</time>
      </trkpt>
      <trkpt lat="50.10186" lon="5.35551">
        <ele>477</ele>
        <time>2000-01-01T07:41:27Z</time>
      </trkpt>
      <trkpt lat="50.10202" lon="5.35506">
        <ele>470</ele>
        <time>2000-01-01T07:41:37Z</time>
      </trkpt>
      <trkpt lat="50.10205" lon="5.35478">
        <ele>470</ele>
        <time>2000-01-01T07:41:47Z</time>
      </trkpt>
      <trkpt lat="50.10203" lon="5.35445">
        <ele>467</ele>
        <time>2000-01-01T07:41:57Z</time>
      </trkpt>
      <trkpt lat="50.10209" lon="5.35422">
        <ele>459.1</ele>
        <time>2000-01-01T07:42:07Z</time>
      </trkpt>
      <trkpt lat="50.10252" lon="5.35344">
        <ele>465</ele>
        <time>2000-01-01T07:42:17Z</time>
      </trkpt>
      <trkpt lat="50.10275" lon="5.35294">
        <ele>462</ele>
        <time>2000-01-01T07:42:27Z</time>
      </trkpt>
      <trkpt lat="50.10287" lon="5.35262">
        <ele>460</ele>
        <time>2000-01-01T07:42:37Z</time>
      </trkpt>
      <trkpt lat="50.10302" lon="5.35222">
        <ele>457</ele>
        <time>2000-01-01T07:42:47Z</time>
      </trkpt>
      <trkpt lat="50.10317" lon="5.35192">
        <ele>457</ele>
        <time>2000-01-01T07:42:57Z</time>
      </trkpt>
      <trkpt lat="50.10336" lon="5.35154">
        <ele>455</ele>
        <time>2000-01-01T07:43:07Z</time>
      </trkpt>
      <trkpt lat="50.10354" lon="5.35126">
        <ele>453</ele>
        <time>2000-01-01T07:43:17Z</time>
      </trkpt>
      <trkpt lat="50.10377" lon="5.35088">
        <ele>452</ele>
        <time>2000-01-01T07:43:27Z</time>
      </trkpt>
      <trkpt lat="50.10403" lon="5.3505">
        <ele>441</ele>
        <time>2000-01-01T07:43:37Z</time>
      </trkpt>
      <trkpt lat="50.10411" lon="5.35017">
        <ele>435</ele>
        <time>2000-01-01T07:43:47Z</time>
      </trkpt>
      <trkpt lat="50.10418" lon="5.34962">
        <ele>430</ele>
        <time>2000-01-01T07:43:57Z</time>
      </trkpt>
      <trkpt lat="50.10424" lon="5.34907">
        <ele>422</ele>
        <time>2000-01-01T07:44:07Z</time>
      </trkpt>
      <trkpt lat="50.10431" lon="5.34853">
        <ele>422</ele>
        <time>2000-01-01T07:44:17Z</time>
      </trkpt>
      <trkpt lat="50.10438" lon="5.34798">
        <ele>422</ele>
        <time>2000-01-01T07:44:27Z</time>
      </trkpt>
      <trkpt lat="50.10442" lon="5.34759">
        <ele>422</ele>
        <time>2000-01-01T07:44:37Z</time>
      </trkpt>
      <trkpt lat="50.10449" lon="5.34704">
        <ele>417</ele>
        <time>2000-01-01T07:44:47Z</time>
      </trkpt>
      <trkpt lat="50.1046" lon="5.34647">
        <ele>417</ele>
        <time>2000-01-01T07:44:57Z</time>
      </trkpt>
      <trkpt lat="50.10469" lon="5.34621">
        <ele>417</ele>
        <time>2000-01-01T07:45:07Z</time>
      </trkpt>
      <trkpt lat="50.10486" lon="5.34592">
        <ele>421</ele>
        <time>2000-01-01T07:45:17Z</time>
      </trkpt>
      <trkpt lat="50.10512" lon="5.34564">
        <ele>418</ele>
        <time>2000-01-01T07:45:27Z</time>
      </trkpt>
      <trkpt lat="50.10537" lon="5.34545">
        <ele>416</ele>
        <time>2000-01-01T07:45:37Z</time>
      </trkpt>
      <trkpt lat="50.10553" lon="5.3454">
        <ele>401.6</ele>
        <time>2000-01-01T07:45:47Z</time>
      </trkpt>
      <trkpt lat="50.10645" lon="5.34542">
        <ele>388</ele>
        <time>2000-01-01T07:45:57Z</time>
      </trkpt>
      <trkpt lat="50.10682" lon="5.34549">
        <ele>386</ele>
        <time>2000-01-01T07:46:07Z</time>
      </trkpt>
      <trkpt lat="50.10721" lon="5.34564">
        <ele>385</ele>
        <time>2000-01-01T07:46:17Z</time>
      </trkpt>
      <trkpt lat="50.10758" lon="5.34586">
        <ele>385</ele>
        <time>2000-01-01T07:46:27Z</time>
      </trkpt>
      <trkpt lat="50.1079" lon="5.34606">
        <ele>382</ele>
        <time>2000-01-01T07:46:37Z</time>
      </trkpt>
      <trkpt lat="50.10822" lon="5.34626">
        <ele>366</ele>
        <time>2000-01-01T07:46:47Z</time>
      </trkpt>
      <trkpt lat="50.10854" lon="5.34646">
        <ele>365</ele>
        <time>2000-01-01T07:46:57Z</time>
      </trkpt>
      <trkpt lat="50.10878" lon="5.34661">
        <ele>364</ele>
        <time>2000-01-01T07:47:07Z</time>
      </trkpt>
      <trkpt lat="50.10913" lon="5.34684">
        <ele>357</ele>
        <time>2000-01-01T07:47:17Z</time>
      </trkpt>
      <trkpt lat="50.10943" lon="5.34661">
        <ele>352</ele>
        <time>2000-01-01T07:47:27Z</time>
      </trkpt>
      <trkpt lat="50.10973" lon="5.34638">
        <ele>351</ele>
        <time>2000-01-01T07:47:37Z</time>
      </trkpt>
      <trkpt lat="50.11003" lon="5.34615">
        <ele>351</ele>
        <time>2000-01-01T07:47:47Z</time>
      </trkpt>
      <trkpt lat="50.11023" lon="5.346">
        <ele>344</ele>
        <time>2000-01-01T07:47:57Z</time>
      </trkpt>
      <trkpt lat="50.11044" lon="5.34584">
        <ele>344</ele>
        <time>2000-01-01T07:48:07Z</time>
      </trkpt>
      <trkpt lat="50.11079" lon="5.34564">
        <ele>343</ele>
        <time>2000-01-01T07:48:17Z</time>
      </trkpt>
      <trkpt lat="50.11093" lon="5.34558">
        <ele>341.4</ele>
        <time>2000-01-01T07:48:27Z</time>
      </trkpt>
      <trkpt lat="50.11131" lon="5.34546">
        <ele>342</ele>
        <time>2000-01-01T07:48:37Z</time>
      </trkpt>
      <trkpt lat="50.1114" lon="5.34545">
        <ele>336.9</ele>
        <time>2000-01-01T07:48:47Z</time>
      </trkpt>
      <trkpt lat="50.11131" lon="5.34523">
        <ele>342</ele>
        <time>2000-01-01T07:48:57Z</time>
      </trkpt>
      <trkpt lat="50.11104" lon="5.34471">
        <ele>341</ele>
        <time>2000-01-01T07:49:07Z</time>
      </trkpt>
      <trkpt lat="50.11086" lon="5.34441">
        <ele>341</ele>
        <time>2000-01-01T07:49:17Z</time>
      </trkpt>
      <trkpt lat="50.1107" lon="5.34416">
        <ele>341</ele>
        <time>2000-01-01T07:49:27Z</time>
      </trkpt>
      <trkpt lat="50.11054" lon="5.34391">
        <ele>341</ele>
        <time>2000-01-01T07:49:37Z</time>
      </trkpt>
      <trkpt lat="50.11031" lon="5.34356">
        <ele>343</ele>
        <time>2000-01-01T07:49:47Z</time>
      </trkpt>
      <trkpt lat="50.11009" lon="5.34322">
        <ele>343</ele>
        <time>2000-01-01T07:49:57Z</time>
      </trkpt>
      <trkpt lat="50.10991" lon="5.34294">
        <ele>342</ele>
        <time>2000-01-01T07:50:07Z</time>
      </trkpt>
      <trkpt lat="50.10967" lon="5.34258">
        <ele>338</ele>
        <time>2000-01-01T07:50:17Z</time>
      </trkpt>
      <trkpt lat="50.10945" lon="5.34222">
        <ele>338</ele>
        <time>2000-01-01T07:50:27Z</time>
      </trkpt>
      <trkpt lat="50.10924" lon="5.34185">
        <ele>338</ele>
        <time>2000-01-01T07:50:37Z</time>
      </trkpt>
      <trkpt lat="50.10908" lon="5.34158">
        <ele>340</ele>
        <time>2000-01-01T07:50:47Z</time>
      </trkpt>
      <trkpt lat="50.10888" lon="5.34124">
        <ele>339</ele>
        <time>2000-01-01T07:50:57Z</time>
      </trkpt>
      <trkpt lat="50.10875" lon="5.34099">
        <ele>339</ele>
        <time>2000-01-01T07:51:07Z</time>
      </trkpt>
      <trkpt lat="50.10889" lon="5.34092">
        <ele>337.6</ele>
        <time>2000-01-01T07:51:17Z</time>
      </trkpt>
      <trkpt lat="50.10902" lon="5.34091">
        <ele>339</ele>
        <time>2000-01-01T07:51:27Z</time>
      </trkpt>
      <trkpt lat="50.10938" lon="5.34104">
        <ele>339</ele>
        <time>2000-01-01T07:51:37Z</time>
      </trkpt>
      <trkpt lat="50.10969" lon="5.34111">
        <ele>331</ele>
        <time>2000-01-01T07:51:47Z</time>
      </trkpt>
      <trkpt lat="50.11007" lon="5.34115">
        <ele>329</ele>
        <time>2000-01-01T07:51:57Z</time>
      </trkpt>
      <trkpt lat="50.11037" lon="5.34124">
        <ele>331</ele>
        <time>2000-01-01T07:52:07Z</time>
      </trkpt>
      <trkpt lat="50.11066" lon="5.34133">
        <ele>328</ele>
        <time>2000-01-01T07:52:17Z</time>
      </trkpt>
      <trkpt lat="50.11104" lon="5.34144">
        <ele>326</ele>
        <time>2000-01-01T07:52:27Z</time>
      </trkpt>
      <trkpt lat="50.11126" lon="5.34153">
        <ele>326</ele>
        <time>2000-01-01T07:52:37Z</time>
      </trkpt>
      <trkpt lat="50.11157" lon="5.34177">
        <ele>326</ele>
        <time>2000-01-01T07:52:47Z</time>
      </trkpt>
      <trkpt lat="50.11178" lon="5.34191">
        <ele>326</ele>
        <time>2000-01-01T07:52:57Z</time>
      </trkpt>
      <trkpt lat="50.11201" lon="5.34207">
        <ele>321</ele>
        <time>2000-01-01T07:53:07Z</time>
      </trkpt>
      <trkpt lat="50.11226" lon="5.34221">
        <ele>321</ele>
        <time>2000-01-01T07:53:17Z</time>
      </trkpt>
      <trkpt lat="50.11264" lon="5.34242">
        <ele>320</ele>
        <time>2000-01-01T07:53:27Z</time>
      </trkpt>
      <trkpt lat="50.11276" lon="5.34245">
        <ele>318</ele>
        <time>2000-01-01T07:53:37Z</time>
      </trkpt>
      <trkpt lat="50.11301" lon="5.34244">
        <ele>312</ele>
        <time>2000-01-01T07:53:47Z</time>
      </trkpt>
      <trkpt lat="50.11328" lon="5.34249">
        <ele>304</ele>
        <time>2000-01-01T07:53:57Z</time>
      </trkpt>
      <trkpt lat="50.11352" lon="5.3426">
        <ele>302</ele>
        <time>2000-01-01T07:54:07Z</time>
      </trkpt>
      <trkpt lat="50.11378" lon="5.34268">
        <ele>302</ele>
        <time>2000-01-01T07:54:17Z</time>
      </trkpt>
      <trkpt lat="50.114" lon="5.34274">
        <ele>301</ele>
        <time>2000-01-01T07:54:27Z</time>
      </trkpt>
      <trkpt lat="50.11422" lon="5.34281">
        <ele>296</ele>
        <time>2000-01-01T07:54:37Z</time>
      </trkpt>
      <trkpt lat="50.11437" lon="5.34287">
        <ele>301.6</ele>
        <time>2000-01-01T07:54:47Z</time>
      </trkpt>
      <trkpt lat="50.11449" lon="5.34296">
        <ele>295</ele>
        <time>2000-01-01T07:54:57Z</time>
      </trkpt>
      <trkpt lat="50.11462" lon="5.3431">
        <ele>299.2</ele>
        <time>2000-01-01T07:55:07Z</time>
      </trkpt>
      <trkpt lat="50.11484" lon="5.34359">
        <ele>294</ele>
        <time>2000-01-01T07:55:17Z</time>
      </trkpt>
      <trkpt lat="50.11494" lon="5.34387">
        <ele>293</ele>
        <time>2000-01-01T07:55:27Z</time>
      </trkpt>
      <trkpt lat="50.11517" lon="5.34381">
        <ele>293</ele>
        <time>2000-01-01T07:55:37Z</time>
      </trkpt>
      <trkpt lat="50.11525" lon="5.34371">
        <ele>295.1</ele>
        <time>2000-01-01T07:55:47Z</time>
      </trkpt>
      <trkpt lat="50.11544" lon="5.34339">
        <ele>293</ele>
        <time>2000-01-01T07:55:57Z</time>
      </trkpt>
      <trkpt lat="50.11559" lon="5.34325">
        <ele>294</ele>
        <time>2000-01-01T07:56:07Z</time>
      </trkpt>
      <trkpt lat="50.11574" lon="5.34317">
        <ele>293.2</ele>
        <time>2000-01-01T07:56:17Z</time>
      </trkpt>
      <trkpt lat="50.1159" lon="5.34323">
        <ele>296</ele>
        <time>2000-01-01T07:56:27Z</time>
      </trkpt>
      <trkpt lat="50.11616" lon="5.34322">
        <ele>296</ele>
        <time>2000-01-01T07:56:37Z</time>
      </trkpt>
      <trkpt lat="50.11653" lon="5.34321">
        <ele>297</ele>
        <time>2000-01-01T07:56:47Z</time>
      </trkpt>
      <trkpt lat="50.11666" lon="5.34331">
        <ele>294.1</ele>
        <time>2000-01-01T07:56:57Z</time>
      </trkpt>
      <trkpt lat="50.11753" lon="5.34461">
        <ele>310</ele>
        <time>2000-01-01T07:57:07Z</time>
      </trkpt>
      <trkpt lat="50.11759" lon="5.34481">
        <ele>302.1</ele>
        <time>2000-01-01T07:57:17Z</time>
      </trkpt>
      <trkpt lat="50.11758" lon="5.34508">
        <ele>310</ele>
        <time>2000-01-01T07:57:27Z</time>
      </trkpt>
      <trkpt lat="50.11772" lon="5.34545">
        <ele>307</ele>
        <time>2000-01-01T07:57:37Z</time>
      </trkpt>
      <trkpt lat="50.11783" lon="5.34575">
        <ele>304</ele>
        <time>2000-01-01T07:57:47Z</time>
      </trkpt>
      <trkpt lat="50.11796" lon="5.3461">
        <ele>305</ele>
        <time>2000-01-01T07:57:57Z</time>
      </trkpt>
      <trkpt lat="50.11818" lon="5.34648">
        <ele>307</ele>
        <time>2000-01-01T07:58:07Z</time>
      </trkpt>
      <trkpt lat="50.11839" lon="5.34672">
        <ele>313</ele>
        <time>2000-01-01T07:58:17Z</time>
      </trkpt>
      <trkpt lat="50.11858" lon="5.34688">
        <ele>318</ele>
        <time>2000-01-01T07:58:27Z</time>
      </trkpt>
      <trkpt lat="50.11877" lon="5.34709">
        <ele>319</ele>
        <time>2000-01-01T07:58:37Z</time>
      </trkpt>
      <trkpt lat="50.11902" lon="5.34735">
        <ele>332</ele>
        <time>2000-01-01T07:58:47Z</time>
      </trkpt>
      <trkpt lat="50.11919" lon="5.34765">
        <ele>339</ele>
        <time>2000-01-01T07:58:57Z</time>
      </trkpt>
      <trkpt lat="50.11943" lon="5.34807">
        <ele>339</ele>
        <time>2000-01-01T07:59:07Z</time>
      </trkpt>
      <trkpt lat="50.11963" lon="5.3483">
        <ele>339</ele>
        <time>2000-01-01T07:59:17Z</time>
      </trkpt>
      <trkpt lat="50.11989" lon="5.34858">
        <ele>340</ele>
        <time>2000-01-01T07:59:27Z</time>
      </trkpt>
      <trkpt lat="50.12019" lon="5.34874">
        <ele>341</ele>
        <time>2000-01-01T07:59:37Z</time>
      </trkpt>
      <trkpt lat="50.12039" lon="5.34881">
        <ele>344</ele>
        <time>2000-01-01T07:59:47Z</time>
      </trkpt>
      <trkpt lat="50.12063" lon="5.34888">
        <ele>344</ele>
        <time>2000-01-01T07:59:57Z</time>
      </trkpt>
      <trkpt lat="50.12094" lon="5.34896">
        <ele>346</ele>
        <time>2000-01-01T08:00:07Z</time>
      </trkpt>
      <trkpt lat="50.12121" lon="5.34914">
        <ele>351</ele>
        <time>2000-01-01T08:00:17Z</time>
      </trkpt>
      <trkpt lat="50.1213" lon="5.34926">
        <ele>365.6</ele>
        <time>2000-01-01T08:00:27Z</time>
      </trkpt>
      <trkpt lat="50.1214" lon="5.34928">
        <ele>362</ele>
        <time>2000-01-01T08:00:37Z</time>
      </trkpt>
      <trkpt lat="50.12168" lon="5.34944">
        <ele>368</ele>
        <time>2000-01-01T08:00:47Z</time>
      </trkpt>
      <trkpt lat="50.12197" lon="5.3496">
        <ele>370</ele>
        <time>2000-01-01T08:00:57Z</time>
      </trkpt>
      <trkpt lat="50.12233" lon="5.34981">
        <ele>371</ele>
        <time>2000-01-01T08:01:07Z</time>
      </trkpt>
      <trkpt lat="50.12252" lon="5.3499">
        <ele>375</ele>
        <time>2000-01-01T08:01:17Z</time>
      </trkpt>
      <trkpt lat="50.1228" lon="5.34996">
        <ele>377</ele>
        <time>2000-01-01T08:01:27Z</time>
      </trkpt>
      <trkpt lat="50.12298" lon="5.34997">
        <ele>377</ele>
        <time>2000-01-01T08:01:37Z</time>
      </trkpt>
      <trkpt lat="50.12317" lon="5.34995">
        <ele>382</ele>
        <time>2000-01-01T08:01:47Z</time>
      </trkpt>
      <trkpt lat="50.12331" lon="5.3499">
        <ele>390</ele>
        <time>2000-01-01T08:01:57Z</time>
      </trkpt>
      <trkpt lat="50.12348" lon="5.34984">
        <ele>384</ele>
        <time>2000-01-01T08:02:07Z</time>
      </trkpt>
      <trkpt lat="50.12371" lon="5.3497">
        <ele>385</ele>
        <time>2000-01-01T08:02:17Z</time>
      </trkpt>
      <trkpt lat="50.12404" lon="5.34949">
        <ele>392</ele>
        <time>2000-01-01T08:02:27Z</time>
      </trkpt>
      <trkpt lat="50.12413" lon="5.34947">
        <ele>400.7</ele>
        <time>2000-01-01T08:02:37Z</time>
      </trkpt>
      <trkpt lat="50.12435" lon="5.34937">
        <ele>393</ele>
        <time>2000-01-01T08:02:47Z</time>
      </trkpt>
      <trkpt lat="50.12447" lon="5.34929">
        <ele>404.6</ele>
        <time>2000-01-01T08:02:57Z</time>
      </trkpt>
      <trkpt lat="50.12452" lon="5.34924">
        <ele>394</ele>
        <time>2000-01-01T08:03:07Z</time>
      </trkpt>
      <trkpt lat="50.12458" lon="5.34915">
        <ele>405.6</ele>
        <time>2000-01-01T08:03:17Z</time>
      </trkpt>
      <trkpt lat="50.12465" lon="5.34913">
        <ele>405.9</ele>
        <time>2000-01-01T08:03:27Z</time>
      </trkpt>
      <trkpt lat="50.12495" lon="5.34877">
        <ele>398</ele>
        <time>2000-01-01T08:03:37Z</time>
      </trkpt>
      <trkpt lat="50.12504" lon="5.34836">
        <ele>399</ele>
        <time>2000-01-01T08:03:47Z</time>
      </trkpt>
      <trkpt lat="50.12516" lon="5.34806">
        <ele>399</ele>
        <time>2000-01-01T08:03:57Z</time>
      </trkpt>
      <trkpt lat="50.12517" lon="5.34791">
        <ele>408.2</ele>
        <time>2000-01-01T08:04:07Z</time>
      </trkpt>
      <trkpt lat="50.12523" lon="5.34774">
        <ele>398</ele>
        <time>2000-01-01T08:04:17Z</time>
      </trkpt>
      <trkpt lat="50.12536" lon="5.34741">
        <ele>397</ele>
        <time>2000-01-01T08:04:27Z</time>
      </trkpt>
      <trkpt lat="50.12554" lon="5.34699">
        <ele>397</ele>
        <time>2000-01-01T08:04:37Z</time>
      </trkpt>
      <trkpt lat="50.12567" lon="5.34661">
        <ele>398</ele>
        <time>2000-01-01T08:04:47Z</time>
      </trkpt>
      <trkpt lat="50.12581" lon="5.34631">
        <ele>398</ele>
        <time>2000-01-01T08:04:57Z</time>
      </trkpt>
      <trkpt lat="50.12593" lon="5.34602">
        <ele>399</ele>
        <time>2000-01-01T08:05:07Z</time>
      </trkpt>
      <trkpt lat="50.12605" lon="5.34572">
        <ele>399</ele>
        <time>2000-01-01T08:05:17Z</time>
      </trkpt>
      <trkpt lat="50.12614" lon="5.34556">
        <ele>405</ele>
        <time>2000-01-01T08:05:27Z</time>
      </trkpt>
      <trkpt lat="50.12627" lon="5.34541">
        <ele>397</ele>
        <time>2000-01-01T08:05:37Z</time>
      </trkpt>
      <trkpt lat="50.12652" lon="5.34522">
        <ele>396</ele>
        <time>2000-01-01T08:05:47Z</time>
      </trkpt>
      <trkpt lat="50.12674" lon="5.34505">
        <ele>396</ele>
        <time>2000-01-01T08:05:57Z</time>
      </trkpt>
      <trkpt lat="50.12701" lon="5.34484">
        <ele>393</ele>
        <time>2000-01-01T08:06:07Z</time>
      </trkpt>
      <trkpt lat="50.12719" lon="5.34468">
        <ele>391</ele>
        <time>2000-01-01T08:06:17Z</time>
      </trkpt>
      <trkpt lat="50.12732" lon="5.34456">
        <ele>397.3</ele>
        <time>2000-01-01T08:06:27Z</time>
      </trkpt>
      <trkpt lat="50.12753" lon="5.34428">
        <ele>388</ele>
        <time>2000-01-01T08:06:37Z</time>
      </trkpt>
      <trkpt lat="50.12771" lon="5.34402">
        <ele>385</ele>
        <time>2000-01-01T08:06:47Z</time>
      </trkpt>
      <trkpt lat="50.12793" lon="5.34368">
        <ele>383</ele>
        <time>2000-01-01T08:06:57Z</time>
      </trkpt>
      <trkpt lat="50.12804" lon="5.34356">
        <ele>388.3</ele>
        <time>2000-01-01T08:07:07Z</time>
      </trkpt>
      <trkpt lat="50.12841" lon="5.34336">
        <ele>384</ele>
        <time>2000-01-01T08:07:17Z</time>
      </trkpt>
      <trkpt lat="50.12851" lon="5.34296">
        <ele>385</ele>
        <time>2000-01-01T08:07:27Z</time>
      </trkpt>
      <trkpt lat="50.12858" lon="5.34253">
        <ele>385</ele>
        <time>2000-01-01T08:07:37Z</time>
      </trkpt>
      <trkpt lat="50.12872" lon="5.34219">
        <ele>384</ele>
        <time>2000-01-01T08:07:47Z</time>
      </trkpt>
      <trkpt lat="50.1289" lon="5.34173">
        <ele>379</ele>
        <time>2000-01-01T08:07:57Z</time>
      </trkpt>
      <trkpt lat="50.12893" lon="5.34146">
        <ele>377</ele>
        <time>2000-01-01T08:08:07Z</time>
      </trkpt>
      <trkpt lat="50.12892" lon="5.34119">
        <ele>378.8</ele>
        <time>2000-01-01T08:08:17Z</time>
      </trkpt>
      <trkpt lat="50.12894" lon="5.34101">
        <ele>377</ele>
        <time>2000-01-01T08:08:27Z</time>
      </trkpt>
      <trkpt lat="50.12898" lon="5.34083">
        <ele>377.7</ele>
        <time>2000-01-01T08:08:37Z</time>
      </trkpt>
      <trkpt lat="50.12892" lon="5.34068">
        <ele>377</ele>
        <time>2000-01-01T08:08:47Z</time>
      </trkpt>
      <trkpt lat="50.12886" lon="5.34048">
        <ele>379.6</ele>
        <time>2000-01-01T08:08:57Z</time>
      </trkpt>
      <trkpt lat="50.12878" lon="5.34001">
        <ele>376</ele>
        <time>2000-01-01T08:09:07Z</time>
      </trkpt>
      <trkpt lat="50.12907" lon="5.33996">
        <ele>376</ele>
        <time>2000-01-01T08:09:17Z</time>
      </trkpt>
      <trkpt lat="50.12911" lon="5.33973">
        <ele>381.6</ele>
        <time>2000-01-01T08:09:27Z</time>
      </trkpt>
      <trkpt lat="50.12911" lon="5.33951">
        <ele>378</ele>
        <time>2000-01-01T08:09:37Z</time>
      </trkpt>
      <trkpt lat="50.12908" lon="5.33904">
        <ele>385</ele>
        <time>2000-01-01T08:09:47Z</time>
      </trkpt>
      <trkpt lat="50.12904" lon="5.33858">
        <ele>386</ele>
        <time>2000-01-01T08:09:57Z</time>
      </trkpt>
      <trkpt lat="50.129" lon="5.33795">
        <ele>386</ele>
        <time>2000-01-01T08:10:07Z</time>
      </trkpt>
      <trkpt lat="50.12895" lon="5.33756">
        <ele>385</ele>
        <time>2000-01-01T08:10:17Z</time>
      </trkpt>
      <trkpt lat="50.12889" lon="5.337">
        <ele>383</ele>
        <time>2000-01-01T08:10:27Z</time>
      </trkpt>
      <trkpt lat="50.12889" lon="5.33661">
        <ele>382</ele>
        <time>2000-01-01T08:10:37Z</time>
      </trkpt>
      <trkpt lat="50.12889" lon="5.33607">
        <ele>380</ele>
        <time>2000-01-01T08:10:47Z</time>
      </trkpt>
      <trkpt lat="50.12891" lon="5.33565">
        <ele>375</ele>
        <time>2000-01-01T08:10:57Z</time>
      </trkpt>
      <trkpt lat="50.12895" lon="5.33528">
        <ele>374</ele>
        <time>2000-01-01T08:11:07Z</time>
      </trkpt>
      <trkpt lat="50.12899" lon="5.33482">
        <ele>371</ele>
        <time>2000-01-01T08:11:17Z</time>
      </trkpt>
      <trkpt lat="50.12916" lon="5.33423">
        <ele>370</ele>
        <time>2000-01-01T08:11:27Z</time>
      </trkpt>
      <trkpt lat="50.12919" lon="5.33401">
        <ele>376.4</ele>
        <time>2000-01-01T08:11:37Z</time>
      </trkpt>
      <trkpt lat="50.12924" lon="5.33271">
        <ele>363</ele>
        <time>2000-01-01T08:11:47Z</time>
      </trkpt>
      <trkpt lat="50.12927" lon="5.33234">
        <ele>357</ele>
        <time>2000-01-01T08:11:57Z</time>
      </trkpt>
      <trkpt lat="50.12931" lon="5.33188">
        <ele>350</ele>
        <time>2000-01-01T08:12:07Z</time>
      </trkpt>
      <trkpt lat="50.12939" lon="5.33146">
        <ele>348</ele>
        <time>2000-01-01T08:12:17Z</time>
      </trkpt>
      <trkpt lat="50.12945" lon="5.3311">
        <ele>345</ele>
        <time>2000-01-01T08:12:27Z</time>
      </trkpt>
      <trkpt lat="50.12953" lon="5.33064">
        <ele>341</ele>
        <time>2000-01-01T08:12:37Z</time>
      </trkpt>
      <trkpt lat="50.12952" lon="5.3302">
        <ele>339</ele>
        <time>2000-01-01T08:12:47Z</time>
      </trkpt>
      <trkpt lat="50.1295" lon="5.32983">
        <ele>333</ele>
        <time>2000-01-01T08:12:57Z</time>
      </trkpt>
      <trkpt lat="50.12949" lon="5.32938">
        <ele>330</ele>
        <time>2000-01-01T08:13:07Z</time>
      </trkpt>
      <trkpt lat="50.12953" lon="5.32879">
        <ele>327</ele>
        <time>2000-01-01T08:13:17Z</time>
      </trkpt>
      <trkpt lat="50.12958" lon="5.32845">
        <ele>326</ele>
        <time>2000-01-01T08:13:27Z</time>
      </trkpt>
      <trkpt lat="50.12964" lon="5.32809">
        <ele>319</ele>
        <time>2000-01-01T08:13:37Z</time>
      </trkpt>
      <trkpt lat="50.12965" lon="5.3278">
        <ele>317</ele>
        <time>2000-01-01T08:13:47Z</time>
      </trkpt>
      <trkpt lat="50.12956" lon="5.32743">
        <ele>313</ele>
        <time>2000-01-01T08:13:57Z</time>
      </trkpt>
      <trkpt lat="50.12943" lon="5.32691">
        <ele>310</ele>
        <time>2000-01-01T08:14:07Z</time>
      </trkpt>
      <trkpt lat="50.12942" lon="5.32661">
        <ele>309</ele>
        <time>2000-01-01T08:14:17Z</time>
      </trkpt>
      <trkpt lat="50.12948" lon="5.3262">
        <ele>307</ele>
        <time>2000-01-01T08:14:27Z</time>
      </trkpt>
      <trkpt lat="50.12956" lon="5.32585">
        <ele>305</ele>
        <time>2000-01-01T08:14:37Z</time>
      </trkpt>
      <trkpt lat="50.12966" lon="5.32545">
        <ele>301</ele>
        <time>2000-01-01T08:14:47Z</time>
      </trkpt>
      <trkpt lat="50.1297" lon="5.32502">
        <ele>300</ele>
        <time>2000-01-01T08:14:57Z</time>
      </trkpt>
      <trkpt lat="50.12973" lon="5.32465">
        <ele>298</ele>
        <time>2000-01-01T08:15:07Z</time>
      </trkpt>
      <trkpt lat="50.12977" lon="5.32421">
        <ele>291</ele>
        <time>2000-01-01T08:15:17Z</time>
      </trkpt>
      <trkpt lat="50.12991" lon="5.3238">
        <ele>287</ele>
        <time>2000-01-01T08:15:27Z</time>
      </trkpt>
      <trkpt lat="50.13005" lon="5.32339">
        <ele>287</ele>
        <time>2000-01-01T08:15:37Z</time>
      </trkpt>
      <trkpt lat="50.13021" lon="5.32291">
        <ele>290</ele>
        <time>2000-01-01T08:15:47Z</time>
      </trkpt>
      <trkpt lat="50.13023" lon="5.32254">
        <ele>287</ele>
        <time>2000-01-01T08:15:57Z</time>
      </trkpt>
      <trkpt lat="50.13024" lon="5.32209">
        <ele>285</ele>
        <time>2000-01-01T08:16:07Z</time>
      </trkpt>
      <trkpt lat="50.13024" lon="5.32167">
        <ele>281</ele>
        <time>2000-01-01T08:16:17Z</time>
      </trkpt>
      <trkpt lat="50.13024" lon="5.321">
        <ele>280</ele>
        <time>2000-01-01T08:16:27Z</time>
      </trkpt>
      <trkpt lat="50.13029" lon="5.32064">
        <ele>280</ele>
        <time>2000-01-01T08:16:37Z</time>
      </trkpt>
      <trkpt lat="50.13036" lon="5.32018">
        <ele>280</ele>
        <time>2000-01-01T08:16:47Z</time>
      </trkpt>
      <trkpt lat="50.13054" lon="5.31998">
        <ele>280</ele>
        <time>2000-01-01T08:16:57Z</time>
      </trkpt>
      <trkpt lat="50.13073" lon="5.31977">
        <ele>280</ele>
        <time>2000-01-01T08:17:07Z</time>
      </trkpt>
      <trkpt lat="50.13102" lon="5.31937">
        <ele>283</ele>
        <time>2000-01-01T08:17:17Z</time>
      </trkpt>
      <trkpt lat="50.13119" lon="5.31905">
        <ele>282</ele>
        <time>2000-01-01T08:17:27Z</time>
      </trkpt>
      <trkpt lat="50.13107" lon="5.31904">
        <ele>288.2</ele>
        <time>2000-01-01T08:17:37Z</time>
      </trkpt>
      <trkpt lat="50.13094" lon="5.31909">
        <ele>282</ele>
        <time>2000-01-01T08:17:47Z</time>
      </trkpt>
      <trkpt lat="50.13071" lon="5.31906">
        <ele>282</ele>
        <time>2000-01-01T08:17:57Z</time>
      </trkpt>
      <trkpt lat="50.13041" lon="5.31907">
        <ele>284</ele>
        <time>2000-01-01T08:18:07Z</time>
      </trkpt>
      <trkpt lat="50.13035" lon="5.31906">
        <ele>295.5</ele>
        <time>2000-01-01T08:18:17Z</time>
      </trkpt>
      <trkpt lat="50.13023" lon="5.31901">
        <ele>284</ele>
        <time>2000-01-01T08:18:27Z</time>
      </trkpt>
      <trkpt lat="50.12997" lon="5.31873">
        <ele>288</ele>
        <time>2000-01-01T08:18:37Z</time>
      </trkpt>
      <trkpt lat="50.12969" lon="5.31845">
        <ele>294</ele>
        <time>2000-01-01T08:18:47Z</time>
      </trkpt>
      <trkpt lat="50.12948" lon="5.31823">
        <ele>296</ele>
        <time>2000-01-01T08:18:57Z</time>
      </trkpt>
      <trkpt lat="50.12916" lon="5.3179">
        <ele>301</ele>
        <time>2000-01-01T08:19:07Z</time>
      </trkpt>
      <trkpt lat="50.12904" lon="5.31774">
        <ele>312</ele>
        <time>2000-01-01T08:19:17Z</time>
      </trkpt>
      <trkpt lat="50.12842" lon="5.31677">
        <ele>306</ele>
        <time>2000-01-01T08:19:27Z</time>
      </trkpt>
      <trkpt lat="50.12827" lon="5.3166">
        <ele>308</ele>
        <time>2000-01-01T08:19:37Z</time>
      </trkpt>
      <trkpt lat="50.12814" lon="5.31651">
        <ele>321.3</ele>
        <time>2000-01-01T08:19:47Z</time>
      </trkpt>
      <trkpt lat="50.12804" lon="5.31646">
        <ele>310</ele>
        <time>2000-01-01T08:19:57Z</time>
      </trkpt>
      <trkpt lat="50.12782" lon="5.31642">
        <ele>310</ele>
        <time>2000-01-01T08:20:07Z</time>
      </trkpt>
      <trkpt lat="50.12754" lon="5.3165">
        <ele>315</ele>
        <time>2000-01-01T08:20:17Z</time>
      </trkpt>
      <trkpt lat="50.12731" lon="5.31657">
        <ele>316</ele>
        <time>2000-01-01T08:20:27Z</time>
      </trkpt>
      <trkpt lat="50.12701" lon="5.31666">
        <ele>316</ele>
        <time>2000-01-01T08:20:37Z</time>
      </trkpt>
      <trkpt lat="50.12691" lon="5.31668">
        <ele>325.2</ele>
        <time>2000-01-01T08:20:47Z</time>
      </trkpt>
      <trkpt lat="50.1268" lon="5.31668">
        <ele>316</ele>
        <time>2000-01-01T08:20:57Z</time>
      </trkpt>
      <trkpt lat="50.12658" lon="5.3166">
        <ele>324</ele>
        <time>2000-01-01T08:21:07Z</time>
      </trkpt>
      <trkpt lat="50.12644" lon="5.31658">
        <ele>329.3</ele>
        <time>2000-01-01T08:21:17Z</time>
      </trkpt>
      <trkpt lat="50.126" lon="5.31664">
        <ele>324</ele>
        <time>2000-01-01T08:21:27Z</time>
      </trkpt>
      <trkpt lat="50.12568" lon="5.31662">
        <ele>325</ele>
        <time>2000-01-01T08:21:37Z</time>
      </trkpt>
      <trkpt lat="50.12559" lon="5.31668">
        <ele>335.7</ele>
        <time>2000-01-01T08:21:47Z</time>
      </trkpt>
      <trkpt lat="50.12527" lon="5.31709">
        <ele>326</ele>
        <time>2000-01-01T08:21:57Z</time>
      </trkpt>
      <trkpt lat="50.12507" lon="5.31725">
        <ele>332</ele>
        <time>2000-01-01T08:22:07Z</time>
      </trkpt>
      <trkpt lat="50.12487" lon="5.31741">
        <ele>338</ele>
        <time>2000-01-01T08:22:17Z</time>
      </trkpt>
      <trkpt lat="50.12461" lon="5.31748">
        <ele>338</ele>
        <time>2000-01-01T08:22:27Z</time>
      </trkpt>
      <trkpt lat="50.12429" lon="5.31751">
        <ele>339</ele>
        <time>2000-01-01T08:22:37Z</time>
      </trkpt>
      <trkpt lat="50.12403" lon="5.31757">
        <ele>337</ele>
        <time>2000-01-01T08:22:47Z</time>
      </trkpt>
      <trkpt lat="50.12362" lon="5.31767">
        <ele>336</ele>
        <time>2000-01-01T08:22:57Z</time>
      </trkpt>
      <trkpt lat="50.12338" lon="5.31781">
        <ele>330</ele>
        <time>2000-01-01T08:23:07Z</time>
      </trkpt>
      <trkpt lat="50.12305" lon="5.31802">
        <ele>326</ele>
        <time>2000-01-01T08:23:17Z</time>
      </trkpt>
      <trkpt lat="50.1229" lon="5.31804">
        <ele>329.9</ele>
        <time>2000-01-01T08:23:27Z</time>
      </trkpt>
      <trkpt lat="50.12275" lon="5.31803">
        <ele>325</ele>
        <time>2000-01-01T08:23:37Z</time>
      </trkpt>
      <trkpt lat="50.12263" lon="5.3184">
        <ele>321</ele>
        <time>2000-01-01T08:23:47Z</time>
      </trkpt>
      <trkpt lat="50.12253" lon="5.31881">
        <ele>320</ele>
        <time>2000-01-01T08:23:57Z</time>
      </trkpt>
      <trkpt lat="50.1225" lon="5.31902">
        <ele>329</ele>
        <time>2000-01-01T08:24:07Z</time>
      </trkpt>
      <trkpt lat="50.12247" lon="5.31952">
        <ele>320</ele>
        <time>2000-01-01T08:24:17Z</time>
      </trkpt>
      <trkpt lat="50.12241" lon="5.31973">
        <ele>328.7</ele>
        <time>2000-01-01T08:24:27Z</time>
      </trkpt>
      <trkpt lat="50.12219" lon="5.32011">
        <ele>319</ele>
        <time>2000-01-01T08:24:37Z</time>
      </trkpt>
      <trkpt lat="50.12202" lon="5.32033">
        <ele>321</ele>
        <time>2000-01-01T08:24:47Z</time>
      </trkpt>
      <trkpt lat="50.12181" lon="5.32056">
        <ele>323</ele>
        <time>2000-01-01T08:24:57Z</time>
      </trkpt>
      <trkpt lat="50.12147" lon="5.32091">
        <ele>331</ele>
        <time>2000-01-01T08:25:07Z</time>
      </trkpt>
      <trkpt lat="50.12115" lon="5.32121">
        <ele>331</ele>
        <time>2000-01-01T08:25:17Z</time>
      </trkpt>
      <trkpt lat="50.12103" lon="5.32138">
        <ele>337.6</ele>
        <time>2000-01-01T08:25:27Z</time>
      </trkpt>
      <trkpt lat="50.12075" lon="5.32193">
        <ele>332</ele>
        <time>2000-01-01T08:25:37Z</time>
      </trkpt>
      <trkpt lat="50.12056" lon="5.32224">
        <ele>332</ele>
        <time>2000-01-01T08:25:47Z</time>
      </trkpt>
      <trkpt lat="50.12041" lon="5.32249">
        <ele>332</ele>
        <time>2000-01-01T08:25:57Z</time>
      </trkpt>
      <trkpt lat="50.12024" lon="5.32277">
        <ele>333</ele>
        <time>2000-01-01T08:26:07Z</time>
      </trkpt>
      <trkpt lat="50.11997" lon="5.32324">
        <ele>334</ele>
        <time>2000-01-01T08:26:17Z</time>
      </trkpt>
      <trkpt lat="50.11978" lon="5.32354">
        <ele>336</ele>
        <time>2000-01-01T08:26:27Z</time>
      </trkpt>
      <trkpt lat="50.11963" lon="5.32379">
        <ele>336</ele>
        <time>2000-01-01T08:26:37Z</time>
      </trkpt>
      <trkpt lat="50.11947" lon="5.32405">
        <ele>337</ele>
        <time>2000-01-01T08:26:47Z</time>
      </trkpt>
      <trkpt lat="50.1194" lon="5.32411">
        <ele>345.5</ele>
        <time>2000-01-01T08:26:57Z</time>
      </trkpt>
      <trkpt lat="50.11933" lon="5.32413">
        <ele>346</ele>
        <time>2000-01-01T08:27:07Z</time>
      </trkpt>
      <trkpt lat="50.11923" lon="5.32401">
        <ele>338</ele>
        <time>2000-01-01T08:27:17Z</time>
      </trkpt>
      <trkpt lat="50.11909" lon="5.32373">
        <ele>342</ele>
        <time>2000-01-01T08:27:27Z</time>
      </trkpt>
      <trkpt lat="50.11892" lon="5.32343">
        <ele>341</ele>
        <time>2000-01-01T08:27:37Z</time>
      </trkpt>
      <trkpt lat="50.11878" lon="5.32309">
        <ele>341</ele>
        <time>2000-01-01T08:27:47Z</time>
      </trkpt>
      <trkpt lat="50.11854" lon="5.32264">
        <ele>341</ele>
        <time>2000-01-01T08:27:57Z</time>
      </trkpt>
      <trkpt lat="50.1183" lon="5.32226">
        <ele>340</ele>
        <time>2000-01-01T08:28:07Z</time>
      </trkpt>
      <trkpt lat="50.11812" lon="5.32204">
        <ele>340</ele>
        <time>2000-01-01T08:28:17Z</time>
      </trkpt>
      <trkpt lat="50.11791" lon="5.32179">
        <ele>341</ele>
        <time>2000-01-01T08:28:27Z</time>
      </trkpt>
      <trkpt lat="50.11769" lon="5.32138">
        <ele>340</ele>
        <time>2000-01-01T08:28:37Z</time>
      </trkpt>
      <trkpt lat="50.11752" lon="5.32096">
        <ele>339</ele>
        <time>2000-01-01T08:28:47Z</time>
      </trkpt>
      <trkpt lat="50.11746" lon="5.3207">
        <ele>337</ele>
        <time>2000-01-01T08:28:57Z</time>
      </trkpt>
      <trkpt lat="50.11731" lon="5.32016">
        <ele>330</ele>
        <time>2000-01-01T08:29:07Z</time>
      </trkpt>
      <trkpt lat="50.11729" lon="5.31995">
        <ele>345.1</ele>
        <time>2000-01-01T08:29:17Z</time>
      </trkpt>
      <trkpt lat="50.11735" lon="5.31912">
        <ele>330</ele>
        <time>2000-01-01T08:29:27Z</time>
      </trkpt>
      <trkpt lat="50.1174" lon="5.3188">
        <ele>330</ele>
        <time>2000-01-01T08:29:37Z</time>
      </trkpt>
      <trkpt lat="50.11747" lon="5.31853">
        <ele>327</ele>
        <time>2000-01-01T08:29:47Z</time>
      </trkpt>
      <trkpt lat="50.11763" lon="5.31851">
        <ele>335.2</ele>
        <time>2000-01-01T08:29:57Z</time>
      </trkpt>
      <trkpt lat="50.11782" lon="5.31862">
        <ele>322</ele>
        <time>2000-01-01T08:30:07Z</time>
      </trkpt>
      <trkpt lat="50.11799" lon="5.31862">
        <ele>332.8</ele>
        <time>2000-01-01T08:30:17Z</time>
      </trkpt>
      <trkpt lat="50.11807" lon="5.31852">
        <ele>321</ele>
        <time>2000-01-01T08:30:27Z</time>
      </trkpt>
      <trkpt lat="50.11822" lon="5.31812">
        <ele>315</ele>
        <time>2000-01-01T08:30:37Z</time>
      </trkpt>
      <trkpt lat="50.11833" lon="5.31749">
        <ele>311</ele>
        <time>2000-01-01T08:30:47Z</time>
      </trkpt>
      <trkpt lat="50.11837" lon="5.31713">
        <ele>311</ele>
        <time>2000-01-01T08:30:57Z</time>
      </trkpt>
      <trkpt lat="50.1185" lon="5.31662">
        <ele>311</ele>
        <time>2000-01-01T08:31:07Z</time>
      </trkpt>
      <trkpt lat="50.11855" lon="5.31647">
        <ele>315.5</ele>
        <time>2000-01-01T08:31:17Z</time>
      </trkpt>
      <trkpt lat="50.11877" lon="5.31623">
        <ele>305</ele>
        <time>2000-01-01T08:31:27Z</time>
      </trkpt>
      <trkpt lat="50.1188" lon="5.31605">
        <ele>310</ele>
        <time>2000-01-01T08:31:37Z</time>
      </trkpt>
      <trkpt lat="50.11856" lon="5.31545">
        <ele>298</ele>
        <time>2000-01-01T08:31:47Z</time>
      </trkpt>
      <trkpt lat="50.11842" lon="5.31517">
        <ele>296</ele>
        <time>2000-01-01T08:31:57Z</time>
      </trkpt>
      <trkpt lat="50.11828" lon="5.31487">
        <ele>292</ele>
        <time>2000-01-01T08:32:07Z</time>
      </trkpt>
      <trkpt lat="50.11806" lon="5.31459">
        <ele>291</ele>
        <time>2000-01-01T08:32:17Z</time>
      </trkpt>
      <trkpt lat="50.11787" lon="5.31435">
        <ele>290</ele>
        <time>2000-01-01T08:32:27Z</time>
      </trkpt>
      <trkpt lat="50.11764" lon="5.31406">
        <ele>278</ele>
        <time>2000-01-01T08:32:37Z</time>
      </trkpt>
      <trkpt lat="50.11739" lon="5.31388">
        <ele>276</ele>
        <time>2000-01-01T08:32:47Z</time>
      </trkpt>
      <trkpt lat="50.11711" lon="5.31386">
        <ele>276</ele>
        <time>2000-01-01T08:32:57Z</time>
      </trkpt>
      <trkpt lat="50.11691" lon="5.3139">
        <ele>270</ele>
        <time>2000-01-01T08:33:07Z</time>
      </trkpt>
      <trkpt lat="50.11681" lon="5.31397">
        <ele>274.8</ele>
        <time>2000-01-01T08:33:17Z</time>
      </trkpt>
      <trkpt lat="50.11663" lon="5.31396">
        <ele>268</ele>
        <time>2000-01-01T08:33:27Z</time>
      </trkpt>
      <trkpt lat="50.11636" lon="5.31387">
        <ele>255</ele>
        <time>2000-01-01T08:33:37Z</time>
      </trkpt>
      <trkpt lat="50.11613" lon="5.31379">
        <ele>243</ele>
        <time>2000-01-01T08:33:47Z</time>
      </trkpt>
      <trkpt lat="50.11586" lon="5.3137">
        <ele>243</ele>
        <time>2000-01-01T08:33:57Z</time>
      </trkpt>
      <trkpt lat="50.11566" lon="5.31357">
        <ele>241</ele>
        <time>2000-01-01T08:34:07Z</time>
      </trkpt>
      <trkpt lat="50.11543" lon="5.31344">
        <ele>236</ele>
        <time>2000-01-01T08:34:17Z</time>
      </trkpt>
      <trkpt lat="50.11528" lon="5.31325">
        <ele>236</ele>
        <time>2000-01-01T08:34:27Z</time>
      </trkpt>
      <trkpt lat="50.11524" lon="5.31315">
        <ele>245.9</ele>
        <time>2000-01-01T08:34:37Z</time>
      </trkpt>
      <trkpt lat="50.11515" lon="5.31303">
        <ele>234</ele>
        <time>2000-01-01T08:34:47Z</time>
      </trkpt>
      <trkpt lat="50.11495" lon="5.3129">
        <ele>233</ele>
        <time>2000-01-01T08:34:57Z</time>
      </trkpt>
      <trkpt lat="50.11489" lon="5.31281">
        <ele>238.5</ele>
        <time>2000-01-01T08:35:07Z</time>
      </trkpt>
      <trkpt lat="50.11486" lon="5.31269">
        <ele>238</ele>
        <time>2000-01-01T08:35:17Z</time>
      </trkpt>
      <trkpt lat="50.11416" lon="5.31291">
        <ele>231</ele>
        <time>2000-01-01T08:35:27Z</time>
      </trkpt>
      <trkpt lat="50.11397" lon="5.31302">
        <ele>231</ele>
        <time>2000-01-01T08:35:37Z</time>
      </trkpt>
      <trkpt lat="50.11376" lon="5.31326">
        <ele>231</ele>
        <time>2000-01-01T08:35:47Z</time>
      </trkpt>
      <trkpt lat="50.11354" lon="5.31362">
        <ele>234</ele>
        <time>2000-01-01T08:35:57Z</time>
      </trkpt>
      <trkpt lat="50.11344" lon="5.31383">
        <ele>233.9</ele>
        <time>2000-01-01T08:36:07Z</time>
      </trkpt>
      <trkpt lat="50.11334" lon="5.31375">
        <ele>237</ele>
        <time>2000-01-01T08:36:17Z</time>
      </trkpt>
      <trkpt lat="50.11326" lon="5.31372">
        <ele>234.2</ele>
        <time>2000-01-01T08:36:27Z</time>
      </trkpt>
      <trkpt lat="50.11313" lon="5.3137">
        <ele>240</ele>
        <time>2000-01-01T08:36:37Z</time>
      </trkpt>
      <trkpt lat="50.11306" lon="5.31399">
        <ele>240</ele>
        <time>2000-01-01T08:36:47Z</time>
      </trkpt>
      <trkpt lat="50.11288" lon="5.31442">
        <ele>240</ele>
        <time>2000-01-01T08:36:57Z</time>
      </trkpt>
      <trkpt lat="50.11262" lon="5.31488">
        <ele>240</ele>
        <time>2000-01-01T08:37:07Z</time>
      </trkpt>
      <trkpt lat="50.11247" lon="5.31529">
        <ele>242</ele>
        <time>2000-01-01T08:37:17Z</time>
      </trkpt>
      <trkpt lat="50.11235" lon="5.31551">
        <ele>244</ele>
        <time>2000-01-01T08:37:27Z</time>
      </trkpt>
      <trkpt lat="50.11214" lon="5.31534">
        <ele>246</ele>
        <time>2000-01-01T08:37:37Z</time>
      </trkpt>
      <trkpt lat="50.11188" lon="5.31512">
        <ele>254</ele>
        <time>2000-01-01T08:37:47Z</time>
      </trkpt>
      <trkpt lat="50.11171" lon="5.31504">
        <ele>254</ele>
        <time>2000-01-01T08:37:57Z</time>
      </trkpt>
      <trkpt lat="50.11153" lon="5.31499">
        <ele>256</ele>
        <time>2000-01-01T08:38:07Z</time>
      </trkpt>
      <trkpt lat="50.11124" lon="5.31497">
        <ele>263</ele>
        <time>2000-01-01T08:38:17Z</time>
      </trkpt>
      <trkpt lat="50.11109" lon="5.31497">
        <ele>273.3</ele>
        <time>2000-01-01T08:38:27Z</time>
      </trkpt>
      <trkpt lat="50.111" lon="5.31502">
        <ele>263</ele>
        <time>2000-01-01T08:38:37Z</time>
      </trkpt>
      <trkpt lat="50.11072" lon="5.31508">
        <ele>265</ele>
        <time>2000-01-01T08:38:47Z</time>
      </trkpt>
      <trkpt lat="50.11049" lon="5.31514">
        <ele>276</ele>
        <time>2000-01-01T08:38:57Z</time>
      </trkpt>
      <trkpt lat="50.11022" lon="5.3152">
        <ele>277</ele>
        <time>2000-01-01T08:39:07Z</time>
      </trkpt>
      <trkpt lat="50.1101" lon="5.31518">
        <ele>291.5</ele>
        <time>2000-01-01T08:39:17Z</time>
      </trkpt>
      <trkpt lat="50.10993" lon="5.31509">
        <ele>283</ele>
        <time>2000-01-01T08:39:27Z</time>
      </trkpt>
      <trkpt lat="50.10959" lon="5.3148">
        <ele>290</ele>
        <time>2000-01-01T08:39:37Z</time>
      </trkpt>
      <trkpt lat="50.10933" lon="5.31463">
        <ele>290</ele>
        <time>2000-01-01T08:39:47Z</time>
      </trkpt>
      <trkpt lat="50.10915" lon="5.3146">
        <ele>291</ele>
        <time>2000-01-01T08:39:57Z</time>
      </trkpt>
      <trkpt lat="50.10892" lon="5.31459">
        <ele>293</ele>
        <time>2000-01-01T08:40:07Z</time>
      </trkpt>
      <trkpt lat="50.10868" lon="5.31459">
        <ele>297</ele>
        <time>2000-01-01T08:40:17Z</time>
      </trkpt>
      <trkpt lat="50.10836" lon="5.3147">
        <ele>299</ele>
        <time>2000-01-01T08:40:27Z</time>
      </trkpt>
      <trkpt lat="50.10808" lon="5.3149">
        <ele>302</ele>
        <time>2000-01-01T08:40:37Z</time>
      </trkpt>
      <trkpt lat="50.1078" lon="5.3151">
        <ele>308</ele>
        <time>2000-01-01T08:40:47Z</time>
      </trkpt>
      <trkpt lat="50.1076" lon="5.31525">
        <ele>315</ele>
        <time>2000-01-01T08:40:57Z</time>
      </trkpt>
      <trkpt lat="50.10739" lon="5.3154">
        <ele>316</ele>
        <time>2000-01-01T08:41:07Z</time>
      </trkpt>
      <trkpt lat="50.10721" lon="5.31561">
        <ele>324</ele>
        <time>2000-01-01T08:41:17Z</time>
      </trkpt>
      <trkpt lat="50.10701" lon="5.31583">
        <ele>334</ele>
        <time>2000-01-01T08:41:27Z</time>
      </trkpt>
      <trkpt lat="50.10666" lon="5.31615">
        <ele>342</ele>
        <time>2000-01-01T08:41:37Z</time>
      </trkpt>
      <trkpt lat="50.10649" lon="5.31637">
        <ele>344</ele>
        <time>2000-01-01T08:41:47Z</time>
      </trkpt>
      <trkpt lat="50.1063" lon="5.3166">
        <ele>344</ele>
        <time>2000-01-01T08:41:57Z</time>
      </trkpt>
      <trkpt lat="50.10607" lon="5.31702">
        <ele>340</ele>
        <time>2000-01-01T08:42:07Z</time>
      </trkpt>
      <trkpt lat="50.106" lon="5.31709">
        <ele>341.2</ele>
        <time>2000-01-01T08:42:17Z</time>
      </trkpt>
      <trkpt lat="50.10589" lon="5.3171">
        <ele>336</ele>
        <time>2000-01-01T08:42:27Z</time>
      </trkpt>
      <trkpt lat="50.10563" lon="5.31715">
        <ele>333</ele>
        <time>2000-01-01T08:42:37Z</time>
      </trkpt>
      <trkpt lat="50.10523" lon="5.31724">
        <ele>337</ele>
        <time>2000-01-01T08:42:47Z</time>
      </trkpt>
      <trkpt lat="50.10481" lon="5.31735">
        <ele>342</ele>
        <time>2000-01-01T08:42:57Z</time>
      </trkpt>
      <trkpt lat="50.10468" lon="5.3173">
        <ele>348.6</ele>
        <time>2000-01-01T08:43:07Z</time>
      </trkpt>
      <trkpt lat="50.10456" lon="5.31739">
        <ele>345</ele>
        <time>2000-01-01T08:43:17Z</time>
      </trkpt>
      <trkpt lat="50.10443" lon="5.31745">
        <ele>351.3</ele>
        <time>2000-01-01T08:43:27Z</time>
      </trkpt>
      <trkpt lat="50.1041" lon="5.31745">
        <ele>354</ele>
        <time>2000-01-01T08:43:37Z</time>
      </trkpt>
      <trkpt lat="50.10397" lon="5.31741">
        <ele>356.4</ele>
        <time>2000-01-01T08:43:47Z</time>
      </trkpt>
      <trkpt lat="50.10385" lon="5.31733">
        <ele>356</ele>
        <time>2000-01-01T08:43:57Z</time>
      </trkpt>
      <trkpt lat="50.10355" lon="5.31704">
        <ele>359</ele>
        <time>2000-01-01T08:44:07Z</time>
      </trkpt>
      <trkpt lat="50.10341" lon="5.31684">
        <ele>362</ele>
        <time>2000-01-01T08:44:17Z</time>
      </trkpt>
      <trkpt lat="50.10324" lon="5.3165">
        <ele>362</ele>
        <time>2000-01-01T08:44:27Z</time>
      </trkpt>
      <trkpt lat="50.1031" lon="5.31621">
        <ele>365</ele>
        <time>2000-01-01T08:44:37Z</time>
      </trkpt>
      <trkpt lat="50.10294" lon="5.31589">
        <ele>365</ele>
        <time>2000-01-01T08:44:47Z</time>
      </trkpt>
      <trkpt lat="50.10273" lon="5.31556">
        <ele>367</ele>
        <time>2000-01-01T08:44:57Z</time>
      </trkpt>
      <trkpt lat="50.10252" lon="5.31523">
        <ele>367</ele>
        <time>2000-01-01T08:45:07Z</time>
      </trkpt>
      <trkpt lat="50.10223" lon="5.31479">
        <ele>367</ele>
        <time>2000-01-01T08:45:17Z</time>
      </trkpt>
      <trkpt lat="50.10204" lon="5.31453">
        <ele>367</ele>
        <time>2000-01-01T08:45:27Z</time>
      </trkpt>
      <trkpt lat="50.10188" lon="5.31436">
        <ele>374</ele>
        <time>2000-01-01T08:45:37Z</time>
      </trkpt>
      <trkpt lat="50.1017" lon="5.31421">
        <ele>374</ele>
        <time>2000-01-01T08:45:47Z</time>
      </trkpt>
      <trkpt lat="50.10141" lon="5.31404">
        <ele>374</ele>
        <time>2000-01-01T08:45:57Z</time>
      </trkpt>
      <trkpt lat="50.10124" lon="5.31396">
        <ele>373</ele>
        <time>2000-01-01T08:46:07Z</time>
      </trkpt>
      <trkpt lat="50.10094" lon="5.3139">
        <ele>372</ele>
        <time>2000-01-01T08:46:17Z</time>
      </trkpt>
      <trkpt lat="50.10066" lon="5.31385">
        <ele>372</ele>
        <time>2000-01-01T08:46:27Z</time>
      </trkpt>
      <trkpt lat="50.10041" lon="5.31381">
        <ele>379</ele>
        <time>2000-01-01T08:46:37Z</time>
      </trkpt>
      <trkpt lat="50.10009" lon="5.31376">
        <ele>386</ele>
        <time>2000-01-01T08:46:47Z</time>
      </trkpt>
      <trkpt lat="50.09987" lon="5.31371">
        <ele>386</ele>
        <time>2000-01-01T08:46:57Z</time>
      </trkpt>
      <trkpt lat="50.09954" lon="5.31361">
        <ele>386</ele>
        <time>2000-01-01T08:47:07Z</time>
      </trkpt>
      <trkpt lat="50.09921" lon="5.31351">
        <ele>383</ele>
        <time>2000-01-01T08:47:17Z</time>
      </trkpt>
      <trkpt lat="50.09888" lon="5.3134">
        <ele>381</ele>
        <time>2000-01-01T08:47:27Z</time>
      </trkpt>
      <trkpt lat="50.09865" lon="5.31333">
        <ele>376</ele>
        <time>2000-01-01T08:47:37Z</time>
      </trkpt>
      <trkpt lat="50.09839" lon="5.31325">
        <ele>372</ele>
        <time>2000-01-01T08:47:47Z</time>
      </trkpt>
      <trkpt lat="50.09809" lon="5.31327">
        <ele>375</ele>
        <time>2000-01-01T08:47:57Z</time>
      </trkpt>
      <trkpt lat="50.09778" lon="5.31328">
        <ele>379</ele>
        <time>2000-01-01T08:48:07Z</time>
      </trkpt>
      <trkpt lat="50.09755" lon="5.31329">
        <ele>380</ele>
        <time>2000-01-01T08:48:17Z</time>
      </trkpt>
      <trkpt lat="50.09732" lon="5.3133">
        <ele>380</ele>
        <time>2000-01-01T08:48:27Z</time>
      </trkpt>
      <trkpt lat="50.09704" lon="5.3134">
        <ele>382</ele>
        <time>2000-01-01T08:48:37Z</time>
      </trkpt>
      <trkpt lat="50.09685" lon="5.31364">
        <ele>385</ele>
        <time>2000-01-01T08:48:47Z</time>
      </trkpt>
      <trkpt lat="50.09664" lon="5.31402">
        <ele>385</ele>
        <time>2000-01-01T08:48:57Z</time>
      </trkpt>
      <trkpt lat="50.09643" lon="5.31449">
        <ele>386</ele>
        <time>2000-01-01T08:49:07Z</time>
      </trkpt>
      <trkpt lat="50.09627" lon="5.31492">
        <ele>386</ele>
        <time>2000-01-01T08:49:17Z</time>
      </trkpt>
      <trkpt lat="50.09614" lon="5.31534">
        <ele>383</ele>
        <time>2000-01-01T08:49:27Z</time>
      </trkpt>
      <trkpt lat="50.09601" lon="5.31576">
        <ele>386</ele>
        <time>2000-01-01T08:49:37Z</time>
      </trkpt>
      <trkpt lat="50.09584" lon="5.31627">
        <ele>389</ele>
        <time>2000-01-01T08:49:47Z</time>
      </trkpt>
      <trkpt lat="50.09575" lon="5.31668">
        <ele>390</ele>
        <time>2000-01-01T08:49:57Z</time>
      </trkpt>
      <trkpt lat="50.09566" lon="5.31701">
        <ele>397</ele>
        <time>2000-01-01T08:50:07Z</time>
      </trkpt>
      <trkpt lat="50.09557" lon="5.31741">
        <ele>399</ele>
        <time>2000-01-01T08:50:17Z</time>
      </trkpt>
      <trkpt lat="50.09548" lon="5.31772">
        <ele>402</ele>
        <time>2000-01-01T08:50:27Z</time>
      </trkpt>
      <trkpt lat="50.09539" lon="5.31803">
        <ele>407</ele>
        <time>2000-01-01T08:50:37Z</time>
      </trkpt>
      <trkpt lat="50.09528" lon="5.31829">
        <ele>411</ele>
        <time>2000-01-01T08:50:47Z</time>
      </trkpt>
      <trkpt lat="50.0951" lon="5.31856">
        <ele>411</ele>
        <time>2000-01-01T08:50:57Z</time>
      </trkpt>
      <trkpt lat="50.09491" lon="5.31875">
        <ele>411</ele>
        <time>2000-01-01T08:51:07Z</time>
      </trkpt>
      <trkpt lat="50.0946" lon="5.31898">
        <ele>415</ele>
        <time>2000-01-01T08:51:17Z</time>
      </trkpt>
      <trkpt lat="50.09433" lon="5.31914">
        <ele>415</ele>
        <time>2000-01-01T08:51:27Z</time>
      </trkpt>
      <trkpt lat="50.09405" lon="5.31931">
        <ele>415</ele>
        <time>2000-01-01T08:51:37Z</time>
      </trkpt>
      <trkpt lat="50.09372" lon="5.3195">
        <ele>411</ele>
        <time>2000-01-01T08:51:47Z</time>
      </trkpt>
      <trkpt lat="50.0935" lon="5.31957">
        <ele>411</ele>
        <time>2000-01-01T08:51:57Z</time>
      </trkpt>
      <trkpt lat="50.09328" lon="5.31964">
        <ele>406</ele>
        <time>2000-01-01T08:52:07Z</time>
      </trkpt>
      <trkpt lat="50.09301" lon="5.31977">
        <ele>405</ele>
        <time>2000-01-01T08:52:17Z</time>
      </trkpt>
      <trkpt lat="50.09278" lon="5.31988">
        <ele>403</ele>
        <time>2000-01-01T08:52:27Z</time>
      </trkpt>
      <trkpt lat="50.0925" lon="5.32001">
        <ele>402</ele>
        <time>2000-01-01T08:52:37Z</time>
      </trkpt>
      <trkpt lat="50.09212" lon="5.32013">
        <ele>400</ele>
        <time>2000-01-01T08:52:47Z</time>
      </trkpt>
      <trkpt lat="50.09192" lon="5.32025">
        <ele>401</ele>
        <time>2000-01-01T08:52:57Z</time>
      </trkpt>
      <trkpt lat="50.09174" lon="5.32049">
        <ele>400</ele>
        <time>2000-01-01T08:53:07Z</time>
      </trkpt>
      <trkpt lat="50.0915" lon="5.32079">
        <ele>399</ele>
        <time>2000-01-01T08:53:17Z</time>
      </trkpt>
      <trkpt lat="50.0913" lon="5.32099">
        <ele>399</ele>
        <time>2000-01-01T08:53:27Z</time>
      </trkpt>
      <trkpt lat="50.09092" lon="5.32119">
        <ele>397</ele>
        <time>2000-01-01T08:53:37Z</time>
      </trkpt>
      <trkpt lat="50.09067" lon="5.32134">
        <ele>398</ele>
        <time>2000-01-01T08:53:47Z</time>
      </trkpt>
      <trkpt lat="50.09047" lon="5.32146">
        <ele>399</ele>
        <time>2000-01-01T08:53:57Z</time>
      </trkpt>
      <trkpt lat="50.09026" lon="5.32158">
        <ele>399</ele>
        <time>2000-01-01T08:54:07Z</time>
      </trkpt>
      <trkpt lat="50.08989" lon="5.32167">
        <ele>399</ele>
        <time>2000-01-01T08:54:17Z</time>
      </trkpt>
      <trkpt lat="50.08947" lon="5.3217">
        <ele>397</ele>
        <time>2000-01-01T08:54:27Z</time>
      </trkpt>
      <trkpt lat="50.08919" lon="5.32193">
        <ele>391</ele>
        <time>2000-01-01T08:54:37Z</time>
      </trkpt>
      <trkpt lat="50.08896" lon="5.3222">
        <ele>391</ele>
        <time>2000-01-01T08:54:47Z</time>
      </trkpt>
      <trkpt lat="50.08879" lon="5.32246">
        <ele>391</ele>
        <time>2000-01-01T08:54:57Z</time>
      </trkpt>
      <trkpt lat="50.08858" lon="5.32278">
        <ele>391</ele>
        <time>2000-01-01T08:55:07Z</time>
      </trkpt>
      <trkpt lat="50.08834" lon="5.32299">
        <ele>391</ele>
        <time>2000-01-01T08:55:17Z</time>
      </trkpt>
      <trkpt lat="50.08803" lon="5.32319">
        <ele>391</ele>
        <time>2000-01-01T08:55:27Z</time>
      </trkpt>
      <trkpt lat="50.08773" lon="5.32338">
        <ele>391</ele>
        <time>2000-01-01T08:55:37Z</time>
      </trkpt>
      <trkpt lat="50.08743" lon="5.32358">
        <ele>394</ele>
        <time>2000-01-01T08:55:47Z</time>
      </trkpt>
      <trkpt lat="50.08709" lon="5.32381">
        <ele>394</ele>
        <time>2000-01-01T08:55:57Z</time>
      </trkpt>
      <trkpt lat="50.08698" lon="5.32384">
        <ele>395.4</ele>
        <time>2000-01-01T08:56:07Z</time>
      </trkpt>
      <trkpt lat="50.08573" lon="5.32385">
        <ele>393</ele>
        <time>2000-01-01T08:56:17Z</time>
      </trkpt>
      <trkpt lat="50.0853" lon="5.32389">
        <ele>385</ele>
        <time>2000-01-01T08:56:27Z</time>
      </trkpt>
      <trkpt lat="50.08514" lon="5.32391">
        <ele>381.9</ele>
        <time>2000-01-01T08:56:37Z</time>
      </trkpt>
      <trkpt lat="50.08496" lon="5.32403">
        <ele>372</ele>
        <time>2000-01-01T08:56:47Z</time>
      </trkpt>
      <trkpt lat="50.08468" lon="5.32417">
        <ele>371</ele>
        <time>2000-01-01T08:56:57Z</time>
      </trkpt>
      <trkpt lat="50.08437" lon="5.3243">
        <ele>365</ele>
        <time>2000-01-01T08:57:07Z</time>
      </trkpt>
      <trkpt lat="50.08407" lon="5.32439">
        <ele>365</ele>
        <time>2000-01-01T08:57:17Z</time>
      </trkpt>
      <trkpt lat="50.08419" lon="5.32394">
        <ele>366</ele>
        <time>2000-01-01T08:57:27Z</time>
      </trkpt>
      <trkpt lat="50.08431" lon="5.32348">
        <ele>368</ele>
        <time>2000-01-01T08:57:37Z</time>
      </trkpt>
      <trkpt lat="50.0844" lon="5.32314">
        <ele>370</ele>
        <time>2000-01-01T08:57:47Z</time>
      </trkpt>
      <trkpt lat="50.08451" lon="5.32272">
        <ele>372</ele>
        <time>2000-01-01T08:57:57Z</time>
      </trkpt>
      <trkpt lat="50.08465" lon="5.32227">
        <ele>375</ele>
        <time>2000-01-01T08:58:07Z</time>
      </trkpt>
      <trkpt lat="50.08482" lon="5.32182">
        <ele>376</ele>
        <time>2000-01-01T08:58:17Z</time>
      </trkpt>
      <trkpt lat="50.08491" lon="5.32147">
        <ele>385</ele>
        <time>2000-01-01T08:58:27Z</time>
      </trkpt>
      <trkpt lat="50.08494" lon="5.32089">
        <ele>389</ele>
        <time>2000-01-01T08:58:37Z</time>
      </trkpt>
      <trkpt lat="50.08496" lon="5.32063">
        <ele>387.4</ele>
        <time>2000-01-01T08:58:47Z</time>
      </trkpt>
      <trkpt lat="50.08503" lon="5.32024">
        <ele>392</ele>
        <time>2000-01-01T08:58:57Z</time>
      </trkpt>
      <trkpt lat="50.08501" lon="5.32005">
        <ele>388.9</ele>
        <time>2000-01-01T08:59:07Z</time>
      </trkpt>
      <trkpt lat="50.08495" lon="5.31979">
        <ele>393</ele>
        <time>2000-01-01T08:59:17Z</time>
      </trkpt>
      <trkpt lat="50.08485" lon="5.31952">
        <ele>394</ele>
        <time>2000-01-01T08:59:27Z</time>
      </trkpt>
      <trkpt lat="50.08462" lon="5.31914">
        <ele>396</ele>
        <time>2000-01-01T08:59:37Z</time>
      </trkpt>
      <trkpt lat="50.08441" lon="5.31887">
        <ele>396</ele>
        <time>2000-01-01T08:59:47Z</time>
      </trkpt>
      <trkpt lat="50.08429" lon="5.31852">
        <ele>394</ele>
        <time>2000-01-01T08:59:57Z</time>
      </trkpt>
      <trkpt lat="50.08411" lon="5.31802">
        <ele>390</ele>
        <time>2000-01-01T09:00:07Z</time>
      </trkpt>
      <trkpt lat="50.084" lon="5.31746">
        <ele>382</ele>
        <time>2000-01-01T09:00:17Z</time>
      </trkpt>
      <trkpt lat="50.08378" lon="5.3172">
        <ele>380</ele>
        <time>2000-01-01T09:00:27Z</time>
      </trkpt>
      <trkpt lat="50.08366" lon="5.31677">
        <ele>378</ele>
        <time>2000-01-01T09:00:37Z</time>
      </trkpt>
      <trkpt lat="50.08359" lon="5.31663">
        <ele>365.6</ele>
        <time>2000-01-01T09:00:47Z</time>
      </trkpt>
      <trkpt lat="50.08312" lon="5.31622">
        <ele>369</ele>
        <time>2000-01-01T09:00:57Z</time>
      </trkpt>
      <trkpt lat="50.08294" lon="5.31609">
        <ele>367</ele>
        <time>2000-01-01T09:01:07Z</time>
      </trkpt>
      <trkpt lat="50.08272" lon="5.31596">
        <ele>365</ele>
        <time>2000-01-01T09:01:17Z</time>
      </trkpt>
      <trkpt lat="50.08247" lon="5.3158">
        <ele>355</ele>
        <time>2000-01-01T09:01:27Z</time>
      </trkpt>
      <trkpt lat="50.08222" lon="5.31538">
        <ele>350</ele>
        <time>2000-01-01T09:01:37Z</time>
      </trkpt>
      <trkpt lat="50.08211" lon="5.31518">
        <ele>346</ele>
        <time>2000-01-01T09:01:47Z</time>
      </trkpt>
      <trkpt lat="50.08206" lon="5.31495">
        <ele>337.5</ele>
        <time>2000-01-01T09:01:57Z</time>
      </trkpt>
      <trkpt lat="50.08208" lon="5.31461">
        <ele>337</ele>
        <time>2000-01-01T09:02:07Z</time>
      </trkpt>
      <trkpt lat="50.08216" lon="5.31407">
        <ele>336</ele>
        <time>2000-01-01T09:02:17Z</time>
      </trkpt>
      <trkpt lat="50.08218" lon="5.31366">
        <ele>336</ele>
        <time>2000-01-01T09:02:27Z</time>
      </trkpt>
      <trkpt lat="50.08215" lon="5.31308">
        <ele>333</ele>
        <time>2000-01-01T09:02:37Z</time>
      </trkpt>
      <trkpt lat="50.08209" lon="5.31271">
        <ele>330</ele>
        <time>2000-01-01T09:02:47Z</time>
      </trkpt>
      <trkpt lat="50.08199" lon="5.31238">
        <ele>330</ele>
        <time>2000-01-01T09:02:57Z</time>
      </trkpt>
      <trkpt lat="50.08194" lon="5.31199">
        <ele>330</ele>
        <time>2000-01-01T09:03:07Z</time>
      </trkpt>
      <trkpt lat="50.08186" lon="5.31143">
        <ele>322</ele>
        <time>2000-01-01T09:03:17Z</time>
      </trkpt>
      <trkpt lat="50.08184" lon="5.31107">
        <ele>321</ele>
        <time>2000-01-01T09:03:27Z</time>
      </trkpt>
      <trkpt lat="50.08182" lon="5.31066">
        <ele>318</ele>
        <time>2000-01-01T09:03:37Z</time>
      </trkpt>
      <trkpt lat="50.08182" lon="5.31015">
        <ele>316</ele>
        <time>2000-01-01T09:03:47Z</time>
      </trkpt>
      <trkpt lat="50.08178" lon="5.30966">
        <ele>316</ele>
        <time>2000-01-01T09:03:57Z</time>
      </trkpt>
      <trkpt lat="50.08171" lon="5.30926">
        <ele>316</ele>
        <time>2000-01-01T09:04:07Z</time>
      </trkpt>
      <trkpt lat="50.0816" lon="5.3089">
        <ele>317</ele>
        <time>2000-01-01T09:04:17Z</time>
      </trkpt>
      <trkpt lat="50.08146" lon="5.30842">
        <ele>318</ele>
        <time>2000-01-01T09:04:27Z</time>
      </trkpt>
      <trkpt lat="50.08135" lon="5.3082">
        <ele>318</ele>
        <time>2000-01-01T09:04:37Z</time>
      </trkpt>
      <trkpt lat="50.08107" lon="5.30787">
        <ele>318</ele>
        <time>2000-01-01T09:04:47Z</time>
      </trkpt>
      <trkpt lat="50.08078" lon="5.30737">
        <ele>318</ele>
        <time>2000-01-01T09:04:57Z</time>
      </trkpt>
      <trkpt lat="50.08068" lon="5.30701">
        <ele>320</ele>
        <time>2000-01-01T09:05:07Z</time>
      </trkpt>
      <trkpt lat="50.08054" lon="5.30647">
        <ele>318</ele>
        <time>2000-01-01T09:05:17Z</time>
      </trkpt>
      <trkpt lat="50.0805" lon="5.30627">
        <ele>305.5</ele>
        <time>2000-01-01T09:05:27Z</time>
      </trkpt>
      <trkpt lat="50.0804" lon="5.30606">
        <ele>316</ele>
        <time>2000-01-01T09:05:37Z</time>
      </trkpt>
      <trkpt lat="50.08026" lon="5.3057">
        <ele>314</ele>
        <time>2000-01-01T09:05:47Z</time>
      </trkpt>
      <trkpt lat="50.08014" lon="5.3054">
        <ele>303</ele>
        <time>2000-01-01T09:05:57Z</time>
      </trkpt>
      <trkpt lat="50.08002" lon="5.30509">
        <ele>299</ele>
        <time>2000-01-01T09:06:07Z</time>
      </trkpt>
      <trkpt lat="50.07992" lon="5.30466">
        <ele>299</ele>
        <time>2000-01-01T09:06:17Z</time>
      </trkpt>
      <trkpt lat="50.07982" lon="5.30423">
        <ele>298</ele>
        <time>2000-01-01T09:06:27Z</time>
      </trkpt>
      <trkpt lat="50.0797" lon="5.30376">
        <ele>298</ele>
        <time>2000-01-01T09:06:37Z</time>
      </trkpt>
      <trkpt lat="50.07958" lon="5.30348">
        <ele>300</ele>
        <time>2000-01-01T09:06:47Z</time>
      </trkpt>
      <trkpt lat="50.07953" lon="5.30316">
        <ele>300</ele>
        <time>2000-01-01T09:06:57Z</time>
      </trkpt>
      <trkpt lat="50.0795" lon="5.30278">
        <ele>299</ele>
        <time>2000-01-01T09:07:07Z</time>
      </trkpt>
      <trkpt lat="50.07943" lon="5.3025">
        <ele>299</ele>
        <time>2000-01-01T09:07:17Z</time>
      </trkpt>
      <trkpt lat="50.07933" lon="5.30226">
        <ele>298</ele>
        <time>2000-01-01T09:07:27Z</time>
      </trkpt>
      <trkpt lat="50.07909" lon="5.30199">
        <ele>298</ele>
        <time>2000-01-01T09:07:37Z</time>
      </trkpt>
      <trkpt lat="50.07884" lon="5.30157">
        <ele>298</ele>
        <time>2000-01-01T09:07:47Z</time>
      </trkpt>
      <trkpt lat="50.07868" lon="5.30117">
        <ele>293</ele>
        <time>2000-01-01T09:07:57Z</time>
      </trkpt>
      <trkpt lat="50.07858" lon="5.3008">
        <ele>292</ele>
        <time>2000-01-01T09:08:07Z</time>
      </trkpt>
      <trkpt lat="50.07854" lon="5.30037">
        <ele>288</ele>
        <time>2000-01-01T09:08:17Z</time>
      </trkpt>
      <trkpt lat="50.07854" lon="5.29981">
        <ele>280</ele>
        <time>2000-01-01T09:08:27Z</time>
      </trkpt>
      <trkpt lat="50.07858" lon="5.29943">
        <ele>276</ele>
        <time>2000-01-01T09:08:37Z</time>
      </trkpt>
      <trkpt lat="50.07855" lon="5.29906">
        <ele>269</ele>
        <time>2000-01-01T09:08:47Z</time>
      </trkpt>
      <trkpt lat="50.0786" lon="5.29885">
        <ele>281.4</ele>
        <time>2000-01-01T09:08:57Z</time>
      </trkpt>
      <trkpt lat="50.0787" lon="5.29862">
        <ele>269</ele>
        <time>2000-01-01T09:09:07Z</time>
      </trkpt>
      <trkpt lat="50.07895" lon="5.29836">
        <ele>269</ele>
        <time>2000-01-01T09:09:17Z</time>
      </trkpt>
      <trkpt lat="50.0791" lon="5.29826">
        <ele>276.9</ele>
        <time>2000-01-01T09:09:27Z</time>
      </trkpt>
      <trkpt lat="50.07924" lon="5.2981">
        <ele>270</ele>
        <time>2000-01-01T09:09:37Z</time>
      </trkpt>
      <trkpt lat="50.07929" lon="5.29799">
        <ele>272.9</ele>
        <time>2000-01-01T09:09:47Z</time>
      </trkpt>
      <trkpt lat="50.07868" lon="5.29751">
        <ele>271</ele>
        <time>2000-01-01T09:09:57Z</time>
      </trkpt>
      <trkpt lat="50.07902" lon="5.29715">
        <ele>281</ele>
        <time>2000-01-01T09:10:07Z</time>
      </trkpt>
      <trkpt lat="50.07925" lon="5.29697">
        <ele>293</ele>
        <time>2000-01-01T09:10:17Z</time>
      </trkpt>
      <trkpt lat="50.07961" lon="5.2967">
        <ele>294</ele>
        <time>2000-01-01T09:10:27Z</time>
      </trkpt>
      <trkpt lat="50.07966" lon="5.29619">
        <ele>296</ele>
        <time>2000-01-01T09:10:37Z</time>
      </trkpt>
      <trkpt lat="50.07936" lon="5.2958">
        <ele>314</ele>
        <time>2000-01-01T09:10:47Z</time>
      </trkpt>
      <trkpt lat="50.07909" lon="5.29571">
        <ele>322</ele>
        <time>2000-01-01T09:10:57Z</time>
      </trkpt>
      <trkpt lat="50.07895" lon="5.29561">
        <ele>308.5</ele>
        <time>2000-01-01T09:11:07Z</time>
      </trkpt>
      <trkpt lat="50.07881" lon="5.29481">
        <ele>325</ele>
        <time>2000-01-01T09:11:17Z</time>
      </trkpt>
      <trkpt lat="50.07872" lon="5.29447">
        <ele>328</ele>
        <time>2000-01-01T09:11:27Z</time>
      </trkpt>
      <trkpt lat="50.0786" lon="5.29406">
        <ele>331</ele>
        <time>2000-01-01T09:11:37Z</time>
      </trkpt>
      <trkpt lat="50.0784" lon="5.29363">
        <ele>335</ele>
        <time>2000-01-01T09:11:47Z</time>
      </trkpt>
      <trkpt lat="50.07824" lon="5.29337">
        <ele>337</ele>
        <time>2000-01-01T09:11:57Z</time>
      </trkpt>
      <trkpt lat="50.07805" lon="5.29307">
        <ele>342</ele>
        <time>2000-01-01T09:12:07Z</time>
      </trkpt>
      <trkpt lat="50.07798" lon="5.2927">
        <ele>346</ele>
        <time>2000-01-01T09:12:17Z</time>
      </trkpt>
      <trkpt lat="50.07787" lon="5.29217">
        <ele>347</ele>
        <time>2000-01-01T09:12:27Z</time>
      </trkpt>
      <trkpt lat="50.07778" lon="5.29177">
        <ele>354</ele>
        <time>2000-01-01T09:12:37Z</time>
      </trkpt>
      <trkpt lat="50.07771" lon="5.29143">
        <ele>357</ele>
        <time>2000-01-01T09:12:47Z</time>
      </trkpt>
      <trkpt lat="50.07763" lon="5.29106">
        <ele>371</ele>
        <time>2000-01-01T09:12:57Z</time>
      </trkpt>
      <trkpt lat="50.07745" lon="5.29075">
        <ele>371</ele>
        <time>2000-01-01T09:13:07Z</time>
      </trkpt>
      <trkpt lat="50.07719" lon="5.29028">
        <ele>384</ele>
        <time>2000-01-01T09:13:17Z</time>
      </trkpt>
      <trkpt lat="50.07694" lon="5.29005">
        <ele>379</ele>
        <time>2000-01-01T09:13:27Z</time>
      </trkpt>
      <trkpt lat="50.07669" lon="5.28981">
        <ele>374</ele>
        <time>2000-01-01T09:13:37Z</time>
      </trkpt>
      <trkpt lat="50.07643" lon="5.28956">
        <ele>367</ele>
        <time>2000-01-01T09:13:47Z</time>
      </trkpt>
      <trkpt lat="50.07643" lon="5.28891">
        <ele>367</ele>
        <time>2000-01-01T09:13:57Z</time>
      </trkpt>
      <trkpt lat="50.07649" lon="5.28853">
        <ele>365</ele>
        <time>2000-01-01T09:14:07Z</time>
      </trkpt>
      <trkpt lat="50.07657" lon="5.28799">
        <ele>363</ele>
        <time>2000-01-01T09:14:17Z</time>
      </trkpt>
      <trkpt lat="50.07629" lon="5.2878">
        <ele>363</ele>
        <time>2000-01-01T09:14:27Z</time>
      </trkpt>
      <trkpt lat="50.07605" lon="5.28768">
        <ele>361</ele>
        <time>2000-01-01T09:14:37Z</time>
      </trkpt>
      <trkpt lat="50.0757" lon="5.28752">
        <ele>359</ele>
        <time>2000-01-01T09:14:47Z</time>
      </trkpt>
      <trkpt lat="50.07543" lon="5.28741">
        <ele>356</ele>
        <time>2000-01-01T09:14:57Z</time>
      </trkpt>
      <trkpt lat="50.07522" lon="5.28733">
        <ele>356</ele>
        <time>2000-01-01T09:15:07Z</time>
      </trkpt>
      <trkpt lat="50.07498" lon="5.28724">
        <ele>353</ele>
        <time>2000-01-01T09:15:17Z</time>
      </trkpt>
      <trkpt lat="50.07467" lon="5.28711">
        <ele>353</ele>
        <time>2000-01-01T09:15:27Z</time>
      </trkpt>
      <trkpt lat="50.07444" lon="5.2872">
        <ele>356</ele>
        <time>2000-01-01T09:15:37Z</time>
      </trkpt>
      <trkpt lat="50.07417" lon="5.2873">
        <ele>358</ele>
        <time>2000-01-01T09:15:47Z</time>
      </trkpt>
      <trkpt lat="50.07394" lon="5.28741">
        <ele>359</ele>
        <time>2000-01-01T09:15:57Z</time>
      </trkpt>
      <trkpt lat="50.07366" lon="5.28754">
        <ele>359</ele>
        <time>2000-01-01T09:16:07Z</time>
      </trkpt>
      <trkpt lat="50.07326" lon="5.2876">
        <ele>357</ele>
        <time>2000-01-01T09:16:17Z</time>
      </trkpt>
      <trkpt lat="50.07294" lon="5.28747">
        <ele>357</ele>
        <time>2000-01-01T09:16:27Z</time>
      </trkpt>
      <trkpt lat="50.07262" lon="5.28733">
        <ele>356</ele>
        <time>2000-01-01T09:16:37Z</time>
      </trkpt>
      <trkpt lat="50.07229" lon="5.28719">
        <ele>355</ele>
        <time>2000-01-01T09:16:47Z</time>
      </trkpt>
      <trkpt lat="50.07208" lon="5.2871">
        <ele>353</ele>
        <time>2000-01-01T09:16:57Z</time>
      </trkpt>
      <trkpt lat="50.07184" lon="5.287">
        <ele>350</ele>
        <time>2000-01-01T09:17:07Z</time>
      </trkpt>
      <trkpt lat="50.0716" lon="5.28681">
        <ele>348</ele>
        <time>2000-01-01T09:17:17Z</time>
      </trkpt>
      <trkpt lat="50.07139" lon="5.28666">
        <ele>348</ele>
        <time>2000-01-01T09:17:27Z</time>
      </trkpt>
      <trkpt lat="50.07117" lon="5.28649">
        <ele>349</ele>
        <time>2000-01-01T09:17:37Z</time>
      </trkpt>
      <trkpt lat="50.07097" lon="5.28625">
        <ele>347</ele>
        <time>2000-01-01T09:17:47Z</time>
      </trkpt>
      <trkpt lat="50.07065" lon="5.28589">
        <ele>346</ele>
        <time>2000-01-01T09:17:57Z</time>
      </trkpt>
      <trkpt lat="50.07038" lon="5.28581">
        <ele>344</ele>
        <time>2000-01-01T09:18:07Z</time>
      </trkpt>
      <trkpt lat="50.07017" lon="5.28574">
        <ele>342</ele>
        <time>2000-01-01T09:18:17Z</time>
      </trkpt>
      <trkpt lat="50.06994" lon="5.28568">
        <ele>341</ele>
        <time>2000-01-01T09:18:27Z</time>
      </trkpt>
      <trkpt lat="50.0697" lon="5.28556">
        <ele>342</ele>
        <time>2000-01-01T09:18:37Z</time>
      </trkpt>
      <trkpt lat="50.06941" lon="5.28542">
        <ele>343</ele>
        <time>2000-01-01T09:18:47Z</time>
      </trkpt>
      <trkpt lat="50.06909" lon="5.28547">
        <ele>343</ele>
        <time>2000-01-01T09:18:57Z</time>
      </trkpt>
      <trkpt lat="50.06876" lon="5.28552">
        <ele>343</ele>
        <time>2000-01-01T09:19:07Z</time>
      </trkpt>
      <trkpt lat="50.06844" lon="5.28557">
        <ele>347</ele>
        <time>2000-01-01T09:19:17Z</time>
      </trkpt>
      <trkpt lat="50.06811" lon="5.28562">
        <ele>349</ele>
        <time>2000-01-01T09:19:27Z</time>
      </trkpt>
      <trkpt lat="50.06797" lon="5.28512">
        <ele>351</ele>
        <time>2000-01-01T09:19:37Z</time>
      </trkpt>
      <trkpt lat="50.06784" lon="5.28486">
        <ele>352</ele>
        <time>2000-01-01T09:19:47Z</time>
      </trkpt>
      <trkpt lat="50.0676" lon="5.28455">
        <ele>351</ele>
        <time>2000-01-01T09:19:57Z</time>
      </trkpt>
      <trkpt lat="50.06736" lon="5.28424">
        <ele>350</ele>
        <time>2000-01-01T09:20:07Z</time>
      </trkpt>
      <trkpt lat="50.06717" lon="5.284">
        <ele>351</ele>
        <time>2000-01-01T09:20:17Z</time>
      </trkpt>
      <trkpt lat="50.06695" lon="5.28372">
        <ele>350</ele>
        <time>2000-01-01T09:20:27Z</time>
      </trkpt>
      <trkpt lat="50.06723" lon="5.28359">
        <ele>350</ele>
        <time>2000-01-01T09:20:37Z</time>
      </trkpt>
      <trkpt lat="50.06746" lon="5.28349">
        <ele>348</ele>
        <time>2000-01-01T09:20:47Z</time>
      </trkpt>
      <trkpt lat="50.06777" lon="5.28335">
        <ele>346</ele>
        <time>2000-01-01T09:20:57Z</time>
      </trkpt>
      <trkpt lat="50.068" lon="5.2832">
        <ele>346</ele>
        <time>2000-01-01T09:21:07Z</time>
      </trkpt>
      <trkpt lat="50.06832" lon="5.28299">
        <ele>341</ele>
        <time>2000-01-01T09:21:17Z</time>
      </trkpt>
      <trkpt lat="50.06859" lon="5.28299">
        <ele>339</ele>
        <time>2000-01-01T09:21:27Z</time>
      </trkpt>
      <trkpt lat="50.06883" lon="5.28302">
        <ele>339</ele>
        <time>2000-01-01T09:21:37Z</time>
      </trkpt>
      <trkpt lat="50.06913" lon="5.28305">
        <ele>340</ele>
        <time>2000-01-01T09:21:47Z</time>
      </trkpt>
      <trkpt lat="50.06939" lon="5.283">
        <ele>340</ele>
        <time>2000-01-01T09:21:57Z</time>
      </trkpt>
      <trkpt lat="50.06976" lon="5.28292">
        <ele>339</ele>
        <time>2000-01-01T09:22:07Z</time>
      </trkpt>
      <trkpt lat="50.06982" lon="5.28247">
        <ele>339</ele>
        <time>2000-01-01T09:22:17Z</time>
      </trkpt>
      <trkpt lat="50.06988" lon="5.28202">
        <ele>340</ele>
        <time>2000-01-01T09:22:27Z</time>
      </trkpt>
      <trkpt lat="50.06994" lon="5.28151">
        <ele>344</ele>
        <time>2000-01-01T09:22:37Z</time>
      </trkpt>
      <trkpt lat="50.06998" lon="5.28113">
        <ele>344</ele>
        <time>2000-01-01T09:22:47Z</time>
      </trkpt>
      <trkpt lat="50.07002" lon="5.28061">
        <ele>343</ele>
        <time>2000-01-01T09:22:57Z</time>
      </trkpt>
      <trkpt lat="50.06998" lon="5.28018">
        <ele>343</ele>
        <time>2000-01-01T09:23:07Z</time>
      </trkpt>
      <trkpt lat="50.06995" lon="5.27984">
        <ele>344</ele>
        <time>2000-01-01T09:23:17Z</time>
      </trkpt>
      <trkpt lat="50.06991" lon="5.27945">
        <ele>344</ele>
        <time>2000-01-01T09:23:27Z</time>
      </trkpt>
      <trkpt lat="50.06983" lon="5.27911">
        <ele>340</ele>
        <time>2000-01-01T09:23:37Z</time>
      </trkpt>
      <trkpt lat="50.06974" lon="5.27872">
        <ele>340</ele>
        <time>2000-01-01T09:23:47Z</time>
      </trkpt>
      <trkpt lat="50.06972" lon="5.2783">
        <ele>340</ele>
        <time>2000-01-01T09:23:57Z</time>
      </trkpt>
      <trkpt lat="50.06971" lon="5.27795">
        <ele>338</ele>
        <time>2000-01-01T09:24:07Z</time>
      </trkpt>
      <trkpt lat="50.06969" lon="5.27756">
        <ele>337</ele>
        <time>2000-01-01T09:24:17Z</time>
      </trkpt>
      <trkpt lat="50.06969" lon="5.27722">
        <ele>334</ele>
        <time>2000-01-01T09:24:27Z</time>
      </trkpt>
      <trkpt lat="50.06969" lon="5.27688">
        <ele>332</ele>
        <time>2000-01-01T09:24:37Z</time>
      </trkpt>
      <trkpt lat="50.06973" lon="5.27637">
        <ele>332</ele>
        <time>2000-01-01T09:24:47Z</time>
      </trkpt>
      <trkpt lat="50.06978" lon="5.27586">
        <ele>330</ele>
        <time>2000-01-01T09:24:57Z</time>
      </trkpt>
      <trkpt lat="50.06982" lon="5.27535">
        <ele>325</ele>
        <time>2000-01-01T09:25:07Z</time>
      </trkpt>
      <trkpt lat="50.06988" lon="5.27473">
        <ele>323</ele>
        <time>2000-01-01T09:25:17Z</time>
      </trkpt>
      <trkpt lat="50.07027" lon="5.27486">
        <ele>325</ele>
        <time>2000-01-01T09:25:27Z</time>
      </trkpt>
      <trkpt lat="50.07049" lon="5.27509">
        <ele>327</ele>
        <time>2000-01-01T09:25:37Z</time>
      </trkpt>
      <trkpt lat="50.07084" lon="5.27546">
        <ele>335</ele>
        <time>2000-01-01T09:25:47Z</time>
      </trkpt>
      <trkpt lat="50.07109" lon="5.27561">
        <ele>336</ele>
        <time>2000-01-01T09:25:57Z</time>
      </trkpt>
      <trkpt lat="50.07148" lon="5.27585">
        <ele>342</ele>
        <time>2000-01-01T09:26:07Z</time>
      </trkpt>
      <trkpt lat="50.07167" lon="5.27616">
        <ele>345</ele>
        <time>2000-01-01T09:26:17Z</time>
      </trkpt>
      <trkpt lat="50.07183" lon="5.27643">
        <ele>347</ele>
        <time>2000-01-01T09:26:27Z</time>
      </trkpt>
      <trkpt lat="50.07203" lon="5.27675">
        <ele>352</ele>
        <time>2000-01-01T09:26:37Z</time>
      </trkpt>
      <trkpt lat="50.07241" lon="5.27692">
        <ele>350</ele>
        <time>2000-01-01T09:26:47Z</time>
      </trkpt>
      <trkpt lat="50.07231" lon="5.27657">
        <ele>348</ele>
        <time>2000-01-01T09:26:57Z</time>
      </trkpt>
      <trkpt lat="50.07217" lon="5.2761">
        <ele>345</ele>
        <time>2000-01-01T09:27:07Z</time>
      </trkpt>
      <trkpt lat="50.07201" lon="5.2757">
        <ele>336</ele>
        <time>2000-01-01T09:27:17Z</time>
      </trkpt>
      <trkpt lat="50.07185" lon="5.27529">
        <ele>329</ele>
        <time>2000-01-01T09:27:27Z</time>
      </trkpt>
      <trkpt lat="50.07173" lon="5.27499">
        <ele>321</ele>
        <time>2000-01-01T09:27:37Z</time>
      </trkpt>
      <trkpt lat="50.07162" lon="5.27469">
        <ele>317</ele>
        <time>2000-01-01T09:27:47Z</time>
      </trkpt>
      <trkpt lat="50.07148" lon="5.27429">
        <ele>311</ele>
        <time>2000-01-01T09:27:57Z</time>
      </trkpt>
      <trkpt lat="50.07134" lon="5.27389">
        <ele>310</ele>
        <time>2000-01-01T09:28:07Z</time>
      </trkpt>
      <trkpt lat="50.0712" lon="5.27349">
        <ele>300</ele>
        <time>2000-01-01T09:28:17Z</time>
      </trkpt>
      <trkpt lat="50.0709" lon="5.27314">
        <ele>292</ele>
        <time>2000-01-01T09:28:27Z</time>
      </trkpt>
      <trkpt lat="50.07074" lon="5.27285">
        <ele>290</ele>
        <time>2000-01-01T09:28:37Z</time>
      </trkpt>
      <trkpt lat="50.07051" lon="5.27246">
        <ele>281</ele>
        <time>2000-01-01T09:28:47Z</time>
      </trkpt>
      <trkpt lat="50.07032" lon="5.2719">
        <ele>254</ele>
        <time>2000-01-01T09:28:57Z</time>
      </trkpt>
      <trkpt lat="50.0704" lon="5.2715">
        <ele>249</ele>
        <time>2000-01-01T09:29:07Z</time>
      </trkpt>
      <trkpt lat="50.07047" lon="5.27117">
        <ele>243</ele>
        <time>2000-01-01T09:29:17Z</time>
      </trkpt>
      <trkpt lat="50.07054" lon="5.27083">
        <ele>237</ele>
        <time>2000-01-01T09:29:27Z</time>
      </trkpt>
      <trkpt lat="50.07023" lon="5.2706">
        <ele>238</ele>
        <time>2000-01-01T09:29:37Z</time>
      </trkpt>
      <trkpt lat="50.06991" lon="5.27038">
        <ele>239</ele>
        <time>2000-01-01T09:29:47Z</time>
      </trkpt>
      <trkpt lat="50.0696" lon="5.27016">
        <ele>244</ele>
        <time>2000-01-01T09:29:57Z</time>
      </trkpt>
      <trkpt lat="50.06936" lon="5.26998">
        <ele>243</ele>
        <time>2000-01-01T09:30:07Z</time>
      </trkpt>
      <trkpt lat="50.06897" lon="5.26971">
        <ele>243</ele>
        <time>2000-01-01T09:30:17Z</time>
      </trkpt>
      <trkpt lat="50.06872" lon="5.2695">
        <ele>243</ele>
        <time>2000-01-01T09:30:27Z</time>
      </trkpt>
      <trkpt lat="50.06851" lon="5.26933">
        <ele>243</ele>
        <time>2000-01-01T09:30:37Z</time>
      </trkpt>
      <trkpt lat="50.06825" lon="5.26911">
        <ele>244</ele>
        <time>2000-01-01T09:30:47Z</time>
      </trkpt>
      <trkpt lat="50.06799" lon="5.26918">
        <ele>245</ele>
        <time>2000-01-01T09:30:57Z</time>
      </trkpt>
      <trkpt lat="50.06757" lon="5.26928">
        <ele>245</ele>
        <time>2000-01-01T09:31:07Z</time>
      </trkpt>
      <trkpt lat="50.06718" lon="5.26928">
        <ele>243</ele>
        <time>2000-01-01T09:31:17Z</time>
      </trkpt>
      <trkpt lat="50.06702" lon="5.26905">
        <ele>244</ele>
        <time>2000-01-01T09:31:27Z</time>
      </trkpt>
      <trkpt lat="50.06685" lon="5.26881">
        <ele>242</ele>
        <time>2000-01-01T09:31:37Z</time>
      </trkpt>
      <trkpt lat="50.06665" lon="5.26864">
        <ele>241</ele>
        <time>2000-01-01T09:31:47Z</time>
      </trkpt>
      <trkpt lat="50.06644" lon="5.26847">
        <ele>242</ele>
        <time>2000-01-01T09:31:57Z</time>
      </trkpt>
      <trkpt lat="50.06619" lon="5.26838">
        <ele>243</ele>
        <time>2000-01-01T09:32:07Z</time>
      </trkpt>
      <trkpt lat="50.06583" lon="5.26825">
        <ele>245</ele>
        <time>2000-01-01T09:32:17Z</time>
      </trkpt>
      <trkpt lat="50.06558" lon="5.26812">
        <ele>247</ele>
        <time>2000-01-01T09:32:27Z</time>
      </trkpt>
      <trkpt lat="50.06537" lon="5.26821">
        <ele>254</ele>
        <time>2000-01-01T09:32:37Z</time>
      </trkpt>
      <trkpt lat="50.06514" lon="5.26829">
        <ele>259</ele>
        <time>2000-01-01T09:32:47Z</time>
      </trkpt>
      <trkpt lat="50.06491" lon="5.26835">
        <ele>259</ele>
        <time>2000-01-01T09:32:57Z</time>
      </trkpt>
      <trkpt lat="50.06465" lon="5.26842">
        <ele>262</ele>
        <time>2000-01-01T09:33:07Z</time>
      </trkpt>
      <trkpt lat="50.0644" lon="5.26846">
        <ele>262</ele>
        <time>2000-01-01T09:33:17Z</time>
      </trkpt>
      <trkpt lat="50.0641" lon="5.26851">
        <ele>279</ele>
        <time>2000-01-01T09:33:27Z</time>
      </trkpt>
      <trkpt lat="50.0638" lon="5.26852">
        <ele>280</ele>
        <time>2000-01-01T09:33:37Z</time>
      </trkpt>
      <trkpt lat="50.0635" lon="5.26854">
        <ele>280</ele>
        <time>2000-01-01T09:33:47Z</time>
      </trkpt>
      <trkpt lat="50.06316" lon="5.26855">
        <ele>278</ele>
        <time>2000-01-01T09:33:57Z</time>
      </trkpt>
      <trkpt lat="50.06286" lon="5.26834">
        <ele>279</ele>
        <time>2000-01-01T09:34:07Z</time>
      </trkpt>
      <trkpt lat="50.06265" lon="5.26823">
        <ele>277</ele>
        <time>2000-01-01T09:34:17Z</time>
      </trkpt>
      <trkpt lat="50.06244" lon="5.26812">
        <ele>278</ele>
        <time>2000-01-01T09:34:27Z</time>
      </trkpt>
      <trkpt lat="50.0622" lon="5.26795">
        <ele>279</ele>
        <time>2000-01-01T09:34:37Z</time>
      </trkpt>
      <trkpt lat="50.06184" lon="5.26769">
        <ele>291</ele>
        <time>2000-01-01T09:34:47Z</time>
      </trkpt>
      <trkpt lat="50.06161" lon="5.26756">
        <ele>291</ele>
        <time>2000-01-01T09:34:57Z</time>
      </trkpt>
      <trkpt lat="50.06131" lon="5.26739">
        <ele>294</ele>
        <time>2000-01-01T09:35:07Z</time>
      </trkpt>
      <trkpt lat="50.06107" lon="5.26736">
        <ele>296</ele>
        <time>2000-01-01T09:35:17Z</time>
      </trkpt>
      <trkpt lat="50.06076" lon="5.26731">
        <ele>296</ele>
        <time>2000-01-01T09:35:27Z</time>
      </trkpt>
      <trkpt lat="50.06052" lon="5.26722">
        <ele>296</ele>
        <time>2000-01-01T09:35:37Z</time>
      </trkpt>
      <trkpt lat="50.06021" lon="5.26709">
        <ele>296</ele>
        <time>2000-01-01T09:35:47Z</time>
      </trkpt>
      <trkpt lat="50.06" lon="5.26699">
        <ele>302</ele>
        <time>2000-01-01T09:35:57Z</time>
      </trkpt>
      <trkpt lat="50.0598" lon="5.26688">
        <ele>303</ele>
        <time>2000-01-01T09:36:07Z</time>
      </trkpt>
      <trkpt lat="50.05957" lon="5.26671">
        <ele>307</ele>
        <time>2000-01-01T09:36:17Z</time>
      </trkpt>
      <trkpt lat="50.05927" lon="5.26649">
        <ele>309</ele>
        <time>2000-01-01T09:36:27Z</time>
      </trkpt>
      <trkpt lat="50.05906" lon="5.26644">
        <ele>315</ele>
        <time>2000-01-01T09:36:37Z</time>
      </trkpt>
      <trkpt lat="50.05884" lon="5.26638">
        <ele>315</ele>
        <time>2000-01-01T09:36:47Z</time>
      </trkpt>
      <trkpt lat="50.05857" lon="5.26601">
        <ele>315</ele>
        <time>2000-01-01T09:36:57Z</time>
      </trkpt>
      <trkpt lat="50.0584" lon="5.26578">
        <ele>315</ele>
        <time>2000-01-01T09:37:07Z</time>
      </trkpt>
      <trkpt lat="50.05822" lon="5.26554">
        <ele>318</ele>
        <time>2000-01-01T09:37:17Z</time>
      </trkpt>
      <trkpt lat="50.05798" lon="5.26526">
        <ele>319</ele>
        <time>2000-01-01T09:37:27Z</time>
      </trkpt>
      <trkpt lat="50.05768" lon="5.26496">
        <ele>320</ele>
        <time>2000-01-01T09:37:37Z</time>
      </trkpt>
      <trkpt lat="50.05738" lon="5.26467">
        <ele>320</ele>
        <time>2000-01-01T09:37:47Z</time>
      </trkpt>
      <trkpt lat="50.05708" lon="5.26437">
        <ele>320</ele>
        <time>2000-01-01T09:37:57Z</time>
      </trkpt>
      <trkpt lat="50.05678" lon="5.26407">
        <ele>320</ele>
        <time>2000-01-01T09:38:07Z</time>
      </trkpt>
      <trkpt lat="50.05657" lon="5.26387">
        <ele>320</ele>
        <time>2000-01-01T09:38:17Z</time>
      </trkpt>
      <trkpt lat="50.0563" lon="5.2636">
        <ele>317</ele>
        <time>2000-01-01T09:38:27Z</time>
      </trkpt>
      <trkpt lat="50.05616" lon="5.26343">
        <ele>315</ele>
        <time>2000-01-01T09:38:37Z</time>
      </trkpt>
      <trkpt lat="50.05609" lon="5.26306">
        <ele>315</ele>
        <time>2000-01-01T09:38:47Z</time>
      </trkpt>
      <trkpt lat="50.05598" lon="5.26253">
        <ele>315</ele>
        <time>2000-01-01T09:38:57Z</time>
      </trkpt>
      <trkpt lat="50.05589" lon="5.26217">
        <ele>315</ele>
        <time>2000-01-01T09:39:07Z</time>
      </trkpt>
      <trkpt lat="50.05578" lon="5.2617">
        <ele>314</ele>
        <time>2000-01-01T09:39:17Z</time>
      </trkpt>
      <trkpt lat="50.05614" lon="5.26146">
        <ele>310</ele>
        <time>2000-01-01T09:39:27Z</time>
      </trkpt>
      <trkpt lat="50.05635" lon="5.26115">
        <ele>308</ele>
        <time>2000-01-01T09:39:37Z</time>
      </trkpt>
      <trkpt lat="50.05652" lon="5.26072">
        <ele>307</ele>
        <time>2000-01-01T09:39:47Z</time>
      </trkpt>
      <trkpt lat="50.05668" lon="5.2601">
        <ele>297</ele>
        <time>2000-01-01T09:39:57Z</time>
      </trkpt>
      <trkpt lat="50.05671" lon="5.25976">
        <ele>297</ele>
        <time>2000-01-01T09:40:07Z</time>
      </trkpt>
      <trkpt lat="50.05674" lon="5.25938">
        <ele>297</ele>
        <time>2000-01-01T09:40:17Z</time>
      </trkpt>
      <trkpt lat="50.05694" lon="5.25888">
        <ele>300</ele>
        <time>2000-01-01T09:40:27Z</time>
      </trkpt>
      <trkpt lat="50.05697" lon="5.25874">
        <ele>298.8</ele>
        <time>2000-01-01T09:40:37Z</time>
      </trkpt>
      <trkpt lat="50.05696" lon="5.25851">
        <ele>300</ele>
        <time>2000-01-01T09:40:47Z</time>
      </trkpt>
      <trkpt lat="50.05685" lon="5.2583">
        <ele>296.7</ele>
        <time>2000-01-01T09:40:57Z</time>
      </trkpt>
      <trkpt lat="50.05653" lon="5.25783">
        <ele>300</ele>
        <time>2000-01-01T09:41:07Z</time>
      </trkpt>
      <trkpt lat="50.05627" lon="5.25752">
        <ele>300</ele>
        <time>2000-01-01T09:41:17Z</time>
      </trkpt>
      <trkpt lat="50.05601" lon="5.25722">
        <ele>289</ele>
        <time>2000-01-01T09:41:27Z</time>
      </trkpt>
      <trkpt lat="50.05575" lon="5.25691">
        <ele>289</ele>
        <time>2000-01-01T09:41:37Z</time>
      </trkpt>
      <trkpt lat="50.05546" lon="5.25658">
        <ele>275</ele>
        <time>2000-01-01T09:41:47Z</time>
      </trkpt>
      <trkpt lat="50.05523" lon="5.25627">
        <ele>268</ele>
        <time>2000-01-01T09:41:57Z</time>
      </trkpt>
      <trkpt lat="50.055" lon="5.25595">
        <ele>270</ele>
        <time>2000-01-01T09:42:07Z</time>
      </trkpt>
      <trkpt lat="50.05483" lon="5.25572">
        <ele>260</ele>
        <time>2000-01-01T09:42:17Z</time>
      </trkpt>
      <trkpt lat="50.05466" lon="5.25548">
        <ele>256</ele>
        <time>2000-01-01T09:42:27Z</time>
      </trkpt>
      <trkpt lat="50.05449" lon="5.25518">
        <ele>255</ele>
        <time>2000-01-01T09:42:37Z</time>
      </trkpt>
      <trkpt lat="50.05424" lon="5.25475">
        <ele>255</ele>
        <time>2000-01-01T09:42:47Z</time>
      </trkpt>
      <trkpt lat="50.05408" lon="5.25432">
        <ele>255</ele>
        <time>2000-01-01T09:42:57Z</time>
      </trkpt>
      <trkpt lat="50.05406" lon="5.25412">
        <ele>256.3</ele>
        <time>2000-01-01T09:43:07Z</time>
      </trkpt>
      <trkpt lat="50.05406" lon="5.25374">
        <ele>255</ele>
        <time>2000-01-01T09:43:17Z</time>
      </trkpt>
      <trkpt lat="50.05402" lon="5.25333">
        <ele>255</ele>
        <time>2000-01-01T09:43:27Z</time>
      </trkpt>
      <trkpt lat="50.05387" lon="5.25299">
        <ele>254</ele>
        <time>2000-01-01T09:43:37Z</time>
      </trkpt>
      <trkpt lat="50.05364" lon="5.25246">
        <ele>254</ele>
        <time>2000-01-01T09:43:47Z</time>
      </trkpt>
      <trkpt lat="50.05357" lon="5.25197">
        <ele>254</ele>
        <time>2000-01-01T09:43:57Z</time>
      </trkpt>
      <trkpt lat="50.05353" lon="5.25187">
        <ele>258</ele>
        <time>2000-01-01T09:44:07Z</time>
      </trkpt>
      <trkpt lat="50.05353" lon="5.25168">
        <ele>253</ele>
        <time>2000-01-01T09:44:17Z</time>
      </trkpt>
      <trkpt lat="50.05348" lon="5.25131">
        <ele>253</ele>
        <time>2000-01-01T09:44:27Z</time>
      </trkpt>
      <trkpt lat="50.05341" lon="5.25104">
        <ele>253</ele>
        <time>2000-01-01T09:44:37Z</time>
      </trkpt>
      <trkpt lat="50.05329" lon="5.25068">
        <ele>253</ele>
        <time>2000-01-01T09:44:47Z</time>
      </trkpt>
      <trkpt lat="50.05311" lon="5.25025">
        <ele>254</ele>
        <time>2000-01-01T09:44:57Z</time>
      </trkpt>
      <trkpt lat="50.05292" lon="5.24982">
        <ele>257</ele>
        <time>2000-01-01T09:45:07Z</time>
      </trkpt>
      <trkpt lat="50.05273" lon="5.24939">
        <ele>261</ele>
        <time>2000-01-01T09:45:17Z</time>
      </trkpt>
      <trkpt lat="50.05261" lon="5.24911">
        <ele>261</ele>
        <time>2000-01-01T09:45:27Z</time>
      </trkpt>
      <trkpt lat="50.05249" lon="5.24882">
        <ele>260</ele>
        <time>2000-01-01T09:45:37Z</time>
      </trkpt>
      <trkpt lat="50.0523" lon="5.24843">
        <ele>260</ele>
        <time>2000-01-01T09:45:47Z</time>
      </trkpt>
      <trkpt lat="50.05212" lon="5.24804">
        <ele>260</ele>
        <time>2000-01-01T09:45:57Z</time>
      </trkpt>
      <trkpt lat="50.05199" lon="5.24776">
        <ele>261</ele>
        <time>2000-01-01T09:46:07Z</time>
      </trkpt>
      <trkpt lat="50.05185" lon="5.24746">
        <ele>268</ele>
        <time>2000-01-01T09:46:17Z</time>
      </trkpt>
      <trkpt lat="50.05159" lon="5.24713">
        <ele>268</ele>
        <time>2000-01-01T09:46:27Z</time>
      </trkpt>
      <trkpt lat="50.05133" lon="5.2468">
        <ele>268</ele>
        <time>2000-01-01T09:46:37Z</time>
      </trkpt>
      <trkpt lat="50.05107" lon="5.24647">
        <ele>267</ele>
        <time>2000-01-01T09:46:47Z</time>
      </trkpt>
      <trkpt lat="50.05089" lon="5.24625">
        <ele>267</ele>
        <time>2000-01-01T09:46:57Z</time>
      </trkpt>
      <trkpt lat="50.0507" lon="5.246">
        <ele>267</ele>
        <time>2000-01-01T09:47:07Z</time>
      </trkpt>
      <trkpt lat="50.05042" lon="5.24572">
        <ele>275</ele>
        <time>2000-01-01T09:47:17Z</time>
      </trkpt>
      <trkpt lat="50.05013" lon="5.24543">
        <ele>276</ele>
        <time>2000-01-01T09:47:27Z</time>
      </trkpt>
      <trkpt lat="50.04985" lon="5.24514">
        <ele>282</ele>
        <time>2000-01-01T09:47:37Z</time>
      </trkpt>
      <trkpt lat="50.04965" lon="5.24494">
        <ele>282</ele>
        <time>2000-01-01T09:47:47Z</time>
      </trkpt>
      <trkpt lat="50.04941" lon="5.2447">
        <ele>281</ele>
        <time>2000-01-01T09:47:57Z</time>
      </trkpt>
      <trkpt lat="50.04921" lon="5.2445">
        <ele>276</ele>
        <time>2000-01-01T09:48:07Z</time>
      </trkpt>
      <trkpt lat="50.04895" lon="5.24426">
        <ele>276</ele>
        <time>2000-01-01T09:48:17Z</time>
      </trkpt>
      <trkpt lat="50.04882" lon="5.24382">
        <ele>278</ele>
        <time>2000-01-01T09:48:27Z</time>
      </trkpt>
      <trkpt lat="50.04865" lon="5.24351">
        <ele>278</ele>
        <time>2000-01-01T09:48:37Z</time>
      </trkpt>
      <trkpt lat="50.04845" lon="5.24323">
        <ele>286</ele>
        <time>2000-01-01T09:48:47Z</time>
      </trkpt>
      <trkpt lat="50.04825" lon="5.243">
        <ele>288</ele>
        <time>2000-01-01T09:48:57Z</time>
      </trkpt>
      <trkpt lat="50.04799" lon="5.2427">
        <ele>288</ele>
        <time>2000-01-01T09:49:07Z</time>
      </trkpt>
      <trkpt lat="50.04765" lon="5.24241">
        <ele>289</ele>
        <time>2000-01-01T09:49:17Z</time>
      </trkpt>
      <trkpt lat="50.04728" lon="5.24214">
        <ele>294</ele>
        <time>2000-01-01T09:49:27Z</time>
      </trkpt>
      <trkpt lat="50.04708" lon="5.24194">
        <ele>294</ele>
        <time>2000-01-01T09:49:37Z</time>
      </trkpt>
      <trkpt lat="50.04681" lon="5.24169">
        <ele>295</ele>
        <time>2000-01-01T09:49:47Z</time>
      </trkpt>
      <trkpt lat="50.04653" lon="5.24139">
        <ele>297</ele>
        <time>2000-01-01T09:49:57Z</time>
      </trkpt>
      <trkpt lat="50.04624" lon="5.24108">
        <ele>299</ele>
        <time>2000-01-01T09:50:07Z</time>
      </trkpt>
      <trkpt lat="50.04596" lon="5.24077">
        <ele>299</ele>
        <time>2000-01-01T09:50:17Z</time>
      </trkpt>
      <trkpt lat="50.04567" lon="5.24046">
        <ele>299</ele>
        <time>2000-01-01T09:50:27Z</time>
      </trkpt>
      <trkpt lat="50.04535" lon="5.24013">
        <ele>299</ele>
        <time>2000-01-01T09:50:37Z</time>
      </trkpt>
      <trkpt lat="50.04516" lon="5.23988">
        <ele>304</ele>
        <time>2000-01-01T09:50:47Z</time>
      </trkpt>
      <trkpt lat="50.04492" lon="5.23957">
        <ele>302</ele>
        <time>2000-01-01T09:50:57Z</time>
      </trkpt>
      <trkpt lat="50.04463" lon="5.23931">
        <ele>303</ele>
        <time>2000-01-01T09:51:07Z</time>
      </trkpt>
      <trkpt lat="50.04434" lon="5.23905">
        <ele>303</ele>
        <time>2000-01-01T09:51:17Z</time>
      </trkpt>
      <trkpt lat="50.04405" lon="5.2388">
        <ele>303</ele>
        <time>2000-01-01T09:51:27Z</time>
      </trkpt>
      <trkpt lat="50.04386" lon="5.23863">
        <ele>303</ele>
        <time>2000-01-01T09:51:37Z</time>
      </trkpt>
      <trkpt lat="50.04366" lon="5.23845">
        <ele>302</ele>
        <time>2000-01-01T09:51:47Z</time>
      </trkpt>
      <trkpt lat="50.04346" lon="5.23825">
        <ele>302</ele>
        <time>2000-01-01T09:51:57Z</time>
      </trkpt>
      <trkpt lat="50.04319" lon="5.23799">
        <ele>302</ele>
        <time>2000-01-01T09:52:07Z</time>
      </trkpt>
      <trkpt lat="50.04292" lon="5.23789">
        <ele>301</ele>
        <time>2000-01-01T09:52:17Z</time>
      </trkpt>
      <trkpt lat="50.0427" lon="5.2378">
        <ele>301</ele>
        <time>2000-01-01T09:52:27Z</time>
      </trkpt>
      <trkpt lat="50.04246" lon="5.2377">
        <ele>308</ele>
        <time>2000-01-01T09:52:37Z</time>
      </trkpt>
      <trkpt lat="50.04222" lon="5.23764">
        <ele>316</ele>
        <time>2000-01-01T09:52:47Z</time>
      </trkpt>
      <trkpt lat="50.04192" lon="5.23757">
        <ele>314</ele>
        <time>2000-01-01T09:52:57Z</time>
      </trkpt>
      <trkpt lat="50.04166" lon="5.23756">
        <ele>314</ele>
        <time>2000-01-01T09:53:07Z</time>
      </trkpt>
      <trkpt lat="50.04128" lon="5.23755">
        <ele>314</ele>
        <time>2000-01-01T09:53:17Z</time>
      </trkpt>
      <trkpt lat="50.041" lon="5.23751">
        <ele>313</ele>
        <time>2000-01-01T09:53:27Z</time>
      </trkpt>
      <trkpt lat="50.04076" lon="5.23748">
        <ele>313</ele>
        <time>2000-01-01T09:53:37Z</time>
      </trkpt>
      <trkpt lat="50.04045" lon="5.23743">
        <ele>314</ele>
        <time>2000-01-01T09:53:47Z</time>
      </trkpt>
      <trkpt lat="50.04021" lon="5.2373">
        <ele>314</ele>
        <time>2000-01-01T09:53:57Z</time>
      </trkpt>
      <trkpt lat="50.03998" lon="5.23724">
        <ele>315</ele>
        <time>2000-01-01T09:54:07Z</time>
      </trkpt>
      <trkpt lat="50.03961" lon="5.2373">
        <ele>314</ele>
        <time>2000-01-01T09:54:17Z</time>
      </trkpt>
      <trkpt lat="50.03943" lon="5.23742">
        <ele>313</ele>
        <time>2000-01-01T09:54:27Z</time>
      </trkpt>
      <trkpt lat="50.03931" lon="5.23753">
        <ele>308.1</ele>
        <time>2000-01-01T09:54:37Z</time>
      </trkpt>
      <trkpt lat="50.03918" lon="5.23769">
        <ele>310</ele>
        <time>2000-01-01T09:54:47Z</time>
      </trkpt>
      <trkpt lat="50.03894" lon="5.23783">
        <ele>308</ele>
        <time>2000-01-01T09:54:57Z</time>
      </trkpt>
      <trkpt lat="50.03879" lon="5.23788">
        <ele>305.2</ele>
        <time>2000-01-01T09:55:07Z</time>
      </trkpt>
      <trkpt lat="50.03863" lon="5.23784">
        <ele>309</ele>
        <time>2000-01-01T09:55:17Z</time>
      </trkpt>
      <trkpt lat="50.03846" lon="5.2377">
        <ele>311</ele>
        <time>2000-01-01T09:55:27Z</time>
      </trkpt>
      <trkpt lat="50.03833" lon="5.23752">
        <ele>311</ele>
        <time>2000-01-01T09:55:37Z</time>
      </trkpt>
      <trkpt lat="50.03813" lon="5.23739">
        <ele>307</ele>
        <time>2000-01-01T09:55:47Z</time>
      </trkpt>
      <trkpt lat="50.03783" lon="5.23742">
        <ele>305</ele>
        <time>2000-01-01T09:55:57Z</time>
      </trkpt>
      <trkpt lat="50.03759" lon="5.23733">
        <ele>305</ele>
        <time>2000-01-01T09:56:07Z</time>
      </trkpt>
      <trkpt lat="50.03732" lon="5.23734">
        <ele>305</ele>
        <time>2000-01-01T09:56:17Z</time>
      </trkpt>
      <trkpt lat="50.03698" lon="5.23721">
        <ele>306</ele>
        <time>2000-01-01T09:56:27Z</time>
      </trkpt>
      <trkpt lat="50.03672" lon="5.23718">
        <ele>306</ele>
        <time>2000-01-01T09:56:37Z</time>
      </trkpt>
      <trkpt lat="50.03639" lon="5.23728">
        <ele>307</ele>
        <time>2000-01-01T09:56:47Z</time>
      </trkpt>
      <trkpt lat="50.03617" lon="5.2373">
        <ele>313</ele>
        <time>2000-01-01T09:56:57Z</time>
      </trkpt>
      <trkpt lat="50.03594" lon="5.23733">
        <ele>320</ele>
        <time>2000-01-01T09:57:07Z</time>
      </trkpt>
      <trkpt lat="50.03602" lon="5.237">
        <ele>320</ele>
        <time>2000-01-01T09:57:17Z</time>
      </trkpt>
      <trkpt lat="50.03613" lon="5.23666">
        <ele>330</ele>
        <time>2000-01-01T09:57:27Z</time>
      </trkpt>
      <trkpt lat="50.03629" lon="5.23619">
        <ele>331</ele>
        <time>2000-01-01T09:57:37Z</time>
      </trkpt>
      <trkpt lat="50.03643" lon="5.23589">
        <ele>329</ele>
        <time>2000-01-01T09:57:47Z</time>
      </trkpt>
      <trkpt lat="50.03661" lon="5.23552">
        <ele>327</ele>
        <time>2000-01-01T09:57:57Z</time>
      </trkpt>
      <trkpt lat="50.03666" lon="5.23531">
        <ele>330.9</ele>
        <time>2000-01-01T09:58:07Z</time>
      </trkpt>
      <trkpt lat="50.03666" lon="5.23501">
        <ele>330</ele>
        <time>2000-01-01T09:58:17Z</time>
      </trkpt>
      <trkpt lat="50.0366" lon="5.23464">
        <ele>330</ele>
        <time>2000-01-01T09:58:27Z</time>
      </trkpt>
      <trkpt lat="50.0365" lon="5.23427">
        <ele>329</ele>
        <time>2000-01-01T09:58:37Z</time>
      </trkpt>
      <trkpt lat="50.03636" lon="5.23374">
        <ele>330</ele>
        <time>2000-01-01T09:58:47Z</time>
      </trkpt>
      <trkpt lat="50.03625" lon="5.23323">
        <ele>328</ele>
        <time>2000-01-01T09:58:57Z</time>
      </trkpt>
      <trkpt lat="50.03621" lon="5.23279">
        <ele>327</ele>
        <time>2000-01-01T09:59:07Z</time>
      </trkpt>
      <trkpt lat="50.03618" lon="5.23242">
        <ele>325</ele>
        <time>2000-01-01T09:59:17Z</time>
      </trkpt>
      <trkpt lat="50.03614" lon="5.23196">
        <ele>324</ele>
        <time>2000-01-01T09:59:27Z</time>
      </trkpt>
      <trkpt lat="50.03604" lon="5.23139">
        <ele>324</ele>
        <time>2000-01-01T09:59:37Z</time>
      </trkpt>
      <trkpt lat="50.03595" lon="5.23101">
        <ele>321</ele>
        <time>2000-01-01T09:59:47Z</time>
      </trkpt>
      <trkpt lat="50.03582" lon="5.23069">
        <ele>321</ele>
        <time>2000-01-01T09:59:57Z</time>
      </trkpt>
      <trkpt lat="50.03563" lon="5.2303">
        <ele>322</ele>
        <time>2000-01-01T10:00:07Z</time>
      </trkpt>
      <trkpt lat="50.03545" lon="5.23">
        <ele>325</ele>
        <time>2000-01-01T10:00:17Z</time>
      </trkpt>
      <trkpt lat="50.0353" lon="5.22975">
        <ele>328</ele>
        <time>2000-01-01T10:00:27Z</time>
      </trkpt>
      <trkpt lat="50.03515" lon="5.2295">
        <ele>330</ele>
        <time>2000-01-01T10:00:37Z</time>
      </trkpt>
      <trkpt lat="50.035" lon="5.22923">
        <ele>331</ele>
        <time>2000-01-01T10:00:47Z</time>
      </trkpt>
      <trkpt lat="50.03483" lon="5.2291">
        <ele>331</ele>
        <time>2000-01-01T10:00:57Z</time>
      </trkpt>
      <trkpt lat="50.03465" lon="5.22904">
        <ele>331</ele>
        <time>2000-01-01T10:01:07Z</time>
      </trkpt>
      <trkpt lat="50.03445" lon="5.2291">
        <ele>336</ele>
        <time>2000-01-01T10:01:17Z</time>
      </trkpt>
      <trkpt lat="50.03412" lon="5.22944">
        <ele>342</ele>
        <time>2000-01-01T10:01:27Z</time>
      </trkpt>
      <trkpt lat="50.03379" lon="5.22974">
        <ele>352</ele>
        <time>2000-01-01T10:01:37Z</time>
      </trkpt>
      <trkpt lat="50.0334" lon="5.23">
        <ele>356</ele>
        <time>2000-01-01T10:01:47Z</time>
      </trkpt>
      <trkpt lat="50.03327" lon="5.23">
        <ele>358.7</ele>
        <time>2000-01-01T10:01:57Z</time>
      </trkpt>
      <trkpt lat="50.03318" lon="5.22993">
        <ele>361</ele>
        <time>2000-01-01T10:02:07Z</time>
      </trkpt>
      <trkpt lat="50.0331" lon="5.22983">
        <ele>359.9</ele>
        <time>2000-01-01T10:02:17Z</time>
      </trkpt>
      <trkpt lat="50.0329" lon="5.2292">
        <ele>358</ele>
        <time>2000-01-01T10:02:27Z</time>
      </trkpt>
      <trkpt lat="50.03274" lon="5.22878">
        <ele>359</ele>
        <time>2000-01-01T10:02:37Z</time>
      </trkpt>
      <trkpt lat="50.03256" lon="5.22843">
        <ele>361</ele>
        <time>2000-01-01T10:02:47Z</time>
      </trkpt>
      <trkpt lat="50.03242" lon="5.2283">
        <ele>360</ele>
        <time>2000-01-01T10:02:57Z</time>
      </trkpt>
      <trkpt lat="50.03224" lon="5.22822">
        <ele>365</ele>
        <time>2000-01-01T10:03:07Z</time>
      </trkpt>
      <trkpt lat="50.03196" lon="5.2282">
        <ele>365</ele>
        <time>2000-01-01T10:03:17Z</time>
      </trkpt>
      <trkpt lat="50.03164" lon="5.22819">
        <ele>365</ele>
        <time>2000-01-01T10:03:27Z</time>
      </trkpt>
      <trkpt lat="50.03132" lon="5.22819">
        <ele>365</ele>
        <time>2000-01-01T10:03:37Z</time>
      </trkpt>
      <trkpt lat="50.03107" lon="5.22818">
        <ele>366</ele>
        <time>2000-01-01T10:03:47Z</time>
      </trkpt>
      <trkpt lat="50.03071" lon="5.22817">
        <ele>368</ele>
        <time>2000-01-01T10:03:57Z</time>
      </trkpt>
      <trkpt lat="50.03055" lon="5.22809">
        <ele>370</ele>
        <time>2000-01-01T10:04:07Z</time>
      </trkpt>
      <trkpt lat="50.03045" lon="5.22798">
        <ele>373.3</ele>
        <time>2000-01-01T10:04:17Z</time>
      </trkpt>
      <trkpt lat="50.03034" lon="5.22772">
        <ele>376</ele>
        <time>2000-01-01T10:04:27Z</time>
      </trkpt>
      <trkpt lat="50.03024" lon="5.22739">
        <ele>378</ele>
        <time>2000-01-01T10:04:37Z</time>
      </trkpt>
      <trkpt lat="50.03012" lon="5.22699">
        <ele>378</ele>
        <time>2000-01-01T10:04:47Z</time>
      </trkpt>
      <trkpt lat="50.03003" lon="5.22665">
        <ele>377</ele>
        <time>2000-01-01T10:04:57Z</time>
      </trkpt>
      <trkpt lat="50.02992" lon="5.22624">
        <ele>370</ele>
        <time>2000-01-01T10:05:07Z</time>
      </trkpt>
      <trkpt lat="50.02984" lon="5.22586">
        <ele>368</ele>
        <time>2000-01-01T10:05:17Z</time>
      </trkpt>
      <trkpt lat="50.0297" lon="5.22526">
        <ele>366</ele>
        <time>2000-01-01T10:05:27Z</time>
      </trkpt>
      <trkpt lat="50.02966" lon="5.22491">
        <ele>367</ele>
        <time>2000-01-01T10:05:37Z</time>
      </trkpt>
      <trkpt lat="50.02962" lon="5.22455">
        <ele>368</ele>
        <time>2000-01-01T10:05:47Z</time>
      </trkpt>
      <trkpt lat="50.02959" lon="5.22415">
        <ele>366</ele>
        <time>2000-01-01T10:05:57Z</time>
      </trkpt>
      <trkpt lat="50.02955" lon="5.22358">
        <ele>365</ele>
        <time>2000-01-01T10:06:07Z</time>
      </trkpt>
      <trkpt lat="50.02952" lon="5.22323">
        <ele>361</ele>
        <time>2000-01-01T10:06:17Z</time>
      </trkpt>
      <trkpt lat="50.0295" lon="5.22283">
        <ele>355</ele>
        <time>2000-01-01T10:06:27Z</time>
      </trkpt>
      <trkpt lat="50.02948" lon="5.22221">
        <ele>354</ele>
        <time>2000-01-01T10:06:37Z</time>
      </trkpt>
      <trkpt lat="50.02943" lon="5.22169">
        <ele>349</ele>
        <time>2000-01-01T10:06:47Z</time>
      </trkpt>
      <trkpt lat="50.02932" lon="5.22122">
        <ele>347</ele>
        <time>2000-01-01T10:06:57Z</time>
      </trkpt>
      <trkpt lat="50.02922" lon="5.2209">
        <ele>344</ele>
        <time>2000-01-01T10:07:07Z</time>
      </trkpt>
      <trkpt lat="50.0291" lon="5.22051">
        <ele>344</ele>
        <time>2000-01-01T10:07:17Z</time>
      </trkpt>
      <trkpt lat="50.0291" lon="5.22037">
        <ele>354.4</ele>
        <time>2000-01-01T10:07:27Z</time>
      </trkpt>
      <trkpt lat="50.02915" lon="5.22025">
        <ele>344</ele>
        <time>2000-01-01T10:07:37Z</time>
      </trkpt>
      <trkpt lat="50.02923" lon="5.22018">
        <ele>352</ele>
        <time>2000-01-01T10:07:47Z</time>
      </trkpt>
      <trkpt lat="50.02954" lon="5.22004">
        <ele>344</ele>
        <time>2000-01-01T10:07:57Z</time>
      </trkpt>
      <trkpt lat="50.02973" lon="5.21983">
        <ele>353</ele>
        <time>2000-01-01T10:08:07Z</time>
      </trkpt>
      <trkpt lat="50.0298" lon="5.21966">
        <ele>351.3</ele>
        <time>2000-01-01T10:08:17Z</time>
      </trkpt>
      <trkpt lat="50.02984" lon="5.21938">
        <ele>359</ele>
        <time>2000-01-01T10:08:27Z</time>
      </trkpt>
      <trkpt lat="50.02981" lon="5.21898">
        <ele>359</ele>
        <time>2000-01-01T10:08:37Z</time>
      </trkpt>
      <trkpt lat="50.02975" lon="5.21837">
        <ele>365</ele>
        <time>2000-01-01T10:08:47Z</time>
      </trkpt>
      <trkpt lat="50.0297" lon="5.21801">
        <ele>367</ele>
        <time>2000-01-01T10:08:57Z</time>
      </trkpt>
      <trkpt lat="50.02965" lon="5.21757">
        <ele>364</ele>
        <time>2000-01-01T10:09:07Z</time>
      </trkpt>
      <trkpt lat="50.02954" lon="5.21704">
        <ele>364</ele>
        <time>2000-01-01T10:09:17Z</time>
      </trkpt>
      <trkpt lat="50.0294" lon="5.21659">
        <ele>364</ele>
        <time>2000-01-01T10:09:27Z</time>
      </trkpt>
      <trkpt lat="50.02922" lon="5.21633">
        <ele>364</ele>
        <time>2000-01-01T10:09:37Z</time>
      </trkpt>
      <trkpt lat="50.02897" lon="5.21622">
        <ele>365</ele>
        <time>2000-01-01T10:09:47Z</time>
      </trkpt>
      <trkpt lat="50.02865" lon="5.21622">
        <ele>364</ele>
        <time>2000-01-01T10:09:57Z</time>
      </trkpt>
      <trkpt lat="50.02838" lon="5.21629">
        <ele>363</ele>
        <time>2000-01-01T10:10:07Z</time>
      </trkpt>
      <trkpt lat="50.02815" lon="5.21635">
        <ele>362</ele>
        <time>2000-01-01T10:10:17Z</time>
      </trkpt>
      <trkpt lat="50.02787" lon="5.21643">
        <ele>362</ele>
        <time>2000-01-01T10:10:27Z</time>
      </trkpt>
      <trkpt lat="50.02761" lon="5.21645">
        <ele>362</ele>
        <time>2000-01-01T10:10:37Z</time>
      </trkpt>
      <trkpt lat="50.02723" lon="5.21649">
        <ele>362</ele>
        <time>2000-01-01T10:10:47Z</time>
      </trkpt>
      <trkpt lat="50.02696" lon="5.21643">
        <ele>365</ele>
        <time>2000-01-01T10:10:57Z</time>
      </trkpt>
      <trkpt lat="50.02655" lon="5.21634">
        <ele>368</ele>
        <time>2000-01-01T10:11:07Z</time>
      </trkpt>
      <trkpt lat="50.02627" lon="5.21622">
        <ele>371</ele>
        <time>2000-01-01T10:11:17Z</time>
      </trkpt>
      <trkpt lat="50.02603" lon="5.21612">
        <ele>371</ele>
        <time>2000-01-01T10:11:27Z</time>
      </trkpt>
      <trkpt lat="50.02572" lon="5.21599">
        <ele>381</ele>
        <time>2000-01-01T10:11:37Z</time>
      </trkpt>
      <trkpt lat="50.02549" lon="5.21589">
        <ele>384</ele>
        <time>2000-01-01T10:11:47Z</time>
      </trkpt>
      <trkpt lat="50.02523" lon="5.21576">
        <ele>384</ele>
        <time>2000-01-01T10:11:57Z</time>
      </trkpt>
      <trkpt lat="50.02499" lon="5.21562">
        <ele>382</ele>
        <time>2000-01-01T10:12:07Z</time>
      </trkpt>
      <trkpt lat="50.02467" lon="5.21542">
        <ele>380</ele>
        <time>2000-01-01T10:12:17Z</time>
      </trkpt>
      <trkpt lat="50.02444" lon="5.21526">
        <ele>376</ele>
        <time>2000-01-01T10:12:27Z</time>
      </trkpt>
      <trkpt lat="50.02412" lon="5.21503">
        <ele>373</ele>
        <time>2000-01-01T10:12:37Z</time>
      </trkpt>
      <trkpt lat="50.02387" lon="5.21494">
        <ele>374</ele>
        <time>2000-01-01T10:12:47Z</time>
      </trkpt>
      <trkpt lat="50.02353" lon="5.21482">
        <ele>372</ele>
        <time>2000-01-01T10:12:57Z</time>
      </trkpt>
      <trkpt lat="50.02322" lon="5.21479">
        <ele>371</ele>
        <time>2000-01-01T10:13:07Z</time>
      </trkpt>
      <trkpt lat="50.02292" lon="5.21477">
        <ele>368</ele>
        <time>2000-01-01T10:13:17Z</time>
      </trkpt>
      <trkpt lat="50.02252" lon="5.21473">
        <ele>369</ele>
        <time>2000-01-01T10:13:27Z</time>
      </trkpt>
      <trkpt lat="50.02217" lon="5.21474">
        <ele>370</ele>
        <time>2000-01-01T10:13:37Z</time>
      </trkpt>
      <trkpt lat="50.02182" lon="5.21476">
        <ele>382</ele>
        <time>2000-01-01T10:13:47Z</time>
      </trkpt>
      <trkpt lat="50.02147" lon="5.21478">
        <ele>389</ele>
        <time>2000-01-01T10:13:57Z</time>
      </trkpt>
      <trkpt lat="50.02112" lon="5.21479">
        <ele>392</ele>
        <time>2000-01-01T10:14:07Z</time>
      </trkpt>
      <trkpt lat="50.0209" lon="5.2148">
        <ele>392</ele>
        <time>2000-01-01T10:14:17Z</time>
      </trkpt>
      <trkpt lat="50.02067" lon="5.21481">
        <ele>392</ele>
        <time>2000-01-01T10:14:27Z</time>
      </trkpt>
      <trkpt lat="50.02057" lon="5.21531">
        <ele>392</ele>
        <time>2000-01-01T10:14:37Z</time>
      </trkpt>
      <trkpt lat="50.02046" lon="5.21581">
        <ele>395</ele>
        <time>2000-01-01T10:14:47Z</time>
      </trkpt>
      <trkpt lat="50.02036" lon="5.2163">
        <ele>395</ele>
        <time>2000-01-01T10:14:57Z</time>
      </trkpt>
      <trkpt lat="50.02029" lon="5.21664">
        <ele>395</ele>
        <time>2000-01-01T10:15:07Z</time>
      </trkpt>
      <trkpt lat="50.02021" lon="5.21702">
        <ele>395</ele>
        <time>2000-01-01T10:15:17Z</time>
      </trkpt>
      <trkpt lat="50.02003" lon="5.21749">
        <ele>398</ele>
        <time>2000-01-01T10:15:27Z</time>
      </trkpt>
      <trkpt lat="50.01985" lon="5.21796">
        <ele>402</ele>
        <time>2000-01-01T10:15:37Z</time>
      </trkpt>
      <trkpt lat="50.01967" lon="5.21842">
        <ele>407</ele>
        <time>2000-01-01T10:15:47Z</time>
      </trkpt>
      <trkpt lat="50.01949" lon="5.21889">
        <ele>411</ele>
        <time>2000-01-01T10:15:57Z</time>
      </trkpt>
      <trkpt lat="50.01929" lon="5.21942">
        <ele>411</ele>
        <time>2000-01-01T10:16:07Z</time>
      </trkpt>
      <trkpt lat="50.01912" lon="5.2198">
        <ele>408</ele>
        <time>2000-01-01T10:16:17Z</time>
      </trkpt>
      <trkpt lat="50.01895" lon="5.22017">
        <ele>408</ele>
        <time>2000-01-01T10:16:27Z</time>
      </trkpt>
      <trkpt lat="50.01875" lon="5.22062">
        <ele>412</ele>
        <time>2000-01-01T10:16:37Z</time>
      </trkpt>
      <trkpt lat="50.01851" lon="5.22106">
        <ele>414</ele>
        <time>2000-01-01T10:16:47Z</time>
      </trkpt>
      <trkpt lat="50.01827" lon="5.22149">
        <ele>413</ele>
        <time>2000-01-01T10:16:57Z</time>
      </trkpt>
      <trkpt lat="50.01804" lon="5.22193">
        <ele>412</ele>
        <time>2000-01-01T10:17:07Z</time>
      </trkpt>
      <trkpt lat="50.0178" lon="5.22237">
        <ele>415</ele>
        <time>2000-01-01T10:17:17Z</time>
      </trkpt>
      <trkpt lat="50.01756" lon="5.2228">
        <ele>418</ele>
        <time>2000-01-01T10:17:27Z</time>
      </trkpt>
      <trkpt lat="50.0174" lon="5.2231">
        <ele>418</ele>
        <time>2000-01-01T10:17:37Z</time>
      </trkpt>
      <trkpt lat="50.01717" lon="5.22352">
        <ele>418</ele>
        <time>2000-01-01T10:17:47Z</time>
      </trkpt>
      <trkpt lat="50.01698" lon="5.22404">
        <ele>415</ele>
        <time>2000-01-01T10:17:57Z</time>
      </trkpt>
      <trkpt lat="50.01675" lon="5.22448">
        <ele>414</ele>
        <time>2000-01-01T10:18:07Z</time>
      </trkpt>
      <trkpt lat="50.01642" lon="5.22489">
        <ele>414</ele>
        <time>2000-01-01T10:18:17Z</time>
      </trkpt>
      <trkpt lat="50.0162" lon="5.22504">
        <ele>418</ele>
        <time>2000-01-01T10:18:27Z</time>
      </trkpt>
      <trkpt lat="50.01593" lon="5.22522">
        <ele>420</ele>
        <time>2000-01-01T10:18:37Z</time>
      </trkpt>
      <trkpt lat="50.01564" lon="5.22535">
        <ele>420</ele>
        <time>2000-01-01T10:18:47Z</time>
      </trkpt>
      <trkpt lat="50.01534" lon="5.22547">
        <ele>421</ele>
        <time>2000-01-01T10:18:57Z</time>
      </trkpt>
      <trkpt lat="50.01495" lon="5.22564">
        <ele>422</ele>
        <time>2000-01-01T10:19:07Z</time>
      </trkpt>
      <trkpt lat="50.01485" lon="5.22518">
        <ele>424</ele>
        <time>2000-01-01T10:19:17Z</time>
      </trkpt>
      <trkpt lat="50.01476" lon="5.22473">
        <ele>426</ele>
        <time>2000-01-01T10:19:27Z</time>
      </trkpt>
      <trkpt lat="50.01463" lon="5.22412">
        <ele>430</ele>
        <time>2000-01-01T10:19:37Z</time>
      </trkpt>
      <trkpt lat="50.01453" lon="5.22381">
        <ele>434</ele>
        <time>2000-01-01T10:19:47Z</time>
      </trkpt>
      <trkpt lat="50.0144" lon="5.2235">
        <ele>435</ele>
        <time>2000-01-01T10:19:57Z</time>
      </trkpt>
      <trkpt lat="50.01427" lon="5.22323">
        <ele>436</ele>
        <time>2000-01-01T10:20:07Z</time>
      </trkpt>
      <trkpt lat="50.01405" lon="5.22291">
        <ele>443</ele>
        <time>2000-01-01T10:20:17Z</time>
      </trkpt>
      <trkpt lat="50.01381" lon="5.22263">
        <ele>444</ele>
        <time>2000-01-01T10:20:27Z</time>
      </trkpt>
      <trkpt lat="50.01358" lon="5.22234">
        <ele>447</ele>
        <time>2000-01-01T10:20:37Z</time>
      </trkpt>
      <trkpt lat="50.01331" lon="5.22201">
        <ele>446</ele>
        <time>2000-01-01T10:20:47Z</time>
      </trkpt>
      <trkpt lat="50.01317" lon="5.22178">
        <ele>445</ele>
        <time>2000-01-01T10:20:57Z</time>
      </trkpt>
      <trkpt lat="50.01301" lon="5.22143">
        <ele>443</ele>
        <time>2000-01-01T10:21:07Z</time>
      </trkpt>
      <trkpt lat="50.01288" lon="5.22103">
        <ele>436</ele>
        <time>2000-01-01T10:21:17Z</time>
      </trkpt>
      <trkpt lat="50.0128" lon="5.22062">
        <ele>436</ele>
        <time>2000-01-01T10:21:27Z</time>
      </trkpt>
      <trkpt lat="50.01277" lon="5.2201">
        <ele>438</ele>
        <time>2000-01-01T10:21:37Z</time>
      </trkpt>
      <trkpt lat="50.01279" lon="5.21968">
        <ele>439</ele>
        <time>2000-01-01T10:21:47Z</time>
      </trkpt>
      <trkpt lat="50.0128" lon="5.21932">
        <ele>442</ele>
        <time>2000-01-01T10:21:57Z</time>
      </trkpt>
      <trkpt lat="50.01282" lon="5.21893">
        <ele>443</ele>
        <time>2000-01-01T10:22:07Z</time>
      </trkpt>
      <trkpt lat="50.01285" lon="5.2184">
        <ele>446</ele>
        <time>2000-01-01T10:22:17Z</time>
      </trkpt>
      <trkpt lat="50.01288" lon="5.21786">
        <ele>446</ele>
        <time>2000-01-01T10:22:27Z</time>
      </trkpt>
      <trkpt lat="50.01291" lon="5.21732">
        <ele>447</ele>
        <time>2000-01-01T10:22:37Z</time>
      </trkpt>
      <trkpt lat="50.01293" lon="5.21691">
        <ele>447</ele>
        <time>2000-01-01T10:22:47Z</time>
      </trkpt>
      <trkpt lat="50.01297" lon="5.21626">
        <ele>449</ele>
        <time>2000-01-01T10:22:57Z</time>
      </trkpt>
      <trkpt lat="50.01292" lon="5.21587">
        <ele>448</ele>
        <time>2000-01-01T10:23:07Z</time>
      </trkpt>
      <trkpt lat="50.0128" lon="5.21542">
        <ele>447</ele>
        <time>2000-01-01T10:23:17Z</time>
      </trkpt>
      <trkpt lat="50.01264" lon="5.21508">
        <ele>447</ele>
        <time>2000-01-01T10:23:27Z</time>
      </trkpt>
      <trkpt lat="50.01251" lon="5.2148">
        <ele>447</ele>
        <time>2000-01-01T10:23:37Z</time>
      </trkpt>
      <trkpt lat="50.01236" lon="5.2145">
        <ele>452</ele>
        <time>2000-01-01T10:23:47Z</time>
      </trkpt>
      <trkpt lat="50.0122" lon="5.21425">
        <ele>462</ele>
        <time>2000-01-01T10:23:57Z</time>
      </trkpt>
      <trkpt lat="50.01195" lon="5.21408">
        <ele>465</ele>
        <time>2000-01-01T10:24:07Z</time>
      </trkpt>
      <trkpt lat="50.01174" lon="5.21394">
        <ele>455</ele>
        <time>2000-01-01T10:24:17Z</time>
      </trkpt>
      <trkpt lat="50.01151" lon="5.21378">
        <ele>445</ele>
        <time>2000-01-01T10:24:27Z</time>
      </trkpt>
      <trkpt lat="50.0112" lon="5.21353">
        <ele>444</ele>
        <time>2000-01-01T10:24:37Z</time>
      </trkpt>
      <trkpt lat="50.01089" lon="5.21329">
        <ele>444</ele>
        <time>2000-01-01T10:24:47Z</time>
      </trkpt>
      <trkpt lat="50.01058" lon="5.21304">
        <ele>443</ele>
        <time>2000-01-01T10:24:57Z</time>
      </trkpt>
      <trkpt lat="50.01027" lon="5.2128">
        <ele>443</ele>
        <time>2000-01-01T10:25:07Z</time>
      </trkpt>
      <trkpt lat="50.00993" lon="5.21253">
        <ele>440</ele>
        <time>2000-01-01T10:25:17Z</time>
      </trkpt>
      <trkpt lat="50.00962" lon="5.21235">
        <ele>438</ele>
        <time>2000-01-01T10:25:27Z</time>
      </trkpt>
      <trkpt lat="50.00932" lon="5.21216">
        <ele>436</ele>
        <time>2000-01-01T10:25:37Z</time>
      </trkpt>
      <trkpt lat="50.00901" lon="5.21197">
        <ele>434</ele>
        <time>2000-01-01T10:25:47Z</time>
      </trkpt>
      <trkpt lat="50.00862" lon="5.21173">
        <ele>429</ele>
        <time>2000-01-01T10:25:57Z</time>
      </trkpt>
      <trkpt lat="50.00857" lon="5.21169">
        <ele>439.9</ele>
        <time>2000-01-01T10:26:07Z</time>
      </trkpt>
      <trkpt lat="50.00805" lon="5.21122">
        <ele>424</ele>
        <time>2000-01-01T10:26:17Z</time>
      </trkpt>
      <trkpt lat="50.00785" lon="5.21094">
        <ele>423</ele>
        <time>2000-01-01T10:26:27Z</time>
      </trkpt>
      <trkpt lat="50.00767" lon="5.2107">
        <ele>419</ele>
        <time>2000-01-01T10:26:37Z</time>
      </trkpt>
      <trkpt lat="50.00748" lon="5.21044">
        <ele>418</ele>
        <time>2000-01-01T10:26:47Z</time>
      </trkpt>
      <trkpt lat="50.0072" lon="5.21012">
        <ele>417</ele>
        <time>2000-01-01T10:26:57Z</time>
      </trkpt>
      <trkpt lat="50.00691" lon="5.20981">
        <ele>414</ele>
        <time>2000-01-01T10:27:07Z</time>
      </trkpt>
      <trkpt lat="50.00663" lon="5.20949">
        <ele>412</ele>
        <time>2000-01-01T10:27:17Z</time>
      </trkpt>
      <trkpt lat="50.00634" lon="5.20917">
        <ele>411</ele>
        <time>2000-01-01T10:27:27Z</time>
      </trkpt>
      <trkpt lat="50.00616" lon="5.20896">
        <ele>407</ele>
        <time>2000-01-01T10:27:37Z</time>
      </trkpt>
      <trkpt lat="50.00596" lon="5.20874">
        <ele>404</ele>
        <time>2000-01-01T10:27:47Z</time>
      </trkpt>
      <trkpt lat="50.00564" lon="5.20849">
        <ele>404</ele>
        <time>2000-01-01T10:27:57Z</time>
      </trkpt>
      <trkpt lat="50.00531" lon="5.20824">
        <ele>402</ele>
        <time>2000-01-01T10:28:07Z</time>
      </trkpt>
      <trkpt lat="50.00499" lon="5.20798">
        <ele>404</ele>
        <time>2000-01-01T10:28:17Z</time>
      </trkpt>
      <trkpt lat="50.00466" lon="5.20773">
        <ele>404</ele>
        <time>2000-01-01T10:28:27Z</time>
      </trkpt>
      <trkpt lat="50.00433" lon="5.20747">
        <ele>404</ele>
        <time>2000-01-01T10:28:37Z</time>
      </trkpt>
      <trkpt lat="50.00412" lon="5.20731">
        <ele>399</ele>
        <time>2000-01-01T10:28:47Z</time>
      </trkpt>
      <trkpt lat="50.00388" lon="5.20712">
        <ele>397</ele>
        <time>2000-01-01T10:28:57Z</time>
      </trkpt>
      <trkpt lat="50.00361" lon="5.207">
        <ele>397</ele>
        <time>2000-01-01T10:29:07Z</time>
      </trkpt>
      <trkpt lat="50.00337" lon="5.20689">
        <ele>397</ele>
        <time>2000-01-01T10:29:17Z</time>
      </trkpt>
      <trkpt lat="50.00307" lon="5.20676">
        <ele>396</ele>
        <time>2000-01-01T10:29:27Z</time>
      </trkpt>
      <trkpt lat="50.00277" lon="5.20653">
        <ele>397</ele>
        <time>2000-01-01T10:29:37Z</time>
      </trkpt>
      <trkpt lat="50.00248" lon="5.20631">
        <ele>394</ele>
        <time>2000-01-01T10:29:47Z</time>
      </trkpt>
      <trkpt lat="50.00218" lon="5.20608">
        <ele>391</ele>
        <time>2000-01-01T10:29:57Z</time>
      </trkpt>
      <trkpt lat="50.00185" lon="5.20583">
        <ele>384</ele>
        <time>2000-01-01T10:30:07Z</time>
      </trkpt>
      <trkpt lat="50.00174" lon="5.20565">
        <ele>393.1</ele>
        <time>2000-01-01T10:30:17Z</time>
      </trkpt>
      <trkpt lat="50.00174" lon="5.20543">
        <ele>383</ele>
        <time>2000-01-01T10:30:27Z</time>
      </trkpt>
      <trkpt lat="50.00181" lon="5.20502">
        <ele>383</ele>
        <time>2000-01-01T10:30:37Z</time>
      </trkpt>
      <trkpt lat="50.00182" lon="5.20475">
        <ele>383</ele>
        <time>2000-01-01T10:30:47Z</time>
      </trkpt>
      <trkpt lat="50.00172" lon="5.20459">
        <ele>386.7</ele>
        <time>2000-01-01T10:30:57Z</time>
      </trkpt>
      <trkpt lat="50.00132" lon="5.20436">
        <ele>380</ele>
        <time>2000-01-01T10:31:07Z</time>
      </trkpt>
      <trkpt lat="50.00108" lon="5.20418">
        <ele>378</ele>
        <time>2000-01-01T10:31:17Z</time>
      </trkpt>
      <trkpt lat="50.00088" lon="5.20404">
        <ele>377</ele>
        <time>2000-01-01T10:31:27Z</time>
      </trkpt>
      <trkpt lat="50.00068" lon="5.20389">
        <ele>375</ele>
        <time>2000-01-01T10:31:37Z</time>
      </trkpt>
      <trkpt lat="50.00062" lon="5.20342">
        <ele>375</ele>
        <time>2000-01-01T10:31:47Z</time>
      </trkpt>
      <trkpt lat="50.00053" lon="5.20308">
        <ele>376</ele>
        <time>2000-01-01T10:31:57Z</time>
      </trkpt>
      <trkpt lat="50.00073" lon="5.20249">
        <ele>378</ele>
        <time>2000-01-01T10:32:07Z</time>
      </trkpt>
      <trkpt lat="50.0007" lon="5.20228">
        <ele>385.4</ele>
        <time>2000-01-01T10:32:17Z</time>
      </trkpt>
      <trkpt lat="50.00056" lon="5.20194">
        <ele>377</ele>
        <time>2000-01-01T10:32:27Z</time>
      </trkpt>
      <trkpt lat="50.00046" lon="5.20174">
        <ele>384.9</ele>
        <time>2000-01-01T10:32:37Z</time>
      </trkpt>
      <trkpt lat="50.00019" lon="5.20126">
        <ele>376</ele>
        <time>2000-01-01T10:32:47Z</time>
      </trkpt>
      <trkpt lat="49.99998" lon="5.20081">
        <ele>376</ele>
        <time>2000-01-01T10:32:57Z</time>
      </trkpt>
      <trkpt lat="49.9997" lon="5.2003">
        <ele>376</ele>
        <time>2000-01-01T10:33:07Z</time>
      </trkpt>
      <trkpt lat="49.99949" lon="5.20001">
        <ele>370</ele>
        <time>2000-01-01T10:33:17Z</time>
      </trkpt>
      <trkpt lat="49.99932" lon="5.19977">
        <ele>370</ele>
        <time>2000-01-01T10:33:27Z</time>
      </trkpt>
      <trkpt lat="49.99911" lon="5.19948">
        <ele>371</ele>
        <time>2000-01-01T10:33:37Z</time>
      </trkpt>
      <trkpt lat="49.99889" lon="5.19923">
        <ele>371</ele>
        <time>2000-01-01T10:33:47Z</time>
      </trkpt>
      <trkpt lat="49.9987" lon="5.19901">
        <ele>371</ele>
        <time>2000-01-01T10:33:57Z</time>
      </trkpt>
      <trkpt lat="49.99848" lon="5.19877">
        <ele>370</ele>
        <time>2000-01-01T10:34:07Z</time>
      </trkpt>
      <trkpt lat="49.99829" lon="5.19854">
        <ele>370</ele>
        <time>2000-01-01T10:34:17Z</time>
      </trkpt>
      <trkpt lat="49.99803" lon="5.19824">
        <ele>368</ele>
        <time>2000-01-01T10:34:27Z</time>
      </trkpt>
      <trkpt lat="49.99777" lon="5.19787">
        <ele>367</ele>
        <time>2000-01-01T10:34:37Z</time>
      </trkpt>
      <trkpt lat="49.99763" lon="5.19749">
        <ele>359</ele>
        <time>2000-01-01T10:34:47Z</time>
      </trkpt>
      <trkpt lat="49.99752" lon="5.19711">
        <ele>359</ele>
        <time>2000-01-01T10:34:57Z</time>
      </trkpt>
      <trkpt lat="49.99743" lon="5.1968">
        <ele>359</ele>
        <time>2000-01-01T10:35:07Z</time>
      </trkpt>
      <trkpt lat="49.99734" lon="5.19648">
        <ele>359</ele>
        <time>2000-01-01T10:35:17Z</time>
      </trkpt>
      <trkpt lat="49.99725" lon="5.19595">
        <ele>359</ele>
        <time>2000-01-01T10:35:27Z</time>
      </trkpt>
      <trkpt lat="49.9972" lon="5.19549">
        <ele>359</ele>
        <time>2000-01-01T10:35:37Z</time>
      </trkpt>
      <trkpt lat="49.99716" lon="5.19502">
        <ele>358</ele>
        <time>2000-01-01T10:35:47Z</time>
      </trkpt>
      <trkpt lat="49.9971" lon="5.19442">
        <ele>357</ele>
        <time>2000-01-01T10:35:57Z</time>
      </trkpt>
      <trkpt lat="49.9971" lon="5.19386">
        <ele>357</ele>
        <time>2000-01-01T10:36:07Z</time>
      </trkpt>
      <trkpt lat="49.99716" lon="5.19335">
        <ele>360</ele>
        <time>2000-01-01T10:36:17Z</time>
      </trkpt>
      <trkpt lat="49.99716" lon="5.19294">
        <ele>360</ele>
        <time>2000-01-01T10:36:27Z</time>
      </trkpt>
      <trkpt lat="49.99713" lon="5.19248">
        <ele>359</ele>
        <time>2000-01-01T10:36:37Z</time>
      </trkpt>
      <trkpt lat="49.99709" lon="5.19203">
        <ele>359</ele>
        <time>2000-01-01T10:36:47Z</time>
      </trkpt>
      <trkpt lat="49.99705" lon="5.1915">
        <ele>362</ele>
        <time>2000-01-01T10:36:57Z</time>
      </trkpt>
      <trkpt lat="49.99695" lon="5.19089">
        <ele>371</ele>
        <time>2000-01-01T10:37:07Z</time>
      </trkpt>
      <trkpt lat="49.9969" lon="5.19042">
        <ele>380</ele>
        <time>2000-01-01T10:37:17Z</time>
      </trkpt>
      <trkpt lat="49.99684" lon="5.18995">
        <ele>384</ele>
        <time>2000-01-01T10:37:27Z</time>
      </trkpt>
      <trkpt lat="49.9968" lon="5.18962">
        <ele>385</ele>
        <time>2000-01-01T10:37:37Z</time>
      </trkpt>
      <trkpt lat="49.99676" lon="5.18927">
        <ele>387</ele>
        <time>2000-01-01T10:37:47Z</time>
      </trkpt>
      <trkpt lat="49.99678" lon="5.18893">
        <ele>388</ele>
        <time>2000-01-01T10:37:57Z</time>
      </trkpt>
      <trkpt lat="49.99677" lon="5.18869">
        <ele>391.2</ele>
        <time>2000-01-01T10:38:07Z</time>
      </trkpt>
      <trkpt lat="49.99662" lon="5.18806">
        <ele>393</ele>
        <time>2000-01-01T10:38:17Z</time>
      </trkpt>
      <trkpt lat="49.99641" lon="5.18751">
        <ele>395</ele>
        <time>2000-01-01T10:38:27Z</time>
      </trkpt>
      <trkpt lat="49.99633" lon="5.18693">
        <ele>396</ele>
        <time>2000-01-01T10:38:37Z</time>
      </trkpt>
      <trkpt lat="49.99624" lon="5.1865">
        <ele>395</ele>
        <time>2000-01-01T10:38:47Z</time>
      </trkpt>
      <trkpt lat="49.99622" lon="5.18616">
        <ele>394</ele>
        <time>2000-01-01T10:38:57Z</time>
      </trkpt>
      <trkpt lat="49.99616" lon="5.18588">
        <ele>392</ele>
        <time>2000-01-01T10:39:07Z</time>
      </trkpt>
      <trkpt lat="49.99604" lon="5.1854">
        <ele>389</ele>
        <time>2000-01-01T10:39:17Z</time>
      </trkpt>
      <trkpt lat="49.99592" lon="5.18492">
        <ele>385</ele>
        <time>2000-01-01T10:39:27Z</time>
      </trkpt>
      <trkpt lat="49.9958" lon="5.18444">
        <ele>384</ele>
        <time>2000-01-01T10:39:37Z</time>
      </trkpt>
      <trkpt lat="49.99572" lon="5.18412">
        <ele>384</ele>
        <time>2000-01-01T10:39:47Z</time>
      </trkpt>
      <trkpt lat="49.99563" lon="5.18378">
        <ele>383</ele>
        <time>2000-01-01T10:39:57Z</time>
      </trkpt>
      <trkpt lat="49.99556" lon="5.18339">
        <ele>383</ele>
        <time>2000-01-01T10:40:07Z</time>
      </trkpt>
      <trkpt lat="49.99559" lon="5.18325">
        <ele>386.3</ele>
        <time>2000-01-01T10:40:17Z</time>
      </trkpt>
      <trkpt lat="49.99565" lon="5.18305">
        <ele>382</ele>
        <time>2000-01-01T10:40:27Z</time>
      </trkpt>
      <trkpt lat="49.99593" lon="5.18267">
        <ele>376</ele>
        <time>2000-01-01T10:40:37Z</time>
      </trkpt>
      <trkpt lat="49.99614" lon="5.18242">
        <ele>374</ele>
        <time>2000-01-01T10:40:47Z</time>
      </trkpt>
      <trkpt lat="49.9963" lon="5.18219">
        <ele>373</ele>
        <time>2000-01-01T10:40:57Z</time>
      </trkpt>
      <trkpt lat="49.99649" lon="5.18193">
        <ele>372</ele>
        <time>2000-01-01T10:41:07Z</time>
      </trkpt>
      <trkpt lat="49.99669" lon="5.18164">
        <ele>374</ele>
        <time>2000-01-01T10:41:17Z</time>
      </trkpt>
      <trkpt lat="49.99685" lon="5.1814">
        <ele>376</ele>
        <time>2000-01-01T10:41:27Z</time>
      </trkpt>
      <trkpt lat="49.99701" lon="5.18115">
        <ele>383</ele>
        <time>2000-01-01T10:41:37Z</time>
      </trkpt>
      <trkpt lat="49.99719" lon="5.18087">
        <ele>383</ele>
        <time>2000-01-01T10:41:47Z</time>
      </trkpt>
      <trkpt lat="49.99744" lon="5.18045">
        <ele>377</ele>
        <time>2000-01-01T10:41:57Z</time>
      </trkpt>
      <trkpt lat="49.99767" lon="5.18013">
        <ele>375</ele>
        <time>2000-01-01T10:42:07Z</time>
      </trkpt>
      <trkpt lat="49.99791" lon="5.17981">
        <ele>367</ele>
        <time>2000-01-01T10:42:17Z</time>
      </trkpt>
      <trkpt lat="49.99807" lon="5.17957">
        <ele>360</ele>
        <time>2000-01-01T10:42:27Z</time>
      </trkpt>
      <trkpt lat="49.99826" lon="5.17932">
        <ele>352</ele>
        <time>2000-01-01T10:42:37Z</time>
      </trkpt>
      <trkpt lat="49.99834" lon="5.17907">
        <ele>351</ele>
        <time>2000-01-01T10:42:47Z</time>
      </trkpt>
      <trkpt lat="49.99837" lon="5.17854">
        <ele>349</ele>
        <time>2000-01-01T10:42:57Z</time>
      </trkpt>
      <trkpt lat="49.99834" lon="5.1781">
        <ele>351</ele>
        <time>2000-01-01T10:43:07Z</time>
      </trkpt>
      <trkpt lat="49.99828" lon="5.17769">
        <ele>351</ele>
        <time>2000-01-01T10:43:17Z</time>
      </trkpt>
      <trkpt lat="49.99826" lon="5.17734">
        <ele>351</ele>
        <time>2000-01-01T10:43:27Z</time>
      </trkpt>
      <trkpt lat="49.99824" lon="5.17697">
        <ele>348</ele>
        <time>2000-01-01T10:43:37Z</time>
      </trkpt>
      <trkpt lat="49.99817" lon="5.17664">
        <ele>343</ele>
        <time>2000-01-01T10:43:47Z</time>
      </trkpt>
      <trkpt lat="49.99809" lon="5.17629">
        <ele>338</ele>
        <time>2000-01-01T10:43:57Z</time>
      </trkpt>
      <trkpt lat="49.99808" lon="5.1761">
        <ele>333.3</ele>
        <time>2000-01-01T10:44:07Z</time>
      </trkpt>
      <trkpt lat="49.9981" lon="5.17591">
        <ele>338</ele>
        <time>2000-01-01T10:44:17Z</time>
      </trkpt>
      <trkpt lat="49.99798" lon="5.17558">
        <ele>338</ele>
        <time>2000-01-01T10:44:27Z</time>
      </trkpt>
      <trkpt lat="49.99781" lon="5.17512">
        <ele>337</ele>
        <time>2000-01-01T10:44:37Z</time>
      </trkpt>
      <trkpt lat="49.99758" lon="5.17458">
        <ele>336</ele>
        <time>2000-01-01T10:44:47Z</time>
      </trkpt>
      <trkpt lat="49.99749" lon="5.17431">
        <ele>336</ele>
        <time>2000-01-01T10:44:57Z</time>
      </trkpt>
      <trkpt lat="49.99741" lon="5.17387">
        <ele>334</ele>
        <time>2000-01-01T10:45:07Z</time>
      </trkpt>
      <trkpt lat="49.99738" lon="5.17351">
        <ele>325</ele>
        <time>2000-01-01T10:45:17Z</time>
      </trkpt>
      <trkpt lat="49.99733" lon="5.17329">
        <ele>327.4</ele>
        <time>2000-01-01T10:45:27Z</time>
      </trkpt>
      <trkpt lat="49.99714" lon="5.17267">
        <ele>325</ele>
        <time>2000-01-01T10:45:37Z</time>
      </trkpt>
      <trkpt lat="49.99704" lon="5.17232">
        <ele>325</ele>
        <time>2000-01-01T10:45:47Z</time>
      </trkpt>
      <trkpt lat="49.99692" lon="5.17187">
        <ele>325</ele>
        <time>2000-01-01T10:45:57Z</time>
      </trkpt>
      <trkpt lat="49.99679" lon="5.17168">
        <ele>325</ele>
        <time>2000-01-01T10:46:07Z</time>
      </trkpt>
      <trkpt lat="49.99646" lon="5.17136">
        <ele>324</ele>
        <time>2000-01-01T10:46:17Z</time>
      </trkpt>
      <trkpt lat="49.99632" lon="5.17126">
        <ele>318.7</ele>
        <time>2000-01-01T10:46:27Z</time>
      </trkpt>
      <trkpt lat="49.99606" lon="5.17111">
        <ele>323</ele>
        <time>2000-01-01T10:46:37Z</time>
      </trkpt>
      <trkpt lat="49.99572" lon="5.17098">
        <ele>323</ele>
        <time>2000-01-01T10:46:47Z</time>
      </trkpt>
      <trkpt lat="49.99547" lon="5.17092">
        <ele>323</ele>
        <time>2000-01-01T10:46:57Z</time>
      </trkpt>
      <trkpt lat="49.99511" lon="5.17084">
        <ele>325</ele>
        <time>2000-01-01T10:47:07Z</time>
      </trkpt>
      <trkpt lat="49.99501" lon="5.17074">
        <ele>309.2</ele>
        <time>2000-01-01T10:47:17Z</time>
      </trkpt>
      <trkpt lat="49.99497" lon="5.17058">
        <ele>323</ele>
        <time>2000-01-01T10:47:27Z</time>
      </trkpt>
      <trkpt lat="49.99478" lon="5.17037">
        <ele>322</ele>
        <time>2000-01-01T10:47:37Z</time>
      </trkpt>
      <trkpt lat="49.99445" lon="5.17007">
        <ele>319</ele>
        <time>2000-01-01T10:47:47Z</time>
      </trkpt>
      <trkpt lat="49.9943" lon="5.16988">
        <ele>312</ele>
        <time>2000-01-01T10:47:57Z</time>
      </trkpt>
      <trkpt lat="49.99407" lon="5.16941">
        <ele>296</ele>
        <time>2000-01-01T10:48:07Z</time>
      </trkpt>
      <trkpt lat="49.99398" lon="5.16911">
        <ele>294</ele>
        <time>2000-01-01T10:48:17Z</time>
      </trkpt>
      <trkpt lat="49.99394" lon="5.16883">
        <ele>294</ele>
        <time>2000-01-01T10:48:27Z</time>
      </trkpt>
      <trkpt lat="49.99394" lon="5.16833">
        <ele>292</ele>
        <time>2000-01-01T10:48:37Z</time>
      </trkpt>
      <trkpt lat="49.99396" lon="5.16773">
        <ele>290</ele>
        <time>2000-01-01T10:48:47Z</time>
      </trkpt>
      <trkpt lat="49.994" lon="5.16747">
        <ele>292</ele>
        <time>2000-01-01T10:48:57Z</time>
      </trkpt>
      <trkpt lat="49.99423" lon="5.16729">
        <ele>294</ele>
        <time>2000-01-01T10:49:07Z</time>
      </trkpt>
      <trkpt lat="49.99462" lon="5.16707">
        <ele>311</ele>
        <time>2000-01-01T10:49:17Z</time>
      </trkpt>
      <trkpt lat="49.99489" lon="5.16709">
        <ele>311</ele>
        <time>2000-01-01T10:49:27Z</time>
      </trkpt>
      <trkpt lat="49.99515" lon="5.16717">
        <ele>313</ele>
        <time>2000-01-01T10:49:37Z</time>
      </trkpt>
      <trkpt lat="49.99555" lon="5.16728">
        <ele>325</ele>
        <time>2000-01-01T10:49:47Z</time>
      </trkpt>
      <trkpt lat="49.99595" lon="5.16745">
        <ele>327</ele>
        <time>2000-01-01T10:49:57Z</time>
      </trkpt>
      <trkpt lat="49.99615" lon="5.16758">
        <ele>329</ele>
        <time>2000-01-01T10:50:07Z</time>
      </trkpt>
      <trkpt lat="49.99637" lon="5.16772">
        <ele>332</ele>
        <time>2000-01-01T10:50:17Z</time>
      </trkpt>
      <trkpt lat="49.99661" lon="5.16794">
        <ele>336</ele>
        <time>2000-01-01T10:50:27Z</time>
      </trkpt>
      <trkpt lat="49.99692" lon="5.16806">
        <ele>340</ele>
        <time>2000-01-01T10:50:37Z</time>
      </trkpt>
      <trkpt lat="49.99723" lon="5.16819">
        <ele>338</ele>
        <time>2000-01-01T10:50:47Z</time>
      </trkpt>
      <trkpt lat="49.99746" lon="5.16828">
        <ele>337</ele>
        <time>2000-01-01T10:50:57Z</time>
      </trkpt>
      <trkpt lat="49.99777" lon="5.16841">
        <ele>337</ele>
        <time>2000-01-01T10:51:07Z</time>
      </trkpt>
      <trkpt lat="49.99796" lon="5.16856">
        <ele>337</ele>
        <time>2000-01-01T10:51:17Z</time>
      </trkpt>
      <trkpt lat="49.99816" lon="5.16872">
        <ele>337</ele>
        <time>2000-01-01T10:51:27Z</time>
      </trkpt>
      <trkpt lat="49.9985" lon="5.16884">
        <ele>343</ele>
        <time>2000-01-01T10:51:37Z</time>
      </trkpt>
      <trkpt lat="49.99867" lon="5.16884">
        <ele>336.7</ele>
        <time>2000-01-01T10:51:47Z</time>
      </trkpt>
      <trkpt lat="49.99912" lon="5.16896">
        <ele>347</ele>
        <time>2000-01-01T10:51:57Z</time>
      </trkpt>
      <trkpt lat="49.99946" lon="5.16917">
        <ele>352</ele>
        <time>2000-01-01T10:52:07Z</time>
      </trkpt>
      <trkpt lat="49.99975" lon="5.16928">
        <ele>360</ele>
        <time>2000-01-01T10:52:17Z</time>
      </trkpt>
      <trkpt lat="49.99998" lon="5.16926">
        <ele>360</ele>
        <time>2000-01-01T10:52:27Z</time>
      </trkpt>
      <trkpt lat="50.00024" lon="5.16924">
        <ele>363</ele>
        <time>2000-01-01T10:52:37Z</time>
      </trkpt>
      <trkpt lat="50.00038" lon="5.16927">
        <ele>345.8</ele>
        <time>2000-01-01T10:52:47Z</time>
      </trkpt>
      <trkpt lat="50.00063" lon="5.16938">
        <ele>360</ele>
        <time>2000-01-01T10:52:57Z</time>
      </trkpt>
      <trkpt lat="50.00085" lon="5.16953">
        <ele>358</ele>
        <time>2000-01-01T10:53:07Z</time>
      </trkpt>
      <trkpt lat="50.00113" lon="5.16972">
        <ele>355</ele>
        <time>2000-01-01T10:53:17Z</time>
      </trkpt>
      <trkpt lat="50.00141" lon="5.16983">
        <ele>355</ele>
        <time>2000-01-01T10:53:27Z</time>
      </trkpt>
      <trkpt lat="50.00167" lon="5.16987">
        <ele>356</ele>
        <time>2000-01-01T10:53:37Z</time>
      </trkpt>
      <trkpt lat="50.00199" lon="5.1698">
        <ele>357</ele>
        <time>2000-01-01T10:53:47Z</time>
      </trkpt>
      <trkpt lat="50.0022" lon="5.1697">
        <ele>355</ele>
        <time>2000-01-01T10:53:57Z</time>
      </trkpt>
      <trkpt lat="50.00244" lon="5.16956">
        <ele>357</ele>
        <time>2000-01-01T10:54:07Z</time>
      </trkpt>
      <trkpt lat="50.00278" lon="5.16936">
        <ele>360</ele>
        <time>2000-01-01T10:54:17Z</time>
      </trkpt>
      <trkpt lat="50.003" lon="5.16928">
        <ele>361</ele>
        <time>2000-01-01T10:54:27Z</time>
      </trkpt>
      <trkpt lat="50.00313" lon="5.16926">
        <ele>366.9</ele>
        <time>2000-01-01T10:54:37Z</time>
      </trkpt>
      <trkpt lat="50.00361" lon="5.16924">
        <ele>362</ele>
        <time>2000-01-01T10:54:47Z</time>
      </trkpt>
      <trkpt lat="50.00397" lon="5.1693">
        <ele>362</ele>
        <time>2000-01-01T10:54:57Z</time>
      </trkpt>
      <trkpt lat="50.00421" lon="5.1693">
        <ele>361</ele>
        <time>2000-01-01T10:55:07Z</time>
      </trkpt>
      <trkpt lat="50.0045" lon="5.16929">
        <ele>361</ele>
        <time>2000-01-01T10:55:17Z</time>
      </trkpt>
      <trkpt lat="50.00486" lon="5.16925">
        <ele>364</ele>
        <time>2000-01-01T10:55:27Z</time>
      </trkpt>
      <trkpt lat="50.00513" lon="5.16913">
        <ele>366</ele>
        <time>2000-01-01T10:55:37Z</time>
      </trkpt>
      <trkpt lat="50.00536" lon="5.169">
        <ele>367</ele>
        <time>2000-01-01T10:55:47Z</time>
      </trkpt>
      <trkpt lat="50.00548" lon="5.1689">
        <ele>378.7</ele>
        <time>2000-01-01T10:55:57Z</time>
      </trkpt>
      <trkpt lat="50.00568" lon="5.16862">
        <ele>370</ele>
        <time>2000-01-01T10:56:07Z</time>
      </trkpt>
      <trkpt lat="50.00582" lon="5.16831">
        <ele>369</ele>
        <time>2000-01-01T10:56:17Z</time>
      </trkpt>
      <trkpt lat="50.00599" lon="5.16789">
        <ele>369</ele>
        <time>2000-01-01T10:56:27Z</time>
      </trkpt>
      <trkpt lat="50.00614" lon="5.16758">
        <ele>369</ele>
        <time>2000-01-01T10:56:37Z</time>
      </trkpt>
      <trkpt lat="50.00616" lon="5.16719">
        <ele>369</ele>
        <time>2000-01-01T10:56:47Z</time>
      </trkpt>
      <trkpt lat="50.0062" lon="5.16674">
        <ele>368</ele>
        <time>2000-01-01T10:56:57Z</time>
      </trkpt>
      <trkpt lat="50.00625" lon="5.16641">
        <ele>368</ele>
        <time>2000-01-01T10:57:07Z</time>
      </trkpt>
      <trkpt lat="50.00635" lon="5.16597">
        <ele>365</ele>
        <time>2000-01-01T10:57:17Z</time>
      </trkpt>
      <trkpt lat="50.00645" lon="5.16553">
        <ele>362</ele>
        <time>2000-01-01T10:57:27Z</time>
      </trkpt>
      <trkpt lat="50.00657" lon="5.16496">
        <ele>356</ele>
        <time>2000-01-01T10:57:37Z</time>
      </trkpt>
      <trkpt lat="50.00667" lon="5.16442">
        <ele>355</ele>
        <time>2000-01-01T10:57:47Z</time>
      </trkpt>
      <trkpt lat="50.00666" lon="5.16393">
        <ele>353</ele>
        <time>2000-01-01T10:57:57Z</time>
      </trkpt>
      <trkpt lat="50.00659" lon="5.16354">
        <ele>351</ele>
        <time>2000-01-01T10:58:07Z</time>
      </trkpt>
      <trkpt lat="50.00645" lon="5.16309">
        <ele>350</ele>
        <time>2000-01-01T10:58:17Z</time>
      </trkpt>
      <trkpt lat="50.00631" lon="5.16263">
        <ele>348</ele>
        <time>2000-01-01T10:58:27Z</time>
      </trkpt>
      <trkpt lat="50.0062" lon="5.16227">
        <ele>347</ele>
        <time>2000-01-01T10:58:37Z</time>
      </trkpt>
      <trkpt lat="50.00604" lon="5.16174">
        <ele>345</ele>
        <time>2000-01-01T10:58:47Z</time>
      </trkpt>
      <trkpt lat="50.00602" lon="5.16152">
        <ele>352.3</ele>
        <time>2000-01-01T10:58:57Z</time>
      </trkpt>
      <trkpt lat="50.00603" lon="5.16138">
        <ele>345</ele>
        <time>2000-01-01T10:59:07Z</time>
      </trkpt>
      <trkpt lat="50.00608" lon="5.16121">
        <ele>351.2</ele>
        <time>2000-01-01T10:59:17Z</time>
      </trkpt>
      <trkpt lat="50.00624" lon="5.16093">
        <ele>345</ele>
        <time>2000-01-01T10:59:27Z</time>
      </trkpt>
      <trkpt lat="50.00634" lon="5.1608">
        <ele>352.7</ele>
        <time>2000-01-01T10:59:37Z</time>
      </trkpt>
      <trkpt lat="50.00645" lon="5.16067">
        <ele>346</ele>
        <time>2000-01-01T10:59:47Z</time>
      </trkpt>
      <trkpt lat="50.00677" lon="5.16039">
        <ele>352</ele>
        <time>2000-01-01T10:59:57Z</time>
      </trkpt>
      <trkpt lat="50.00702" lon="5.16021">
        <ele>353</ele>
        <time>2000-01-01T11:00:07Z</time>
      </trkpt>
      <trkpt lat="50.00712" lon="5.15992">
        <ele>354</ele>
        <time>2000-01-01T11:00:17Z</time>
      </trkpt>
      <trkpt lat="50.00723" lon="5.15982">
        <ele>366</ele>
        <time>2000-01-01T11:00:27Z</time>
      </trkpt>
      <trkpt lat="50.00751" lon="5.15974">
        <ele>357</ele>
        <time>2000-01-01T11:00:37Z</time>
      </trkpt>
    </trkseg>
  </trk>
</gpx>